[[{"header":{"parameterUnit":"m.s-1","parameterCategory":1,"la1":30.6,"la2":28.766,"lo1":-90.7593,"lo2":-88.6598,"dx":0.0162,"dy":0.0183,"nx":116,"ny":114,"refTime":"2022-11-17T18:00:00:Z","depth":0,"parameterNumber":2,"parameterNumberName":"U-component_of_WINDS"},"data":[0.0,0.0,0.0,0.0,0.0,0.0,0.0,0.0,0.0,0.0,0.0,0.0,0.0,0.0,0.0,0.0,0.0,0.0,0.0,0.0,0.0,0.0,0.0,0.0,0.0,0.0,0.0,0.0,0.0,0.0,0.0,0.0,0.0,0.0,0.0,0.0,0.0,0.0,0.0,0.0,0.0,0.0,0.0,0.0,0.0,0.0,0.0,0.0,0.0,0.0,0.0,0.0,0.0,0.0,0.0,0.0,0.0,0.0,0.0,0.0,0.0,0.0,0.0,0.0,0.0,0.0,0.0,0.0,0.0,0.0,0.0,0.0,0.0,0.0,0.0,0.0,0.0,0.0,0.0,0.0,0.0,0.0,0.0,0.0,0.0,0.0,0.0,0.0,0.0,0.0,0.0,0.0,0.0,0.0,0.0,0.0,0.0,0.0,0.0,0.0,0.0,0.0,0.0,0.0,0.0,0.0,0.0,0.0,0.0,0.0,0.0,0.0,0.0,0.0,0.0,0.0,0.0,0.0,0.0,0.0,0.0,0.0,0.0,0.0,0.0,0.0,0.0,0.0,0.0,0.0,0.0,0.0,0.0,0.0,0.0,0.0,0.0,0.0,0.0,0.0,0.0,0.0,0.0,0.0,0.0,0.0,0.0,0.0,0.0,0.0,0.0,0.0,0.0,0.0,0.0,0.0,0.0,0.0,0.0,0.0,0.0,0.0,0.0,0.0,0.0,0.0,0.0,0.0,0.0,0.0,0.0,0.0,0.0,0.0,0.0,0.0,0.0,0.0,0.0,0.0,0.0,0.0,0.0,0.0,0.0,0.0,0.0,0.0,0.0,0.0,0.0,0.0,0.0,0.0,0.0,0.0,0.0,0.0,0.0,0.0,0.0,0.0,0.0,0.0,0.0,0.0,0.0,0.0,0.0,0.0,0.0,0.0,0.0,0.0,0.0,0.0,0.0,0.0,0.0,0.0,0.0,0.0,0.0,0.0,0.0,0.0,0.0,0.0,0.0,0.0,0.0,0.0,0.0,0.0,0.0,0.0,0.0,0.0,0.0,0.0,0.0,0.0,0.0,0.0,0.0,0.0,0.0,0.0,0.0,0.0,0.0,0.0,0.0,0.0,0.0,0.0,0.0,0.0,0.0,0.0,0.0,0.0,0.0,0.0,0.0,0.0,0.0,0.0,0.0,0.0,0.0,0.0,0.0,0.0,0.0,0.0,0.0,0.0,0.0,0.0,0.0,0.0,0.0,0.0,0.0,0.0,0.0,0.0,0.0,0.0,0.0,0.0,0.0,0.0,0.0,0.0,0.0,0.0,0.0,0.0,0.0,0.0,0.0,0.0,0.0,0.0,0.0,0.0,0.0,0.0,0.0,0.0,0.0,0.0,0.0,0.0,0.0,0.0,0.0,0.0,0.0,0.0,0.0,0.0,0.0,0.0,0.0,0.0,0.0,0.0,0.0,0.0,0.0,0.0,0.0,0.0,0.0,0.0,0.0,0.0,0.0,0.0,0.0,0.0,0.0,0.0,0.0,0.0,0.0,0.0,0.0,0.0,0.0,0.0,0.0,0.0,0.0,0.0,0.0,0.0,0.0,0.0,0.0,0.0,0.0,0.0,0.0,0.0,0.0,0.0,0.0,0.0,0.0,0.0,0.0,0.0,0.0,0.0,0.0,0.0,0.0,0.0,0.0,0.0,0.0,0.0,0.0,0.0,0.0,0.0,0.0,0.0,0.0,0.0,0.0,0.0,0.0,0.0,0.0,0.0,0.0,0.0,0.0,0.0,0.0,0.0,0.0,0.0,0.0,0.0,0.0,0.0,0.0,0.0,0.0,0.0,0.0,0.0,0.0,0.0,0.0,0.0,0.0,0.0,0.0,0.0,0.0,0.0,0.0,0.0,0.0,0.0,0.0,0.0,0.0,0.0,0.0,0.0,0.0,0.0,0.0,0.0,0.0,0.0,0.0,0.0,0.0,0.0,0.0,0.0,0.0,0.0,0.0,0.0,0.0,0.0,0.0,0.0,0.0,0.0,0.0,0.0,0.0,0.0,0.0,0.0,0.0,0.0,0.0,0.0,0.0,0.0,0.0,0.0,0.0,0.0,0.0,0.0,0.0,0.0,0.0,0.0,0.0,0.0,0.0,0.0,0.0,0.0,0.0,0.0,0.0,0.0,0.0,0.0,0.0,0.0,0.0,0.0,0.0,0.0,0.0,0.0,0.0,0.0,0.0,0.0,0.0,0.0,0.0,0.0,0.0,0.0,0.0,0.0,0.0,0.0,0.0,0.0,0.0,0.0,0.0,0.0,0.0,0.0,0.0,0.0,0.0,0.0,0.0,0.0,0.0,0.0,0.0,0.0,0.0,0.0,0.0,0.0,0.0,0.0,0.0,0.0,0.0,0.0,0.0,0.0,0.0,0.0,0.0,0.0,0.0,0.0,0.0,0.0,0.0,0.0,0.0,0.0,0.0,0.0,0.0,0.0,0.0,0.0,0.0,0.0,0.0,0.0,0.0,0.0,0.0,0.0,0.0,0.0,0.0,0.0,0.0,0.0,0.0,0.0,0.0,0.0,0.0,0.0,0.0,0.0,0.0,0.0,0.0,0.0,0.0,0.0,0.0,0.0,0.0,0.0,0.0,0.0,0.0,0.0,0.0,0.0,0.0,0.0,0.0,0.0,0.0,0.0,0.0,0.0,0.0,0.0,0.0,0.0,0.0,0.0,0.0,0.0,0.0,0.0,0.0,0.0,0.0,0.0,0.0,0.0,0.0,0.0,0.0,0.0,0.0,0.0,0.0,0.0,0.0,0.0,0.0,0.0,0.0,0.0,0.0,0.0,0.0,0.0,0.0,0.0,0.0,0.0,0.0,0.0,0.0,0.0,0.0,0.0,0.0,0.0,0.0,0.0,0.0,0.0,0.0,0.0,0.0,0.0,0.0,0.0,0.0,0.0,0.0,0.0,0.0,0.0,0.0,0.0,0.0,0.0,0.0,0.0,0.0,0.0,0.0,0.0,0.0,0.0,0.0,0.0,0.0,0.0,0.0,0.0,0.0,0.0,0.0,0.0,0.0,0.0,0.0,0.0,0.0,0.0,0.0,0.0,0.0,0.0,0.0,0.0,0.0,0.0,0.0,0.0,0.0,0.0,0.0,0.0,0.0,0.0,0.0,0.0,0.0,0.0,0.0,0.0,0.0,0.0,0.0,0.0,0.0,0.0,0.0,0.0,0.0,0.0,0.0,0.0,0.0,0.0,0.0,0.0,0.0,0.0,0.0,0.0,0.0,0.0,0.0,0.0,0.0,0.0,0.0,0.0,0.0,0.0,0.0,0.0,0.0,0.0,0.0,0.0,0.0,0.0,0.0,0.0,0.0,0.0,0.0,0.0,0.0,0.0,0.0,0.0,0.0,0.0,0.0,0.0,0.0,0.0,0.0,0.0,0.0,0.0,0.0,0.0,0.0,0.0,0.0,0.0,0.0,0.0,0.0,0.0,0.0,0.0,0.0,0.0,0.0,0.0,0.0,0.0,0.0,0.0,0.0,0.0,0.0,0.0,0.0,0.0,0.0,0.0,0.0,0.0,0.0,0.0,0.0,0.0,0.0,0.0,0.0,0.0,0.0,0.0,0.0,0.0,0.0,0.0,0.0,0.0,0.0,0.0,0.0,0.0,0.0,0.0,0.0,0.0,0.0,0.0,0.0,0.0,0.0,0.0,0.0,0.0,0.0,0.0,0.0,0.0,0.0,0.0,0.0,0.0,0.0,0.0,0.0,0.0,0.0,0.0,0.0,0.0,0.0,0.0,0.0,0.0,0.0,0.0,0.0,0.0,0.0,0.0,0.0,0.0,0.0,0.0,0.0,0.0,0.0,0.0,0.0,0.0,0.0,0.0,0.0,0.0,0.0,0.0,0.0,0.0,0.0,0.0,0.0,0.0,0.0,0.0,0.0,0.0,0.0,0.0,0.0,0.0,0.0,0.0,0.0,0.0,0.0,0.0,0.0,0.0,0.0,0.0,0.0,0.0,0.0,0.0,0.0,0.0,0.0,0.0,0.0,0.0,0.0,0.0,0.0,0.0,0.0,0.0,0.0,0.0,0.0,0.0,0.0,0.0,0.0,0.0,0.0,0.0,0.0,0.0,0.0,0.0,0.0,0.0,0.0,0.0,0.0,0.0,0.0,0.0,0.0,0.0,0.0,0.0,0.0,0.0,0.0,0.0,0.0,0.0,0.0,0.0,0.0,0.0,0.0,0.0,0.0,0.0,0.0,0.0,0.0,0.0,0.0,0.0,0.0,0.0,0.0,0.0,0.0,0.0,0.0,0.0,0.0,0.0,0.0,0.0,0.0,0.0,0.0,0.0,0.0,0.0,0.0,0.0,0.0,0.0,0.0,0.0,0.0,0.0,0.0,0.0,0.0,0.0,0.0,0.0,0.0,0.0,0.0,0.0,0.0,0.0,0.0,0.0,0.0,0.0,0.0,0.0,0.0,0.0,0.0,0.0,0.0,0.0,0.0,0.0,0.0,0.0,0.0,0.0,0.0,0.0,0.0,0.0,0.0,0.0,0.0,0.0,0.0,0.0,0.0,0.0,0.0,0.0,0.0,0.0,0.0,0.0,0.0,0.0,0.0,0.0,0.0,0.0,0.0,0.0,0.0,0.0,0.0,0.0,0.0,0.0,0.0,0.0,0.0,0.0,0.0,0.0,0.0,0.0,0.0,0.0,0.0,0.0,0.0,0.0,0.0,0.0,0.0,0.0,0.0,0.0,0.0,0.0,0.0,0.0,0.0,0.0,0.0,0.0,0.0,0.0,0.0,0.0,0.0,0.0,0.0,0.0,0.0,0.0,0.0,0.0,0.0,0.0,0.0,0.0,0.0,0.0,0.0,0.0,0.0,0.0,0.0,0.0,0.0,0.0,0.0,0.0,0.0,0.0,0.0,0.0,0.0,0.0,0.0,0.0,0.0,0.0,0.0,0.0,0.0,0.0,0.0,0.0,0.0,0.0,0.0,0.0,0.0,0.0,0.0,0.0,0.0,0.0,0.0,0.0,0.0,0.0,0.0,0.0,0.0,0.0,0.0,0.0,0.0,0.0,0.0,0.0,0.0,0.0,0.0,0.0,0.0,0.0,0.0,0.0,0.0,0.0,0.0,0.0,0.0,0.0,0.0,0.0,0.0,0.0,0.0,0.0,0.0,0.0,0.0,0.0,0.0,0.0,0.0,0.0,0.0,0.0,0.0,0.0,0.0,0.0,0.0,0.0,0.0,0.0,0.0,0.0,0.0,0.0,0.0,0.0,0.0,0.0,0.0,0.0,0.0,0.0,0.0,0.0,0.0,0.0,0.0,0.0,0.0,0.0,0.0,0.0,0.0,0.0,0.0,0.0,0.0,0.0,0.0,0.0,0.0,0.0,0.0,0.0,0.0,0.0,0.0,0.0,0.0,0.0,0.0,0.0,0.0,0.0,0.0,0.0,0.0,0.0,0.0,0.0,0.0,0.0,0.0,0.0,0.0,0.0,0.0,0.0,0.0,0.0,0.0,0.0,0.0,0.0,0.0,0.0,0.0,0.0,0.0,0.0,0.0,0.0,0.0,0.0,0.0,0.0,0.0,0.0,0.0,0.0,0.0,0.0,0.0,0.0,0.0,0.0,0.0,0.0,0.0,0.0,0.0,0.0,0.0,0.0,0.0,0.0,0.0,0.0,0.0,0.0,0.0,0.0,0.0,0.0,0.0,0.0,0.0,0.0,0.0,0.0,0.0,0.0,0.0,0.0,0.0,0.0,0.0,0.0,0.0,0.0,0.0,0.0,0.0,0.0,0.0,0.0,0.0,0.0,0.0,0.0,0.0,0.0,0.0,0.0,0.0,0.0,0.0,0.0,0.0,0.0,0.0,0.0,0.0,0.0,0.0,0.0,0.0,0.0,0.0,0.0,0.0,0.0,0.0,0.0,0.0,0.0,0.0,0.0,0.0,0.0,0.0,0.0,0.0,0.0,0.0,0.0,0.0,0.0,0.0,0.0,0.0,0.0,0.0,0.0,0.0,0.0,0.0,0.0,0.0,0.0,0.0,0.0,0.0,0.0,0.0,0.0,0.0,0.0,3.9574,3.7037,0.0,0.0,0.0,0.0,0.0,0.0,0.0,0.0,0.0,0.0,0.0,0.0,0.0,0.0,0.0,0.0,0.0,0.0,0.0,0.0,0.0,0.0,0.0,2.1054,2.1706,2.1896,2.2514,0.0,0.0,0.0,0.0,0.0,0.0,0.0,2.4018,2.4769,2.5739,2.6888,2.7547,2.8735,3.0347,2.9755,2.8983,2.8043,0.0,0.0,0.0,0.0,0.0,0.0,0.0,0.0,0.0,0.0,0.0,0.0,0.0,0.0,0.0,0.0,0.0,0.0,0.0,0.0,0.0,0.0,0.0,0.0,0.0,0.0,0.0,0.0,0.0,0.0,0.0,0.0,0.0,0.0,0.0,0.0,0.0,0.0,0.0,0.0,0.0,0.0,0.0,0.0,0.0,0.0,0.0,0.0,0.0,0.0,0.0,0.0,0.0,0.0,0.0,0.0,0.0,0.0,0.0,0.0,0.0,0.0,0.0,0.0,0.0,0.0,0.0,0.0,0.0,0.0,4.2455,4.0216,0.0,0.0,0.0,0.0,0.0,0.0,0.0,0.0,0.0,0.0,0.0,0.0,0.0,0.0,0.0,0.0,0.0,0.0,0.0,0.0,0.0,2.0591,2.1587,2.2633,2.3147,2.2821,2.33,2.3422,2.2925,2.4032,0.0,0.0,0.0,0.0,2.5885,2.7078,2.8463,3.0035,3.0648,3.1589,3.2911,3.3403,3.2754,3.1092,2.9855,0.0,0.0,0.0,0.0,0.0,0.0,0.0,0.0,0.0,0.0,0.0,0.0,0.0,0.0,0.0,0.0,0.0,0.0,0.0,0.0,0.0,0.0,0.0,0.0,0.0,0.0,0.0,0.0,0.0,0.0,0.0,0.0,0.0,0.0,0.0,0.0,0.0,0.0,0.0,0.0,0.0,0.0,0.0,0.0,0.0,0.0,0.0,0.0,0.0,0.0,0.0,0.0,0.0,0.0,0.0,0.0,0.0,0.0,0.0,0.0,0.0,0.0,0.0,4.7225,4.7571,4.7571,4.7571,4.824,4.918,4.5466,4.3971,4.3991,4.1705,0.0,0.0,0.0,0.0,0.0,0.0,0.0,0.0,0.0,0.0,0.0,0.0,0.0,0.0,0.0,0.0,0.0,0.0,0.0,2.199,2.4227,2.4635,2.5175,2.6325,2.6509,2.6767,2.7246,2.7598,0.0,0.0,0.0,2.8877,2.858,2.9007,2.9789,3.1018,3.3713,3.5098,3.5257,3.5864,3.5876,3.5312,3.3525,3.2411,3.1813,0.0,0.0,0.0,0.0,0.0,0.0,0.0,0.0,0.0,0.0,0.0,0.0,0.0,0.0,0.0,0.0,0.0,0.0,0.0,0.0,0.0,0.0,0.0,0.0,0.0,0.0,0.0,0.0,0.0,0.0,0.0,0.0,0.0,0.0,0.0,0.0,0.0,0.0,0.0,0.0,0.0,3.5999,3.6103,0.0,0.0,0.0,0.0,0.0,0.0,0.0,0.0,0.0,0.0,0.0,0.0,0.0,4.6813,4.6099,4.8374,4.9534,4.9534,5.0262,5.0626,5.0626,5.0626,5.0728,5.0863,5.0288,0.0,4.7338,4.759,0.0,0.0,0.0,0.0,0.0,0.0,0.0,0.0,0.0,0.0,0.0,0.0,0.0,0.0,0.0,0.0,0.0,0.0,0.0,0.0,0.0,2.6619,2.7157,2.8141,2.8236,2.8362,2.8646,2.9123,0.0,0.0,3.0567,3.0985,3.0888,3.1366,3.2132,3.3169,3.5309,3.634,3.6344,3.7224,3.7495,3.7151,3.6676,3.5233,3.3065,3.2899,0.0,0.0,0.0,0.0,0.0,0.0,0.0,0.0,0.0,0.0,0.0,0.0,0.0,0.0,0.0,0.0,0.0,0.0,0.0,0.0,0.0,0.0,0.0,0.0,0.0,0.0,0.0,0.0,0.0,0.0,0.0,0.0,0.0,0.0,0.0,0.0,0.0,0.0,0.0,3.6076,3.6514,3.8181,3.8983,3.9454,0.0,0.0,0.0,0.0,0.0,0.0,0.0,0.0,0.0,4.8044,4.9162,4.9533,4.9013,5.0149,5.071,5.0736,5.1382,5.1704,5.173,5.2034,5.2152,5.2152,5.2152,5.1672,5.0802,4.996,4.9492,4.9213,0.0,0.0,0.0,0.0,4.7035,4.7391,0.0,0.0,0.0,0.0,0.0,0.0,0.0,0.0,0.0,0.0,0.0,0.0,2.7771,2.8375,2.8916,2.9588,2.9651,2.972,2.9915,3.0591,3.1083,3.1241,3.2443,3.2987,3.2829,3.3663,3.4535,3.5432,3.6905,3.7561,3.752,3.8519,3.8794,3.8464,3.9026,3.7556,3.4654,3.4766,3.4377,3.3624,0.0,0.0,0.0,0.0,0.0,0.0,0.0,0.0,0.0,0.0,0.0,0.0,0.0,0.0,0.0,0.0,0.0,0.0,0.0,0.0,0.0,0.0,0.0,0.0,0.0,0.0,0.0,0.0,0.0,0.0,0.0,0.0,0.0,0.0,0.0,0.0,0.0,3.8236,3.8478,4.0701,4.1425,4.209,0.0,0.0,0.0,0.0,0.0,0.0,4.9537,5.022,5.0869,5.148,5.1781,5.1756,5.1396,5.1756,5.1805,5.1637,5.2085,5.2396,5.2589,5.2989,5.3322,5.3534,5.3481,5.3569,5.3591,5.1678,5.1143,5.137,5.0262,5.0067,5.022,4.8959,4.8697,4.8996,0.0,0.0,0.0,0.0,0.0,0.0,0.0,0.0,0.0,0.0,0.0,2.7076,2.8836,2.9663,3.0344,3.1053,3.1084,3.1381,3.2102,3.2778,3.3442,3.4081,3.4832,3.4927,3.42,3.5538,3.662,3.7359,3.9032,3.9686,3.9376,4.0016,4.0161,3.9903,4.0199,3.9483,3.8026,3.7652,3.7478,3.7196,3.4742,0.0,0.0,0.0,0.0,0.0,0.0,0.0,0.0,0.0,0.0,0.0,0.0,0.0,0.0,0.0,0.0,0.0,0.0,0.0,0.0,0.0,0.0,0.0,0.0,0.0,0.0,0.0,0.0,0.0,0.0,0.0,0.0,0.0,0.0,0.0,0.0,0.0,0.0,4.3855,4.5577,0.0,0.0,0.0,0.0,5.0301,5.0805,5.1315,5.1807,5.1875,5.2177,5.2787,5.3481,5.3418,5.2524,5.3418,5.3515,5.282,5.2845,5.3238,5.3899,5.3923,5.4423,5.5246,5.5058,5.5085,5.5171,5.3658,5.2733,5.2232,5.2164,5.1716,5.1117,5.0896,5.1268,5.1849,0.0,0.0,0.0,1.5967,1.7245,1.8729,2.0355,2.2101,2.3961,2.5911,2.7344,2.876,3.027,3.1109,3.1811,3.2481,3.2961,3.3315,3.3581,3.4661,3.5412,3.5633,3.635,3.6824,3.6999,3.7497,3.8326,3.9479,4.0539,4.1196,4.1565,4.2215,4.247,4.2371,4.2026,4.135,4.0338,3.9245,3.8281,3.7367,3.6633,3.6184,0.0,0.0,0.0,0.0,0.0,0.0,0.0,0.0,0.0,0.0,0.0,0.0,0.0,0.0,0.0,0.0,0.0,0.0,0.0,0.0,0.0,0.0,0.0,0.0,0.0,0.0,0.0,0.0,0.0,0.0,0.0,0.0,0.0,0.0,0.0,0.0,0.0,4.5855,4.7038,0.0,4.9579,5.1304,5.2371,5.2568,5.3175,5.3805,5.4461,5.462,5.4736,5.4813,5.5199,5.5196,5.4728,5.5162,5.553,5.5722,5.5593,5.5438,5.5229,5.51,5.4948,5.4813,5.4739,5.4822,5.498,5.4454,5.4193,5.4108,5.4108,5.394,5.3679,5.3513,5.3689,5.3985,0.0,0.0,0.0,1.6744,1.813,1.9779,2.1682,2.3522,2.542,2.7487,2.8784,3.0016,3.1413,3.2215,3.2911,3.3568,3.4042,3.4485,3.4984,3.6114,3.6865,3.711,3.7575,3.8365,3.9534,3.9337,4.0127,4.1991,4.2442,4.3011,4.3737,4.395,4.4036,4.4004,4.335,4.2825,4.238,4.1111,3.9515,3.7919,3.795,3.7457,3.6654,0.0,0.0,0.0,0.0,0.0,0.0,0.0,0.0,0.0,0.0,0.0,0.0,0.0,0.0,0.0,0.0,0.0,0.0,0.0,0.0,0.0,0.0,0.0,0.0,0.0,0.0,0.0,0.0,0.0,0.0,0.0,0.0,0.0,0.0,4.4797,4.5653,4.7537,4.8739,4.9963,5.1271,5.2963,5.4215,5.4684,5.5013,5.5596,5.6602,5.6767,5.6877,5.7011,5.7068,5.6939,5.654,5.6673,5.6872,5.7096,5.6963,5.6896,5.6896,5.6761,5.6766,5.6833,5.6766,5.6686,5.6635,5.6568,5.6473,5.6296,5.5457,5.5101,5.5083,5.4877,5.4886,5.4959,0.0,0.0,1.5964,1.7133,1.8493,2.0228,2.2569,2.4132,2.6029,2.8741,2.9769,3.0773,3.214,3.2911,3.3593,3.4232,3.4327,3.4945,3.6352,3.7133,3.7874,3.8579,3.8634,3.959,4.1628,4.1059,4.2094,4.4771,4.4803,4.5182,4.5877,4.5182,4.4866,4.4826,4.4162,4.4005,4.4216,4.3265,4.1448,3.9155,3.8738,3.796,3.7024,0.0,0.0,0.0,0.0,0.0,0.0,0.0,0.0,0.0,0.0,0.0,0.0,0.0,0.0,0.0,0.0,0.0,0.0,0.0,0.0,0.0,0.0,0.0,0.0,0.0,0.0,0.0,0.0,0.0,0.0,0.0,0.0,0.0,4.6063,4.7017,4.8156,4.9012,5.0862,5.2437,5.3341,5.4134,5.5179,5.6531,5.6198,5.6534,5.7998,5.8071,5.8413,5.9165,5.901,5.8558,5.7876,5.7896,5.7541,5.685,5.6879,5.765,5.8999,5.8999,5.9872,6.1365,6.1192,6.0791,6.03,6.0107,5.9595,5.8708,5.6205,5.5226,5.5208,5.5001,5.4937,5.4909,1.5573,1.5751,1.6292,1.7582,1.9247,2.1074,2.303,2.5161,2.7141,2.8856,3.0168,3.1292,3.2203,3.3328,3.4105,3.4264,3.5229,3.6209,3.714,3.8309,3.9479,4.0712,4.1738,4.2528,4.3122,4.3927,4.4961,4.6234,4.6771,4.7372,4.8045,4.8342,4.8458,4.8427,4.7782,4.6953,4.5986,4.4758,4.3032,4.1053,4.0154,3.9139,3.8136,0.0,0.0,0.0,0.0,0.0,0.0,0.0,0.0,0.0,0.0,0.0,0.0,0.0,0.0,0.0,0.0,0.0,0.0,0.0,0.0,0.0,0.0,0.0,0.0,0.0,0.0,0.0,0.0,0.0,0.0,0.0,4.6216,4.7605,4.8451,4.8749,4.9606,5.1598,5.1759,5.2292,5.3712,5.4486,5.5049,5.5452,5.5751,5.6392,5.7534,5.7586,5.8025,5.897,5.893,5.8938,5.9024,5.9818,6.0246,6.0348,6.1101,6.1405,6.1305,6.1305,6.126,6.1192,6.1129,6.1018,6.0893,6.0831,6.0678,6.0334,5.8545,5.7864,5.7854,5.7805,5.7752,5.7742,1.5573,1.5812,1.6461,1.7911,1.9616,2.1541,2.379,2.5816,2.7799,2.972,3.0699,3.1596,3.2595,3.367,3.4422,3.4738,3.6058,3.7291,3.8285,3.9921,4.1344,4.2427,4.3539,4.4392,4.4979,4.5792,4.6834,4.8089,4.8531,4.9236,5.0184,5.0311,5.0374,5.0332,4.9319,4.8249,4.7167,4.582,4.4284,4.2655,4.179,4.0443,3.8974,3.9016,3.8982,3.8858,3.8177,3.7776,3.7536,3.7367,0.0,0.0,0.0,0.0,0.0,0.0,0.0,0.0,0.0,0.0,0.0,0.0,0.0,0.0,0.0,0.0,0.0,0.0,0.0,0.0,0.0,0.0,0.0,0.0,4.7848,4.8928,5.0098,4.9929,5.0302,5.1995,5.2345,5.2798,5.3745,5.4434,5.51,5.5762,5.5769,5.6432,5.8,5.8056,5.8599,5.9783,6.0293,6.0554,6.0593,6.167,6.235,6.2585,6.32,6.3507,6.3548,6.3548,6.3305,6.2897,6.2897,6.2731,6.2477,6.2477,6.2477,6.2312,0.0,0.0,0.0,0.0,5.9827,5.9827,1.5621,1.5833,1.6508,1.8106,1.9716,2.1747,2.4509,2.6188,2.8089,3.0825,3.1211,3.1754,3.3151,3.3979,3.4681,3.5338,3.6768,3.8191,3.9534,4.147,4.2893,4.3669,4.4433,4.5466,4.6898,4.7056,4.8121,5.0133,5.0133,5.0819,5.2082,5.1586,5.1261,5.1066,4.9822,4.8851,4.8029,4.6695,4.5359,4.4066,4.3401,4.1808,3.9856,4.0353,4.0414,4.0129,3.9433,3.8883,3.8302,3.72,0.0,0.0,0.0,0.0,0.0,0.0,0.0,0.0,0.0,0.0,0.0,0.0,0.0,0.0,0.0,0.0,0.0,0.0,0.0,0.0,0.0,0.0,0.0,0.0,4.9961,5.0656,5.1337,5.0996,5.0852,5.14,5.2702,5.3649,5.3814,5.4394,5.534,5.6714,5.6249,5.6819,5.8939,5.9144,0.0,0.0,0.0,6.2504,6.2035,6.316,6.3704,6.3661,6.3931,6.4531,6.5478,6.559,6.5646,6.5635,6.5523,6.5181,6.473,6.4497,6.4431,6.4388,6.2358,6.1572,6.1572,6.1572,6.1572,6.1572,1.5989,1.5961,1.649,1.8057,1.968,2.1669,2.4214,2.6015,2.8089,3.0825,3.1211,3.1754,3.3151,3.4415,3.5243,3.5408,3.7196,3.8902,4.0293,4.1281,4.2395,4.3637,4.4907,4.6256,4.7656,4.8752,5.0038,5.1596,5.1596,5.1999,5.2819,5.3268,5.2851,5.1734,5.2099,5.1222,4.9348,4.8113,4.6782,4.5399,4.4259,4.2962,4.1748,4.1538,4.1526,4.1559,4.109,4.0867,4.0816,4.1093,4.0375,3.9341,3.9296,3.7962,0.0,0.0,0.0,0.0,0.0,0.0,0.0,0.0,0.0,0.0,0.0,0.0,0.0,0.0,0.0,0.0,0.0,0.0,0.0,5.0039,5.1038,5.2067,5.2737,5.3174,5.3345,5.317,5.3213,5.379,5.5081,5.562,5.6008,5.633,5.7123,5.8165,5.9418,5.9999,6.08,6.1857,6.2135,6.2054,6.1685,6.2776,6.3186,6.2926,6.4665,0.0,6.5842,6.6744,6.7158,6.7112,6.6208,6.626,6.6834,6.5013,6.4773,6.5544,6.4825,6.4586,6.4586,6.4586,6.4586,6.4586,1.5855,1.5986,1.6654,1.8226,1.9767,2.1569,2.3848,2.5847,2.783,2.9878,3.0458,3.1097,3.2133,3.3814,3.4832,3.4832,3.7139,3.9305,4.0972,4.1474,4.2619,4.4645,4.576,4.7109,4.8847,4.9564,5.0575,5.2007,5.1623,5.1993,5.3013,5.2993,5.2799,5.2408,5.2081,5.1345,5.0206,4.8585,4.7296,4.6266,4.5342,4.4596,4.3995,4.3178,4.2787,4.2589,4.2041,4.1793,4.1707,4.1727,4.136,4.0891,4.0874,3.9665,3.8163,0.0,0.0,0.0,0.0,0.0,0.0,0.0,0.0,0.0,0.0,0.0,0.0,0.0,0.0,4.9853,5.0193,0.0,5.1696,5.1696,5.2534,5.3324,5.3653,5.3982,5.4257,5.4377,5.4573,5.5015,5.5831,5.6366,5.6778,5.7124,5.7739,5.8487,5.9313,5.969,6.0232,6.1063,6.166,6.1755,6.1345,6.2434,6.2935,6.276,6.4165,6.4964,6.5187,6.6061,6.6262,6.5869,6.5285,6.5359,6.5841,6.5078,6.5078,6.5635,6.5815,6.6151,6.6496,6.6496,6.6496,6.6428,1.598,1.6413,1.7196,1.8584,1.9878,2.151,2.3755,2.5752,2.7501,2.8913,2.9667,3.036,3.111,3.3056,3.458,3.5243,3.7489,3.9597,4.1329,4.1648,4.2819,4.5162,4.6115,4.7536,4.9491,4.9757,5.0575,5.2007,5.1278,5.1623,5.2971,5.2247,5.212,5.2443,5.1324,5.0662,5.0307,4.8682,4.7631,4.6946,4.6446,4.6255,4.6167,4.5122,4.4283,4.3579,4.302,4.2728,4.2505,4.2079,4.1947,4.1962,4.1962,4.1145,4.0178,4.0178,4.0567,0.0,0.0,0.0,0.0,0.0,0.0,0.0,0.0,4.7309,4.8446,4.9116,5.017,5.1146,5.1684,5.2205,5.2755,5.3306,5.3832,5.4239,5.4371,5.4521,5.488,5.5658,5.591,5.6102,5.6342,5.6928,5.7573,5.8234,5.8427,5.8726,5.9279,5.9428,5.9727,6.028,6.1203,6.146,6.1104,6.2146,6.2679,6.2666,6.3544,6.4142,6.448,6.5198,6.5181,6.4618,6.4618,6.4373,6.4045,6.4858,6.5183,6.5245,6.5837,6.6613,6.7388,6.7388,6.7388,6.7236,1.7335,1.7903,1.8612,1.9225,1.9981,2.1515,2.4424,2.5837,2.7181,2.8884,2.9434,3.0055,3.1079,3.3056,3.5559,3.8649,3.9227,3.9839,4.0809,4.1344,4.2136,4.3257,4.4969,4.6645,4.8174,4.9339,5.0575,5.2007,5.1314,5.1685,5.2982,5.2317,5.1666,5.1024,5.0928,5.0145,4.8912,4.8832,4.8351,4.7677,4.7619,4.7602,4.7561,4.7428,4.6379,4.4966,4.478,4.4672,4.4686,4.4793,4.4446,4.3978,4.3978,4.3509,4.294,4.294,4.296,4.2941,4.2701,4.3768,4.5125,4.5702,4.726,4.8828,0.0,5.0697,5.1828,5.2498,5.3234,5.379,5.385,5.394,5.4,5.4072,5.4149,5.4418,5.4999,5.5611,5.6419,5.762,5.6316,5.576,5.6898,5.759,5.8278,5.8949,5.9548,5.9921,5.998,6.0565,6.091,6.1,6.111,6.114,6.109,6.1813,6.2184,6.2198,6.3823,6.4621,6.4693,6.5781,6.623,6.6136,6.6136,6.502,6.3295,6.4348,6.4775,6.4775,6.4868,6.5562,6.6546,6.6546,6.6546,6.6533,1.6492,1.7417,1.8624,1.9639,2.0645,2.1998,2.404,2.5571,2.6851,2.7812,2.8543,2.9208,2.9893,3.2228,3.4794,3.7465,3.8145,3.8761,3.9527,3.9877,4.0895,4.286,4.3729,4.535,4.7881,4.8482,4.9646,5.1427,5.032,5.0246,5.1161,5.0073,4.957,4.9567,4.9232,4.8963,4.8653,4.7963,4.7508,4.7201,4.6835,4.6882,4.7219,4.7219,4.6783,4.6117,4.6067,4.6009,0.0,4.5588,4.5462,4.5403,4.4995,4.4975,4.5025,4.4626,4.5304,4.6292,4.6681,4.72,4.7769,4.8424,4.9512,5.0571,5.1217,5.2097,5.2977,5.3653,5.4012,5.4209,5.4209,5.4209,5.4209,5.4209,5.485,5.5461,5.5743,5.6329,5.6928,5.744,5.6795,5.6825,5.8141,5.8517,5.8786,5.9069,5.9368,5.9518,5.9518,5.9787,5.9923,5.9923,6.0326,6.0715,6.109,6.1359,6.1702,6.2106,6.2855,6.3185,6.3229,6.4084,6.4474,6.4474,6.4474,6.3944,6.3137,6.3578,6.3761,6.3761,6.3761,6.4071,6.464,6.5924,6.6401,6.6309,1.6529,1.7571,1.8985,2.0381,2.1424,2.2542,2.3967,2.5269,2.63,2.7019,2.7682,2.8572,2.9836,3.1792,3.3894,3.6029,3.7099,3.7754,3.7975,3.8708,3.9869,4.1534,4.2317,4.3912,4.6533,4.7326,4.8442,4.9901,4.924,4.9158,4.9623,4.8372,4.8144,4.8717,4.7876,4.7782,4.8135,4.7195,4.6789,4.6772,4.6534,4.6679,4.7074,4.7074,4.7074,4.7044,4.6957,4.6724,4.6443,4.6082,4.6324,4.6674,4.6241,4.6591,4.7029,4.6542,4.744,4.8678,4.9168,4.9426,4.9643,5.0088,5.0847,5.1606,5.2097,5.2707,5.3276,5.3593,5.3803,5.3922,5.3922,5.4072,5.4269,5.4461,5.5281,5.5923,5.5923,5.6449,5.6898,5.7077,5.7423,5.8112,5.9249,5.9219,5.9249,5.9624,5.9654,5.9654,5.9654,5.9847,5.9937,5.9937,6.0579,6.1178,6.1642,6.1808,6.2137,6.263,6.263,6.263,6.263,6.2944,6.3108,6.3108,6.3108,6.3108,6.3108,6.3108,6.3108,6.3108,6.3108,6.3108,6.3279,6.4885,6.5374,6.511,1.8514,1.9295,2.0348,2.1697,2.2255,2.305,2.4698,2.4951,2.5484,2.6923,2.7073,2.8362,3.1842,3.2298,3.3257,3.5518,3.6825,3.7157,3.632,3.8424,3.9282,3.839,4.071,4.2391,4.324,4.5729,4.7072,4.7138,4.8307,4.8922,4.9018,4.8182,4.8193,4.8828,4.7454,4.683,4.6859,4.683,4.6789,4.6859,4.7491,4.7735,4.7764,4.7764,4.7764,4.7712,4.7321,4.6769,4.6291,4.6715,4.7306,4.7878,4.8111,4.8678,4.9198,4.9187,4.9228,4.9258,4.9288,4.9733,5.0177,5.0207,5.1176,5.2187,5.2187,5.2707,5.3007,5.2396,5.2797,5.3216,5.3216,5.3773,5.4418,5.5059,5.5192,5.5222,5.5222,5.5803,5.6419,5.7047,5.8261,5.9308,6.001,5.9488,5.9624,6.094,6.103,6.103,6.103,6.1672,6.2002,6.2002,6.2644,6.3018,6.3048,6.3617,6.3917,6.3947,6.3947,6.3947,6.3917,6.3363,6.3108,6.3108,6.3108,6.3108,6.3108,6.3108,6.3108,6.3108,6.3108,6.3108,6.3108,6.3194,6.2789,6.2235,1.8139,1.9524,2.0815,2.1322,2.2527,2.3782,2.4854,2.4935,2.5171,2.5949,2.6818,0.0,0.0,0.0,0.0,0.0,3.3962,3.4744,3.4238,3.5775,3.7126,3.8087,3.9011,4.0602,4.2979,4.3944,4.5041,4.6336,4.6333,4.6536,4.6931,4.6226,4.6247,4.6861,4.596,4.5547,4.5518,4.51,4.4937,4.4995,4.5616,4.615,4.6574,4.6986,4.7132,4.7114,0.0,4.7187,4.751,4.7353,4.8151,4.9216,4.9018,4.9995,5.1301,5.1761,5.157,5.1211,5.1211,5.1038,5.0966,5.1427,5.1887,5.2306,5.2767,5.3037,5.3139,5.2917,5.3396,5.3862,5.3862,5.4401,5.494,5.5162,5.5192,5.5371,5.5803,5.6389,5.7197,5.8291,5.9219,6.0206,6.1313,6.0835,6.0611,6.106,6.1509,6.1762,6.1762,6.2405,6.2555,6.2121,6.2734,6.3108,6.3108,6.3692,6.4216,6.465,6.4216,6.4006,6.3977,6.3363,6.3108,6.3108,6.3108,6.3108,6.3108,6.3108,6.3108,6.3108,6.3108,6.3108,6.3048,6.2614,6.2002,6.1479,1.8406,1.9804,2.1047,2.167,2.2868,0.0,0.0,0.0,0.0,0.0,0.0,0.0,0.0,0.0,0.0,0.0,0.0,3.287,3.2623,3.4012,3.5429,3.6712,3.7678,3.918,4.1244,4.2245,4.3349,4.4606,4.4621,4.4828,4.5202,4.4778,4.4803,4.5209,4.4774,4.457,4.4541,4.4164,4.4135,4.4309,4.4251,4.4629,4.5238,4.5401,4.5437,0.0,4.5709,4.6373,4.7148,4.7055,4.8133,4.9532,4.9514,5.0901,5.2576,5.2797,5.2707,5.2498,5.2276,5.1887,5.1606,5.1786,5.1858,5.1947,5.2396,5.2498,5.2498,5.2498,5.3025,5.3641,5.4119,5.476,5.5418,5.6137,5.6226,5.6466,5.7137,5.7796,5.8471,5.9338,6.028,6.1238,6.2345,6.2061,6.1912,6.2107,6.2331,6.2555,6.278,6.3183,6.3213,6.278,6.3438,6.3887,6.4141,6.4515,6.4919,6.5368,6.4919,6.4605,6.4336,6.3722,6.3422,6.3422,6.3183,6.3108,6.3108,6.3108,6.3108,6.3108,6.3108,6.3108,6.3048,6.2614,6.1882,6.115,1.9451,2.0209,2.1209,0.0,0.0,0.0,0.0,0.0,0.0,0.0,0.0,0.0,0.0,0.0,0.0,0.0,0.0,0.0,3.1393,3.3068,3.416,3.4379,3.6722,3.8048,3.8135,4.0584,4.1853,4.1889,4.3101,4.3739,4.3816,4.3816,4.3845,4.3903,4.3874,4.3845,4.3845,4.3816,4.4135,4.4541,4.338,4.3282,4.3787,4.3166,4.2944,4.3032,4.371,4.4483,4.5314,4.5943,4.7405,4.9056,4.9817,5.15,5.3007,5.2396,5.2648,5.2995,5.2306,5.2121,5.1983,5.1267,5.1165,5.1224,5.1237,5.126,5.1295,5.1367,5.1905,5.2815,5.4119,5.491,5.5957,5.7799,5.8055,5.8278,5.8936,5.9621,6.007,6.013,6.1297,6.2375,6.3033,6.3108,6.3333,6.3947,6.3482,6.3393,6.3977,6.4036,6.4036,6.4006,6.462,6.5233,6.5862,6.5877,6.5906,6.5936,6.5906,6.5577,6.4934,6.4276,6.3947,6.3917,6.3333,6.3108,6.3108,6.3108,6.3108,6.3108,6.3108,6.3108,6.3108,6.3108,6.2271,6.115,0.0,0.0,0.0,0.0,0.0,0.0,0.0,0.0,0.0,0.0,0.0,0.0,0.0,0.0,0.0,0.0,0.0,0.0,2.982,3.1297,3.2844,3.4333,3.5021,3.6045,3.7496,3.8176,3.873,3.9189,3.9517,4.0149,4.1076,4.1076,4.1638,4.2567,4.2073,4.1841,4.1812,4.1318,4.1163,4.1347,4.1512,4.1686,4.1889,4.2208,4.2335,4.2432,4.319,4.3732,4.4286,4.5384,4.7277,4.9586,5.1697,5.239,5.2426,5.2247,5.2306,5.224,5.1268,5.1224,5.1137,4.9828,5.073,5.1852,5.1505,5.2065,5.2815,5.3341,5.4371,5.5431,5.6196,5.6902,5.753,5.8025,5.7679,5.7603,5.8278,5.8936,5.9727,6.0745,6.1583,6.2375,6.3033,6.3108,6.3333,6.3947,6.3871,6.3827,6.3977,6.447,6.453,6.4006,6.4186,6.4126,6.3842,6.429,6.477,6.5233,6.474,6.4425,6.4246,6.3602,6.3333,6.3333,6.3168,6.3108,6.3108,6.3108,6.3108,6.3108,6.3108,6.3108,6.3108,6.3108,6.2555,6.1852,0.0,0.0,0.0,0.0,0.0,0.0,0.0,0.0,0.0,0.0,0.0,0.0,0.0,0.0,0.0,0.0,0.0,0.0,0.0,3.0199,3.1394,3.3056,3.4225,3.5212,3.6016,3.6858,3.7467,3.7825,3.8057,3.8725,3.9712,3.9973,4.0495,4.1221,4.0815,4.067,4.0651,4.0273,4.0263,0.0,0.0,4.0408,4.0641,4.0466,4.0583,4.0903,4.1424,4.2566,4.4133,4.6105,4.7934,4.9679,5.1368,5.2217,5.2516,5.1935,5.1977,5.2127,5.1825,5.1695,5.1512,5.093,5.1712,5.264,5.269,5.3174,5.3832,5.4491,5.5461,5.6462,5.7363,5.7859,5.8384,5.9251,5.886,5.865,5.9325,5.9744,6.0386,6.1419,6.1882,6.2465,6.3393,6.3243,6.3333,6.3947,6.3737,6.3722,6.3977,6.4126,6.4006,6.3632,6.3602,6.3572,6.3512,6.4126,6.462,6.4994,6.462,6.4441,6.4411,6.3767,6.3482,6.3482,6.3213,6.3108,6.3108,6.3108,6.3108,6.3138,6.3393,6.3482,6.3542,6.3827,6.3348,6.2555,0.0,0.0,0.0,0.0,0.0,0.0,0.0,0.0,0.0,2.6077,2.6256,2.6734,0.0,0.0,0.0,0.0,0.0,0.0,0.0,0.0,3.0059,3.1307,3.3545,3.4562,3.4159,3.5813,3.6655,3.6655,3.7273,3.7941,3.8696,3.9305,3.9683,3.9867,3.9867,3.9799,3.9741,3.9799,4.0147,4.0495,3.9392,3.9247,3.9596,0.0,3.8318,3.8869,3.9262,4.1391,4.4397,4.7125,4.8625,4.9449,5.0021,5.1397,5.2558,5.1307,5.1487,5.2193,5.27,5.24,5.2126,5.2718,5.3,5.3265,5.3938,5.4229,5.4521,5.5179,5.5863,5.6658,5.7769,5.8128,5.8756,6.0312,6.0236,6.0146,6.0641,6.0851,6.1224,6.1882,6.2061,6.257,6.3767,6.3393,6.3303,6.3827,6.3482,6.3422,6.3871,6.3393,6.3108,6.3108,6.3108,6.3333,6.3887,6.447,6.474,6.474,6.474,6.474,6.474,6.4156,6.3887,6.3857,6.3333,6.3168,6.3213,6.3213,6.3273,6.3393,6.3917,6.4126,6.4216,6.48,6.4291,6.3333,0.0,0.0,0.0,0.0,0.0,0.0,0.0,0.0,0.0,0.0,2.7133,2.6902,0.0,0.0,0.0,0.0,0.0,0.0,0.0,0.0,0.0,3.0699,3.12,3.186,3.2816,3.3164,3.3338,3.3338,3.3972,3.4919,3.6081,3.6673,3.7535,3.8522,3.8522,3.8251,3.7825,3.8318,3.8318,3.7941,3.7738,3.7699,3.7699,3.6916,0.0,0.0,3.8425,4.1124,4.4279,4.6058,4.7494,4.8705,4.9825,5.0446,5.0578,4.9834,5.0451,5.1339,5.1099,5.0916,5.0842,5.114,5.1868,5.2729,5.3396,5.4323,5.5222,5.5893,5.6509,5.7017,5.7244,5.8171,5.868,5.7932,5.862,5.9129,5.8683,5.9564,6.0505,6.118,6.1762,6.2391,6.3183,6.3168,6.3123,6.3243,6.3632,6.3662,6.3273,6.3168,6.3108,6.3108,6.3108,6.3168,6.3243,6.3363,6.3422,6.3422,6.3422,6.3422,6.3422,6.3303,6.3243,6.3243,6.3168,6.3393,6.3827,6.3827,6.4171,6.468,6.48,6.4829,6.4845,6.4964,6.4845,6.459,0.0,0.0,0.0,0.0,0.0,0.0,0.0,2.7507,2.7865,2.8831,2.874,2.8368,2.7741,2.7581,2.7421,0.0,0.0,0.0,0.0,0.0,0.0,0.0,3.0408,3.104,3.1974,3.2322,3.2497,3.2497,0.0,3.3823,3.4433,3.5047,3.5639,3.6219,3.5889,3.5598,3.5337,3.5636,3.5578,3.5337,3.5668,3.5784,3.5764,3.554,0.0,0.0,3.7904,4.0239,4.2922,4.4655,4.6621,4.8457,4.9434,5.044,5.0978,4.9666,5.0433,5.1619,5.1187,5.1725,5.2373,5.2196,5.3017,5.4034,5.4696,5.53,5.6,5.6974,5.7423,5.7723,5.8082,5.8381,5.8487,5.8201,5.8397,5.8577,5.8607,5.9189,5.9967,6.097,6.1389,6.2091,6.3452,6.3572,6.3707,6.4066,6.4351,6.4231,6.3602,6.3887,6.3767,6.3123,6.3393,6.3422,6.3108,6.3108,6.3108,6.3108,6.3108,6.3108,6.3108,6.3108,6.3273,6.3572,6.3572,6.3917,6.453,6.453,6.471,6.5024,6.5383,6.5293,6.5024,6.5398,6.5069,6.4441,0.0,0.0,0.0,0.0,0.0,0.0,0.0,2.8612,2.8802,3.0228,3.0255,2.9829,2.8979,2.8208,2.7709,0.0,0.0,0.0,0.0,0.0,0.0,0.0,0.0,0.0,3.1286,0.0,0.0,3.2098,3.2753,0.0,0.0,0.0,0.0,0.0,3.3728,3.3329,3.3088,3.3379,3.3416,0.0,0.0,3.4213,3.4263,0.0,0.0,0.0,0.0,3.9396,4.1673,4.3469,4.5952,4.8409,4.8917,5.0433,5.1678,5.0175,5.0718,5.1866,5.203,5.2759,5.3508,5.3724,5.4304,5.5019,5.5812,5.5983,5.6299,5.744,5.7799,5.8038,5.8577,5.8487,5.8457,5.8816,5.8577,5.8517,5.9039,5.9099,5.9608,6.094,6.1239,6.2017,6.3827,6.4126,6.4441,6.4964,6.4994,6.477,6.4231,6.471,6.447,6.3333,6.3737,6.3722,6.3108,6.3108,6.3108,6.3108,6.3108,6.3168,6.3273,6.3273,6.3632,6.4216,6.4216,6.459,6.5203,6.5203,6.5293,6.5458,6.5847,6.5667,6.5263,6.5637,6.5129,6.4186,0.0,0.0,0.0,0.0,0.0,0.0,0.0,2.9281,2.9941,3.1827,3.1033,3.0239,3.0156,2.9437,2.8577,0.0,0.0,0.0,0.0,0.0,0.0,0.0,0.0,0.0,0.0,0.0,0.0,3.0757,3.138,0.0,0.0,0.0,0.0,0.0,0.0,3.2811,3.175,3.2964,0.0,0.0,0.0,0.0,0.0,0.0,0.0,0.0,0.0,3.9065,4.1603,4.2951,4.5593,4.8308,4.8368,4.9733,5.1247,5.1068,5.0856,5.1145,5.3347,5.2533,5.1661,5.4361,5.4291,5.386,5.5023,5.5281,5.5491,5.6222,5.6808,5.7214,5.7274,5.8231,5.8816,5.8278,5.8637,5.9039,5.9099,5.9099,5.9608,6.094,6.1642,6.254,6.3857,6.456,6.4934,6.4994,6.4994,6.4964,6.4904,6.4964,6.468,6.3947,6.3977,6.3722,6.3108,6.3108,6.3108,6.3108,6.3108,6.3393,6.3917,6.3917,6.4276,6.4904,6.4904,6.5308,6.5906,6.5906,6.6281,6.6759,6.6221,6.5966,6.5847,6.5308,6.5024,6.4815,0.0,0.0,0.0,0.0,0.0,0.0,2.9436,2.9512,2.9937,3.1976,3.207,3.1676,3.1087,3.0662,2.9625,2.7648,0.0,0.0,0.0,0.0,0.0,0.0,0.0,0.0,0.0,0.0,3.0198,3.059,3.0844,0.0,0.0,0.0,0.0,0.0,0.0,3.0321,2.982,2.9958,0.0,0.0,0.0,0.0,0.0,0.0,0.0,0.0,0.0,0.0,4.0457,4.2172,4.4676,4.7249,4.8038,4.9643,5.1206,5.1206,5.1934,5.2782,5.3044,5.272,5.2622,5.3828,5.3769,5.3701,5.4938,5.5521,5.5983,5.6598,5.7244,5.7709,5.7709,5.8128,5.8547,5.8667,5.8949,5.9518,6.0745,6.0551,6.0805,6.2121,6.2181,6.26,6.3887,6.4231,6.456,6.4964,6.4994,6.4994,6.4994,6.4994,6.453,6.3482,6.3797,6.3722,6.3108,6.3108,6.3108,6.3108,6.3482,6.3782,6.4006,6.4411,6.4979,6.5607,6.5607,6.5966,6.658,6.6161,6.6161,6.634,6.5667,6.5159,6.4755,6.45,6.4186,6.3827,0.0,0.0,0.0,0.0,0.0,2.6521,2.9617,2.9917,3.03,3.1797,3.2491,3.255,3.186,3.1029,2.99,2.8433,2.7633,0.0,0.0,0.0,0.0,0.0,0.0,0.0,0.0,0.0,2.9922,3.059,3.059,3.059,0.0,0.0,3.0495,3.0263,0.0,0.0,0.0,0.0,0.0,0.0,0.0,0.0,0.0,0.0,0.0,0.0,0.0,0.0,0.0,0.0,0.0,4.6251,4.7578,4.9344,5.1026,5.1606,5.2692,5.3529,5.2856,5.3039,5.3322,5.2963,5.3572,5.4361,5.4844,5.5739,5.6628,5.7274,5.7769,5.8145,5.8367,5.8397,5.8697,5.9534,5.9518,6.0027,6.1852,6.1702,6.1882,6.3213,6.3303,6.3617,6.4515,6.4425,6.4411,6.4665,6.471,6.462,6.4441,6.4441,6.4126,6.3393,6.3782,6.3722,6.3108,6.3108,6.3183,6.3363,6.3797,6.4216,6.4605,6.5069,6.5667,6.6311,6.6311,6.646,6.667,6.6176,6.5877,6.5637,6.4979,6.4411,6.3977,6.3797,6.3452,6.3138,0.0,0.0,0.0,0.0,0.0,0.0,2.9189,3.0613,3.1403,3.15,3.203,3.2421,3.2489,3.0186,2.9109,3.0365,2.871,0.0,0.0,0.0,0.0,0.0,0.0,0.0,0.0,0.0,2.9922,3.059,3.059,3.059,3.059,3.059,3.0256,2.9617,0.0,0.0,0.0,0.0,0.0,0.0,0.0,0.0,0.0,0.0,0.0,0.0,0.0,0.0,0.0,0.0,0.0,0.0,0.0,4.8633,5.0596,5.2618,5.2825,5.2562,5.3197,5.34,5.3137,5.1986,5.396,5.5866,5.4691,5.5785,5.7274,5.7935,5.8085,5.8308,5.8979,5.9099,5.9548,6.0851,6.0505,6.0549,6.1912,6.2091,6.257,6.3827,6.5173,6.5966,6.5966,6.5398,6.474,6.4066,6.4006,6.3737,6.3153,6.3123,6.3393,6.3977,6.4006,6.3722,6.3108,6.3108,6.3393,6.3977,6.4006,6.4695,6.5966,6.5996,6.637,6.6984,6.6984,6.661,6.5996,6.5996,6.5607,6.4934,6.4276,6.4006,6.3917,6.3333,6.3108,6.3183,0.0,0.0,0.0,0.0,0.0,0.0,0.0,2.9109,2.9501,3.0119,3.0647,3.1189,3.1755,3.0658,3.0073,3.0455,2.8648,0.0,0.0,0.0,0.0,0.0,0.0,0.0,0.0,0.0,3.0338,3.1426,3.1426,3.1591,3.1903,3.1903,3.1779,3.1531,3.0655,3.0176,0.0,0.0,0.0,0.0,0.0,0.0,0.0,0.0,0.0,0.0,0.0,0.0,0.0,0.0,0.0,0.0,0.0,0.0,0.0,5.1959,5.3049,5.3786,5.4463,5.4029,5.3505,5.3993,5.4528,5.509,5.5525,5.6756,5.7859,5.8055,5.8457,5.8846,5.9069,5.9099,5.9548,6.088,6.091,6.1539,6.3782,6.3318,6.3273,6.453,6.4306,6.4021,6.4021,6.3842,6.3602,6.3393,6.3393,6.3303,6.3108,6.3108,6.3183,6.3393,6.3393,6.3482,6.3722,6.3722,6.4036,6.468,6.5159,6.5592,6.6011,6.646,6.655,6.6311,6.6311,6.5936,6.5278,6.4829,6.4515,6.4231,6.3632,6.3632,6.3977,6.3782,6.4006,6.4441,0.0,0.0,0.0,0.0,0.0,0.0,0.0,2.8443,2.8737,2.8818,2.9494,3.0269,3.1043,3.0103,2.9691,3.0432,2.8661,0.0,0.0,0.0,0.0,0.0,0.0,0.0,0.0,3.0058,3.0984,3.2247,3.2668,3.2924,3.2949,3.3138,3.2961,3.2468,3.1671,3.1231,0.0,0.0,0.0,0.0,0.0,0.0,3.3522,0.0,0.0,0.0,0.0,0.0,0.0,0.0,0.0,0.0,0.0,0.0,0.0,0.0,5.2785,5.3866,5.4078,5.4097,5.4042,5.3899,5.4665,5.5495,5.5831,5.7252,5.8487,5.8487,5.8816,5.9099,5.9099,5.9308,5.9847,6.091,6.1509,6.2496,6.4351,6.4156,6.4216,6.5248,6.4441,6.3827,6.3827,6.3393,6.3108,6.3108,6.3108,6.3108,6.3108,6.3108,6.3183,6.3422,6.3452,6.3632,6.4006,6.4231,6.471,6.5398,6.5547,6.5757,6.6011,6.6176,6.6011,6.5637,6.5637,6.5248,0.0,6.4322,6.4098,6.3977,6.374,6.386,6.4188,6.4188,6.4368,6.4665,0.0,0.0,0.0,0.0,0.0,0.0,0.0,2.8381,2.8866,2.775,2.8607,2.9607,3.0285,2.8773,2.8456,3.029,0.0,0.0,0.0,0.0,0.0,0.0,0.0,0.0,0.0,3.0881,3.1855,3.3081,3.4177,3.4438,3.3849,3.4326,3.3902,3.2724,3.2703,3.2378,0.0,0.0,0.0,0.0,3.0285,3.1588,0.0,0.0,0.0,0.0,0.0,0.0,0.0,0.0,0.0,0.0,0.0,0.0,0.0,0.0,0.0,0.0,0.0,5.3828,5.4709,5.2556,5.4574,5.6832,5.5823,5.7403,0.0,5.9099,5.9099,5.9129,5.9159,5.9681,6.034,6.106,6.2225,6.3243,6.3917,6.453,6.5159,6.5787,6.5278,6.4874,6.4904,6.3827,6.3108,6.3108,6.3108,6.3108,6.3108,6.3108,6.3363,6.3917,6.3977,6.4036,6.4126,6.471,6.5338,6.5996,6.5323,6.5338,6.5906,6.5248,6.4934,6.4905,6.4934,6.4546,6.3978,6.4323,6.4293,6.4023,6.4353,6.45,6.453,6.453,6.4363,6.4238,0.0,0.0,0.0,0.0,0.0,0.0,0.0,0.0,0.0,0.0,2.8173,2.8681,2.8996,2.8964,2.9138,0.0,0.0,0.0,0.0,0.0,0.0,0.0,0.0,0.0,0.0,3.2243,3.317,3.3903,3.4707,3.5103,3.5166,3.5959,3.5816,3.4873,3.455,3.3485,0.0,0.0,0.0,0.0,3.0619,3.1683,0.0,0.0,0.0,0.0,3.7135,3.8263,0.0,0.0,0.0,0.0,0.0,0.0,0.0,0.0,5.1385,5.2647,5.3541,0.0,5.5185,5.513,5.6132,5.7148,0.0,5.8299,5.9099,5.9099,5.9099,5.9249,5.9757,5.998,6.0489,6.1672,6.2121,6.272,6.3827,6.4126,6.4306,6.4455,6.3917,6.3722,6.4186,6.3542,6.3108,6.3108,6.3108,6.3108,6.3108,6.3108,6.3153,6.3303,6.3767,6.4485,6.5533,6.5188,6.5338,6.5996,6.5323,6.5084,6.5233,6.4875,6.4398,6.3936,6.4187,6.3934,6.3342,6.3888,6.408,6.4022,6.4094,6.4418,6.4877,6.4877,6.5155,6.555,0.0,0.0,0.0,0.0,0.0,0.0,0.0,0.0,0.0,0.0,0.0,2.8018,2.8143,2.8366,0.0,0.0,0.0,0.0,0.0,0.0,0.0,0.0,0.0,0.0,0.0,3.3975,3.5069,3.5679,3.6569,3.7055,3.7217,3.7597,3.7331,3.6479,3.5427,3.4184,0.0,0.0,0.0,3.1708,3.1161,0.0,0.0,0.0,0.0,0.0,3.6866,3.8204,0.0,4.1035,4.2651,4.4426,0.0,0.0,0.0,0.0,5.1139,5.2875,5.391,5.47,5.5431,5.6359,5.7107,5.7649,5.8025,5.8607,5.9189,5.9488,5.9548,5.9757,6.0446,6.0565,6.0894,6.1942,6.2375,6.2989,6.4291,6.4725,6.4695,6.4066,6.359,6.3412,6.3588,6.3158,6.2862,6.2862,6.3021,6.2978,6.2643,6.2949,6.3185,6.3338,6.3652,6.4218,6.5069,6.5039,6.5114,6.5352,6.4681,6.4279,6.413,6.3965,6.3713,6.3387,6.3872,6.384,6.3545,6.4011,6.4321,6.4473,6.4614,6.492,6.523,6.523,6.5355,6.5457,0.0,0.0,0.0,0.0,0.0,0.0,0.0,0.0,0.0,0.0,0.0,0.0,0.0,0.0,0.0,0.0,0.0,0.0,0.0,0.0,0.0,0.0,0.0,0.0,0.0,3.5595,3.6784,3.7396,3.8671,3.9236,3.911,3.9267,3.8824,3.7786,3.6055,3.4891,0.0,0.0,3.2161,3.2452,3.1997,0.0,0.0,0.0,0.0,0.0,0.0,0.0,0.0,4.1343,4.3219,4.5345,4.5554,0.0,0.0,0.0,0.0,0.0,5.4281,5.491,5.5671,5.6944,5.7679,5.8115,5.8248,5.8756,5.9398,5.998,6.019,6.0429,6.1,6.118,6.1479,6.2121,6.2794,6.3572,6.456,6.5188,6.5159,6.4067,6.3682,6.3415,6.3128,6.2805,6.2585,6.2527,6.2789,6.2687,6.2131,6.2629,6.3071,6.3357,6.3387,6.3476,6.371,6.4352,6.4591,6.4352,6.3803,6.3357,6.3104,6.3147,6.3176,6.322,6.3747,6.3997,6.404,6.4408,6.4734,6.5041,6.5317,6.5428,6.5396,6.5161,6.489,6.4409,0.0,0.0,0.0,0.0,0.0,0.0,0.0,0.0,0.0,0.0,0.0,0.0,0.0,0.0,0.0,0.0,0.0,0.0,0.0,0.0,0.0,0.0,0.0,0.0,0.0,0.0,3.6784,3.7396,3.9284,3.982,3.9149,4.0992,4.0881,3.9056,3.766,3.6363,3.5207,3.4404,3.3754,3.3304,3.3237,0.0,0.0,0.0,0.0,0.0,0.0,0.0,0.0,4.2012,4.3619,4.5484,4.6651,0.0,0.0,0.0,0.0,0.0,5.5414,5.5983,5.6359,5.762,5.8025,5.8234,5.8816,5.9458,5.998,6.007,6.0565,6.097,6.109,6.1539,6.2165,6.2824,6.3452,6.3737,6.3452,6.3482,6.356,6.3654,6.3368,6.3175,6.3091,6.2809,6.2483,6.2204,6.2219,6.2219,6.2116,6.2204,6.2293,6.2337,6.2322,6.2352,6.2411,6.3076,6.3371,6.3341,6.3223,6.3148,6.3118,6.3405,6.3502,6.3531,6.3852,6.4003,6.4032,6.4685,6.4933,6.501,6.5049,6.5092,6.4919,6.3655,6.3169,6.274,0.0,0.0,0.0,0.0,0.0,0.0,0.0,0.0,0.0,0.0,0.0,0.0,0.0,0.0,0.0,0.0,0.0,0.0,0.0,0.0,0.0,0.0,0.0,0.0,0.0,0.0,3.8571,3.9568,4.0855,4.1436,4.1381,4.159,4.0871,3.9352,3.8269,3.7122,3.5998,3.531,3.4659,3.4039,0.0,0.0,0.0,0.0,0.0,0.0,0.0,0.0,0.0,0.0,4.3678,4.5514,4.689,0.0,0.0,0.0,0.0,0.0,5.6239,5.6958,5.7363,5.7935,5.7829,5.762,5.7962,5.853,5.9219,5.9951,6.0625,6.121,6.1569,6.1882,6.2181,6.2525,6.3348,6.3858,6.3428,6.3486,6.3456,6.3089,6.291,6.2687,6.2321,6.2307,6.2263,6.2116,6.2101,6.2028,6.1836,6.1983,6.2028,6.1836,6.1821,6.1997,6.2379,6.2493,6.2639,6.2834,6.3201,6.3285,6.3118,6.3591,6.3834,6.3848,6.4318,6.4545,6.4545,6.4851,6.4551,6.3895,6.4695,6.4037,6.2553,6.1857,6.1131,6.0215,0.0,0.0,0.0,0.0,0.0,0.0,0.0,0.0,0.0,0.0,0.0,0.0,0.0,0.0,0.0,0.0,0.0,0.0,0.0,0.0,0.0,0.0,0.0,0.0,0.0,0.0,4.0118,4.1643,4.261,4.3309,4.3758,4.2296,4.1074,4.0058,3.9088,3.8004,3.6874,3.6088,3.5348,3.4727,0.0,0.0,0.0,0.0,0.0,0.0,0.0,0.0,0.0,0.0,0.0,0.0,0.0,0.0,0.0,5.2175,5.3982,5.57,5.7004,5.7829,5.8324,5.8324,5.7949,5.7543,5.7363,5.7979,5.8846,5.9891,6.0745,6.1493,6.2002,6.2331,6.248,6.2375,6.3139,6.3575,6.2985,6.3057,6.2937,6.2232,6.2217,6.2069,6.1568,6.1807,6.1969,6.1895,6.1895,6.1791,6.1509,6.1761,6.1835,6.1713,6.1713,6.2049,6.272,6.2593,6.2593,6.272,6.3377,6.3574,6.3341,6.3964,6.4239,6.4239,6.4764,6.5012,6.5012,6.5012,6.4329,6.3394,6.4183,6.2686,6.0087,6.0087,5.9148,5.7893,0.0,0.0,0.0,0.0,0.0,0.0,0.0,0.0,0.0,0.0,0.0,0.0,0.0,0.0,0.0,0.0,0.0,0.0,0.0,0.0,0.0,0.0,0.0,0.0,0.0,3.9011,4.0367,4.2321,4.4187,4.5105,4.5125,4.3768,4.2801,4.2141,4.0816,3.949,0.0,3.6934,3.6036,3.5421,3.5421,0.0,0.0,0.0,0.0,0.0,0.0,0.0,0.0,0.0,0.0,0.0,0.0,0.0,5.0715,5.3312,5.5042,5.6402,5.7679,5.8517,5.9039,5.9039,5.9009,5.8786,5.8188,5.9039,5.998,6.007,6.1134,6.2032,6.2091,6.3079,6.3677,6.3123,6.3093,6.2619,6.1039,6.0832,6.0841,6.0838,6.1115,6.1277,6.1242,6.1494,6.1524,6.1283,6.1268,6.1253,6.1223,6.1253,6.1515,6.2052,6.2081,6.24,6.3068,6.3603,6.3587,6.3068,6.3676,6.3964,6.3949,6.4619,6.4925,6.4925,6.4983,6.5012,6.5012,6.5012,6.4948,6.4727,6.3443,6.1155,5.856,5.856,5.7625,5.6415,0.0,0.0,0.0,0.0,0.0,0.0,0.0,0.0,0.0,0.0,0.0,0.0,0.0,0.0,0.0,0.0,0.0,0.0,0.0,0.0,0.0,0.0,0.0,3.4404,3.7704,3.9649,4.1813,4.4187,4.4526,4.4456,4.4027,4.2731,4.1992,4.1742,4.0825,0.0,0.0,0.0,3.6686,3.6118,3.6118,3.6028,0.0,0.0,0.0,0.0,0.0,0.0,0.0,0.0,4.4645,4.6719,4.9123,5.0308,5.1415,5.4521,5.606,5.7047,5.8367,5.8607,5.8577,5.9009,5.8786,5.8427,5.8145,5.8816,5.9697,6.0565,6.1134,6.1732,6.2555,6.2421,6.2271,6.2465,6.1965,6.1466,6.1262,6.0721,6.0492,6.091,6.1056,6.1057,6.0925,6.1305,6.1569,6.1464,6.1269,6.1458,6.2032,6.1851,6.2079,6.2703,6.2703,6.3022,6.3645,6.3891,6.4109,6.4286,6.4502,6.4619,6.4648,6.488,6.5012,6.5012,6.5012,6.4764,6.44,6.4822,6.3667,6.1436,5.9476,5.8787,5.8806,5.7877,5.7401,5.7298,0.0,0.0,0.0,0.0,0.0,0.0,0.0,0.0,0.0,0.0,0.0,0.0,0.0,0.0,0.0,0.0,0.0,0.0,0.0,0.0,0.0,0.0,0.0,3.4472,3.7336,4.0017,4.2471,4.4676,4.4207,4.3878,4.3569,4.2112,4.1603,0.0,0.0,0.0,0.0,0.0,0.0,3.6784,3.6784,3.6635,0.0,0.0,0.0,0.0,0.0,0.0,0.0,0.0,4.5254,4.7328,4.9519,5.0936,5.2426,5.5354,5.6628,5.7334,5.8471,5.8607,5.8487,5.8726,5.8936,5.8982,5.8786,5.9099,5.9608,6.0312,6.097,6.1674,6.2485,6.2154,6.1676,6.1521,6.0992,6.0629,6.0695,6.0318,6.022,6.075,6.0823,6.0838,6.0866,6.1231,6.1552,6.1756,6.1401,6.1676,6.2704,6.2331,6.2499,6.337,6.3196,6.3399,6.4007,6.3803,6.3935,6.4402,6.4402,6.4518,6.4677,6.4677,6.459,6.4402,6.459,6.4162,6.3357,6.4038,6.2385,5.9326,5.7746,5.7834,5.8668,5.767,5.7531,5.7926,0.0,0.0,0.0,0.0,0.0,0.0,0.0,0.0,0.0,0.0,0.0,0.0,0.0,0.0,0.0,0.0,0.0,0.0,2.9555,3.0807,3.1189,0.0,0.0,3.5386,3.7336,4.0017,4.2013,4.33,4.33,4.3628,4.4217,4.2292,0.0,0.0,0.0,0.0,0.0,0.0,0.0,0.0,3.7426,3.7823,3.8401,0.0,0.0,0.0,0.0,0.0,0.0,0.0,4.6632,4.8517,4.98,5.1576,5.3588,5.5623,5.6628,5.7244,5.7919,5.8577,5.8949,5.8278,5.9594,6.088,6.025,6.01,5.9921,5.9249,6.0701,6.1992,6.1676,6.2413,6.2443,6.0535,6.0412,6.0147,5.8891,5.9288,5.983,6.0163,6.0206,6.0467,6.1135,6.1193,6.1425,6.205,6.1542,6.1745,6.3022,6.2457,6.2687,6.3933,6.3397,6.3368,6.3946,6.3353,6.3065,6.3094,6.3094,6.3413,6.4007,6.4007,6.3658,6.3123,6.373,6.3141,6.1821,6.2488,6.1357,5.9209,5.9191,5.8654,5.7901,5.7901,5.7901,5.8001,0.0,0.0,0.0,0.0,0.0,0.0,0.0,0.0,0.0,0.0,0.0,0.0,0.0,0.0,0.0,0.0,0.0,0.0,2.9555,3.0807,3.1009,2.99,3.1928,0.0,0.0,3.888,4.1554,4.33,4.288,4.2292,4.1554,4.1454,0.0,4.1953,0.0,0.0,0.0,0.0,0.0,0.0,3.8101,3.8221,3.8461,0.0,0.0,0.0,0.0,0.0,0.0,0.0,0.0,0.0,5.093,5.2336,5.3677,5.6119,5.7304,5.7949,5.8607,5.8261,5.7992,5.9189,5.889,5.859,5.9831,6.0446,6.0731,6.0551,6.1019,6.1428,6.1266,6.077,6.038,6.0483,5.9815,5.9529,6.0293,6.0195,6.034,6.1085,6.0601,6.0264,6.0467,6.0496,6.0555,6.0758,6.1019,6.1542,6.2354,6.2209,6.2026,6.1901,6.1699,6.1268,6.0498,6.0304,6.0914,6.2327,6.2327,6.2692,6.3399,6.3803,6.3341,6.2215,6.2871,6.2043,6.0222,5.9801,5.9713,5.9737,5.8689,5.8371,5.8459,5.8459,5.8704,5.9056,0.0,0.0,0.0,0.0,0.0,0.0,0.0,0.0,0.0,0.0,2.4723,2.4455,0.0,0.0,0.0,0.0,0.0,0.0,2.9152,3.0395,3.0747,2.999,3.1346,3.311,3.5236,3.8131,4.0457,4.2143,4.2331,4.1982,4.1194,0.0,0.0,4.2192,0.0,0.0,0.0,0.0,0.0,0.0,0.0,3.9358,3.9658,0.0,0.0,0.0,0.0,0.0,0.0,0.0,0.0,0.0,5.1528,5.3037,5.4354,5.6209,5.7184,5.7739,5.7902,5.7377,5.7017,5.8245,5.8035,5.7935,5.9574,6.0123,6.0372,6.0655,6.065,6.0544,6.037,5.9953,5.961,5.9672,5.9357,5.9302,5.9901,5.9903,6.0048,6.0617,6.0383,6.0206,6.0206,6.0438,6.07,6.0932,6.1106,6.1358,6.1643,6.1427,6.0976,6.0225,6.0722,6.0609,5.9812,5.978,6.0366,6.157,6.0972,6.0924,6.1375,6.2571,6.2199,6.0578,6.0883,6.0544,5.9719,5.8591,5.8716,5.9464,5.858,5.8554,5.9012,5.9012,5.9232,5.9483,0.0,0.0,0.0,0.0,0.0,0.0,0.0,0.0,0.0,2.5281,2.481,2.4532,0.0,0.0,0.0,2.6435,2.7219,2.7908,2.8637,2.9834,3.0492,3.0432,3.1159,3.3073,3.6254,3.7682,3.8999,4.0217,4.1622,4.2291,0.0,0.0,4.2741,4.325,0.0,4.4277,0.0,0.0,0.0,0.0,0.0,4.0975,4.1643,4.2311,0.0,0.0,0.0,0.0,0.0,0.0,0.0,0.0,5.1846,5.3593,5.5251,5.5983,5.6628,5.6987,5.6432,5.6252,5.6222,5.6342,5.7261,5.838,5.9325,5.9256,5.9197,5.9868,5.9723,5.9402,5.9137,5.9568,5.9575,5.8506,5.9043,5.929,5.8508,5.8929,5.9335,5.9393,5.9829,6.0148,6.0206,6.0816,6.138,6.178,6.1418,6.1038,6.0811,6.027,5.9605,5.8812,5.9948,6.0533,6.0403,6.0338,6.0415,6.0568,5.9286,5.8691,5.8805,6.0761,6.0645,5.8823,5.8421,5.8915,5.9874,5.8526,5.8303,5.8761,5.8761,5.9062,5.9483,5.9483,5.9483,5.9483,0.0,0.0,0.0,0.0,0.0,0.0,0.0,0.0,2.4671,2.4522,2.41,2.3955,2.4333,2.391,0.0,2.6435,2.7219,2.8094,2.9309,3.0073,3.0283,2.9817,3.1383,3.3118,3.4885,3.7212,3.855,3.882,4.0685,4.1343,0.0,0.0,0.0,4.2631,0.0,4.4037,0.0,0.0,0.0,0.0,0.0,4.2352,4.2951,4.3648,4.4855,0.0,0.0,0.0,0.0,0.0,0.0,0.0,5.2396,5.3623,5.464,5.5863,5.6628,5.7077,5.6958,5.6551,5.6432,5.7453,5.8117,5.8478,5.8202,5.826,5.8595,5.9273,5.8546,5.7928,5.8348,5.8129,5.8082,5.8546,5.8607,5.8711,5.9045,5.9219,5.948,5.9945,5.9713,5.9684,6.0148,6.0816,6.0769,5.9753,6.0483,6.0458,5.9265,5.9073,5.84,5.7163,5.7401,5.7043,5.5977,5.5959,5.6738,5.8295,5.841,5.8684,5.9149,6.0257,6.0415,5.9726,5.8522,5.837,5.8978,5.8662,5.8836,5.9332,5.9332,5.9408,5.9483,5.9483,5.9483,5.9483,0.0,0.0,0.0,0.0,0.0,0.0,0.0,0.0,2.4868,2.4868,2.4318,2.4026,2.4286,2.3883,0.0,0.0,2.7039,2.8034,2.9062,2.9721,2.9781,2.9152,3.0987,3.2362,3.3058,3.5669,3.7315,3.7913,3.9619,4.0576,0.0,0.0,0.0,4.288,0.0,4.4436,0.0,0.0,0.0,0.0,0.0,0.0,0.0,4.5832,4.686,4.7848,4.8465,0.0,0.0,0.0,0.0,0.0,0.0,0.0,5.4389,5.5431,5.6179,5.6598,5.6269,5.597,5.597,5.6944,5.7821,5.8281,5.7603,5.7739,5.7975,5.788,5.7683,5.7655,5.7961,5.7874,5.7926,5.8432,5.8376,5.8435,5.8784,5.8813,5.9161,6.009,6.0206,6.0438,6.1048,6.1064,6.0727,5.996,5.9864,5.9199,5.7764,5.7679,5.706,5.5681,5.6582,5.673,5.6047,5.6549,5.7326,5.8357,5.8221,5.843,5.8968,5.918,5.9316,5.9385,5.8637,5.8604,5.9062,5.9062,5.9257,5.9483,5.9483,5.9483,5.9483,5.9483,5.9483,5.9483,0.0,0.0,0.0,0.0,0.0,0.0,0.0,0.0,0.0,2.5486,2.4794,2.4343,2.4385,2.3925,2.4148,0.0,0.0,0.0,2.8733,2.9279,2.9338,2.8786,3.0322,3.1331,3.166,3.4075,3.5908,3.7067,3.8524,0.0,0.0,0.0,0.0,4.319,0.0,0.0,0.0,0.0,0.0,0.0,0.0,0.0,0.0,0.0,0.0,0.0,5.0338,5.0727,5.0817,5.1367,0.0,0.0,0.0,0.0,5.4359,5.5132,5.5773,5.6102,5.5641,5.5572,5.5671,5.5812,5.7013,5.7936,5.7143,5.7261,5.7291,5.6416,5.6852,5.7415,5.7537,5.7681,5.783,5.7917,5.8234,5.8407,5.8278,5.8581,5.9219,6.038,6.078,6.1222,6.1828,6.1149,6.057,6.0326,5.9289,5.8033,5.66,5.653,5.6016,5.4909,5.6589,5.75,5.75,5.8485,5.8968,5.8976,5.8349,5.8328,5.8811,5.8378,5.8428,5.8836,5.8836,5.9106,5.9483,5.9483,5.9483,5.9483,5.9483,5.9483,5.9483,5.9483,5.9483,5.9483,0.0,0.0,0.0,0.0,0.0,0.0,0.0,0.0,0.0,0.0,2.4794,2.4426,2.4769,2.4084,2.4148,2.5483,2.683,2.8124,2.9368,0.0,0.0,2.9458,2.9728,3.0642,3.2333,3.3851,3.4989,3.575,3.7614,0.0,0.0,0.0,0.0,0.0,0.0,0.0,0.0,0.0,0.0,0.0,0.0,0.0,0.0,0.0,0.0,0.0,0.0,5.2797,5.2797,5.2887,5.2917,0.0,0.0,0.0,5.4461,5.57,5.6132,5.6282,5.6718,5.709,5.6898,5.5016,5.6204,5.7528,5.6271,5.6316,5.6387,5.5678,5.5622,5.5907,5.6467,5.6151,5.5955,5.6389,5.7985,5.8912,5.8221,5.9664,6.1077,6.1745,6.0786,6.0334,6.1002,6.0281,5.9268,5.8031,5.8263,5.782,5.6331,5.624,5.6167,5.5993,5.6703,5.7073,5.7073,5.7747,5.8075,5.8075,5.8448,5.8861,5.9382,5.9307,5.9332,5.9382,5.9382,5.9433,5.9483,5.9483,5.9483,5.9483,5.9483,5.9483,5.9483,5.9483,5.9483,5.9483,0.0,0.0,0.0,0.0,0.0,0.0,0.0,0.0,0.0,0.0,0.0,2.4749,2.5093,2.4772,2.513,2.6579,2.7596,2.856,2.9555,2.9249,2.8859,2.8513,2.883,2.9631,3.0851,3.2527,3.3694,3.4382,3.6716,0.0,0.0,4.1294,4.2292,0.0,0.0,0.0,0.0,0.0,0.0,0.0,0.0,0.0,0.0,0.0,0.0,0.0,0.0,0.0,5.3683,5.3348,5.2947,5.2695,5.2995,0.0,0.0,0.0,5.5072,5.5222,5.5867,5.6855,5.7287,5.5538,5.6717,5.8059,5.7139,5.75,5.7511,5.5751,5.5096,5.5167,5.6229,5.6407,5.6491,5.6714,5.7166,5.7736,5.8553,5.8999,5.9928,6.1725,6.0628,5.9984,6.0667,5.9624,5.8673,5.8052,5.7497,5.6877,5.6237,5.62,5.6326,5.6652,5.6885,5.7161,5.7506,5.8058,5.8504,5.8805,5.9031,5.9282,5.9483,5.9483,5.9483,5.9483,5.9483,5.9483,5.9483,5.9483,5.9483,5.9483,5.9483,5.9483,5.9483,5.9483,5.9483,5.9483,0.0,0.0,0.0,0.0,0.0,0.0,0.0,0.0,0.0,0.0,0.0,2.5634,2.554,0.0,0.0,0.0,2.8105,2.8816,2.9309,2.8883,2.8284,2.7615,2.8081,2.874,2.9585,3.1353,3.2662,3.3492,0.0,0.0,3.8691,4.0376,4.1583,0.0,4.302,0.0,0.0,0.0,0.0,0.0,4.9565,5.0971,0.0,0.0,0.0,0.0,0.0,0.0,5.4389,5.4054,5.3396,5.2725,5.2725,5.2606,0.0,0.0,0.0,5.4777,5.5043,5.5998,5.671,5.5735,5.6749,5.7959,5.7918,5.8389,5.8148,5.5871,5.5135,5.5094,5.5736,5.5923,5.605,5.6353,5.6311,5.6775,5.8319,5.8358,5.9039,6.1236,6.0195,5.949,5.9981,5.8718,5.7858,5.7858,5.6805,5.62,5.62,5.6326,5.6602,5.6985,5.7286,5.7656,5.8102,5.8654,5.9106,5.9483,5.9483,5.9483,5.9483,5.9483,5.9483,5.9483,5.9483,5.9483,5.9483,5.9483,5.9483,5.9483,5.9483,5.9483,5.9483,5.9483,5.9483,5.9483,0.0,0.0,0.0,0.0,0.0,0.0,0.0,0.0,0.0,0.0,0.0,2.7411,2.6282,2.6794,2.7055,2.6687,2.7865,2.8607,2.8637,2.8637,2.8284,2.7615,2.7615,0.0,2.9578,3.0867,3.2176,0.0,0.0,0.0,3.9361,4.0098,4.1164,4.244,4.302,4.3658,4.4326,0.0,0.0,0.0,5.1098,5.2294,0.0,0.0,0.0,0.0,0.0,0.0,0.0,5.5833,5.5192,5.4089,5.4089,5.3653,5.3396,0.0,0.0,0.0,5.5053,5.4832,5.4873,5.4926,5.5456,5.6371,5.7926,5.7826,5.7008,5.5674,5.5888,5.5922,5.4634,5.3466,5.299,5.401,5.5734,5.6946,5.6935,5.8505,5.9938,6.0597,5.9366,5.848,5.8507,5.7184,5.6303,5.6303,5.6255,5.62,5.62,5.6677,5.696,5.6985,5.8058,5.8635,5.866,5.9207,5.9458,5.9483,5.9483,5.9483,5.9483,5.9483,5.9483,5.9483,5.9483,5.9483,5.9483,5.9483,5.9483,5.9483,5.9483,5.9483,5.9483,5.9483,5.9483,5.9483,0.0,0.0,0.0,0.0,0.0,0.0,0.0,0.0,0.0,0.0,0.0,0.0,0.0,0.0,0.0,0.0,0.0,0.0,0.0,2.8201,2.7848,2.7615,2.7591,2.8423,3.014,3.1046,0.0,0.0,0.0,3.6844,3.7554,3.9071,4.0238,4.1184,4.2651,4.3419,4.3778,4.5553,0.0,0.0,0.0,0.0,0.0,0.0,0.0,0.0,0.0,0.0,0.0,5.5132,5.4311,5.3426,5.2534,5.2115,0.0,5.2995,5.4042,5.4825,5.4515,5.504,5.5504,5.4927,5.5457,5.6344,5.7138,5.6962,5.6346,5.5502,5.4832,5.3979,5.2627,5.2978,5.3749,5.4517,5.4766,5.52,5.6083,5.6669,5.7415,5.8531,5.7678,5.6986,5.6986,5.6193,5.5691,5.5691,5.5691,5.5691,5.5691,5.6219,5.6828,5.7531,5.7957,5.8529,5.9207,5.9408,5.9483,5.9483,5.9483,5.9483,5.9483,5.9483,5.9483,5.9483,5.9483,5.9483,5.9483,5.9483,5.9483,5.9483,5.9483,5.9483,5.9483,5.9483,5.9483,5.9483,0.0,0.0,0.0,0.0,0.0,0.0,0.0,0.0,0.0,0.0,0.0,0.0,0.0,0.0,0.0,0.0,2.8943,2.8853,2.8607,2.8171,2.8034,2.8274,2.8058,2.874,3.0455,0.0,0.0,0.0,0.0,0.0,0.0,3.8024,3.9221,4.0148,4.1883,4.301,0.0,0.0,0.0,4.9733,0.0,0.0,5.3623,0.0,0.0,0.0,0.0,0.0,0.0,0.0,5.4294,5.3336,0.0,0.0,0.0,0.0,0.0,5.3862,5.3862,5.4354,5.483,5.4722,5.5403,5.6165,5.6412,5.6574,5.6272,5.4905,5.4075,5.3098,5.158,5.2306,5.3345,5.3939,5.3538,5.3644,5.4963,5.4961,5.533,5.6714,5.6297,5.6018,5.6175,5.5717,5.5408,5.5408,5.5408,5.5333,5.5132,5.5993,5.6979,5.8127,5.8353,5.878,5.9483,5.9483,5.9483,5.9483,5.9483,5.9483,5.9483,5.9483,5.9483,5.9483,5.9483,5.9483,5.9483,5.9483,5.9483,5.9483,5.9483,5.9483,5.9483,5.9483,5.9483,5.9483,0.0,0.0,0.0,0.0,0.0,0.0,0.0,0.0,0.0,0.0,0.0,0.0,0.0,0.0,0.0,0.0,2.9675,2.9368,2.8727,2.8697,2.8973,2.9638,0.0,0.0,0.0,0.0,0.0,0.0,0.0,0.0,0.0,0.0,3.8084,0.0,4.0795,4.2501,4.4456,0.0,4.7826,5.0207,0.0,5.1666,5.2247,0.0,0.0,0.0,5.379,5.4269,0.0,5.576,5.5311,0.0,0.0,0.0,0.0,0.0,0.0,0.0,0.0,0.0,0.0,5.4246,5.518,5.5685,5.5766,5.6696,5.6731,5.3938,5.3736,5.3522,5.1656,5.1314,5.1465,5.2,5.2101,5.2477,5.3507,5.3683,5.411,5.5232,5.5383,5.5609,5.6125,5.5691,5.5383,5.5408,5.5408,5.5157,5.4622,5.6143,5.7512,5.861,5.9207,5.9458,5.9433,5.9458,5.9483,5.9483,5.9483,5.9483,5.9483,5.9483,5.9483,5.9483,5.9483,5.9483,5.9483,5.9483,5.9483,5.9483,5.9483,5.9483,5.9483,5.9483,5.9483,5.9483,0.0,0.0,0.0,0.0,0.0,3.0133,3.0511,3.0556,0.0,0.0,0.0,0.0,0.0,0.0,0.0,0.0,3.0979,3.089,3.0703,3.071,3.077,3.0987,3.0336,3.0821,3.2617,0.0,0.0,0.0,0.0,0.0,0.0,0.0,0.0,0.0,4.0595,4.303,4.5792,4.667,0.0,4.9045,5.163,5.3054,0.0,0.0,0.0,0.0,5.5491,5.5641,5.57,5.6072,5.5311,5.4,0.0,0.0,0.0,0.0,0.0,0.0,5.2498,0.0,0.0,0.0,0.0,0.0,5.5629,5.5595,5.5411,5.5045,5.415,5.311,5.2052,5.1548,5.1339,5.1515,5.185,5.2201,5.2503,5.3206,5.3808,5.4135,5.4554,5.5031,5.5566,5.5132,5.4981,5.5383,5.5408,5.5157,5.4622,5.6143,5.7136,5.7462,5.8409,5.8755,5.8353,5.873,5.8911,5.8911,5.9307,5.9483,5.9483,5.9483,5.9483,5.9483,5.9483,5.9483,5.9483,5.9483,5.9483,5.9483,5.9483,5.9483,5.9483,5.9483,5.9483,5.9483,0.0,0.0,2.9945,3.011,3.0598,3.1114,3.155,3.1632,0.0,0.0,0.0,0.0,0.0,0.0,0.0,0.0,3.302,3.2923,3.2355,3.2325,3.2206,3.1936,3.1279,3.1465,3.2639,0.0,0.0,0.0,0.0,0.0,0.0,0.0,0.0,0.0,0.0,4.3339,4.6012,4.7766,0.0,0.0,5.2085,0.0,0.0,5.4993,5.5389,5.5431,5.6013,5.6013,5.5863,5.6402,5.57,5.4491,0.0,0.0,0.0,0.0,0.0,0.0,0.0,0.0,0.0,0.0,0.0,0.0,5.3788,5.4384,5.4971,5.4002,5.3241,5.2625,5.2178,5.1649,5.1289,5.1289,5.1749,5.2026,5.18,5.2503,5.313,5.3339,5.3858,5.4454,5.5006,5.4798,5.4723,5.5031,5.5282,5.5358,5.5282,5.6376,5.6985,5.6985,5.8108,5.8535,5.8252,5.8535,5.8811,5.9056,5.9357,5.9483,5.9483,5.9483,5.9483,5.9483,5.9483,5.9483,5.9483,5.9483,5.9483,5.9483,5.9483,5.9483,5.9483,5.9483,5.9483,5.9483,0.0,0.0,3.0114,3.0445,3.1569,3.2852,3.4218,3.397,3.4067,0.0,0.0,0.0,0.0,0.0,0.0,0.0,0.0,3.531,3.4121,3.3963,3.3604,3.2878,3.2206,3.1809,3.172,3.1083,3.1323,0.0,0.0,0.0,0.0,0.0,0.0,0.0,4.0864,4.3728,4.5801,4.8947,5.071,5.1476,5.2505,5.3144,5.3651,5.5117,5.5155,5.46,5.5889,5.5906,5.5492,5.6653,5.6367,5.5453,0.0,0.0,0.0,0.0,5.2306,0.0,0.0,0.0,0.0,0.0,0.0,0.0,5.1702,5.3501,5.5068,5.2249,5.2077,5.2418,5.2328,5.1899,5.1546,5.1471,5.1783,5.1875,5.144,5.185,5.2335,5.2744,5.3289,5.3808,5.4353,5.4471,5.4522,5.4597,5.5031,5.5566,5.615,5.6728,5.6985,5.6985,5.8108,5.8635,5.851,5.8635,5.8911,5.9307,5.9433,5.9483,5.9483,5.9483,5.9483,5.9483,5.9483,5.9483,5.9483,5.9483,5.9483,5.9483,5.9483,5.9483,5.9483,5.9483,5.9483,5.9483,2.9863,2.9977,3.039,3.1701,3.2555,3.3408,3.4332,3.4372,0.0,0.0,0.0,0.0,0.0,0.0,0.0,0.0,0.0,0.0,3.7443,3.6956,3.6109,3.4981,3.4262,3.3672,3.3118,3.246,3.2243,3.2512,3.2355,3.2355,0.0,0.0,0.0,0.0,4.2314,4.523,4.7532,4.9758,5.1393,5.2547,5.3313,5.4234,5.5253,5.5588,5.5797,5.6005,5.703,5.6829,5.6166,5.6631,5.6978,5.6971,5.5624,0.0,0.0,5.3677,0.0,0.0,0.0,0.0,0.0,0.0,0.0,0.0,5.42,5.4629,5.4766,5.4078,5.4304,5.4418,5.3756,5.3371,5.2996,5.2584,5.1902,5.1565,5.19,5.241,5.2611,5.2285,5.2737,5.3113,5.3213,5.3632,5.4077,5.4572,5.4697,5.5182,5.615,5.6728,5.6985,5.6985,5.8108,5.8259,5.7336,5.8259,5.8535,5.8227,5.9081,5.9483,5.9483,5.9483,5.9483,5.9483,5.9483,5.9483,5.9483,5.9483,5.9483,5.9483,5.9483,5.9483,5.9483,5.9483,5.9483,5.9483,2.965,3.025,3.1192,3.2657,3.3448,3.4469,3.6176,3.6464,0.0,0.0,0.0,0.0,0.0,0.0,0.0,0.0,0.0,0.0,0.0,3.9448,3.8408,3.7348,3.6326,3.5194,3.3883,3.3189,3.2542,3.1901,3.2206,3.263,3.3251,0.0,0.0,0.0,4.3869,4.6507,4.9289,5.1404,5.2681,5.3364,5.4065,5.4617,5.5147,5.6289,5.6544,5.6437,5.7562,5.764,5.7174,5.6822,5.7152,5.7516,5.6478,5.6179,5.5923,0.0,5.3486,5.2336,0.0,0.0,0.0,4.9841,0.0,0.0,0.0,5.363,5.4222,5.2753,5.3654,5.4458,5.3683,5.3486,5.3362,5.3224,5.2488,5.1853,5.1716,5.2159,5.241,5.2126,5.2561,5.2795,5.2536,5.3231,5.3934,5.4547,5.4848,5.5232,5.5767,5.6552,5.6985,5.6985,5.7537,5.7732,5.7455,5.8008,5.8284,5.8328,5.9106,5.9483,5.9483,5.9483,5.9483,5.9483,5.9483,5.9483,5.9483,5.9483,5.9659,5.9885,5.9608,5.9483,5.9533,5.9809,5.991,5.996,3.0079,3.0883,3.2146,3.3634,3.454,3.5865,3.8212,3.882,0.0,0.0,0.0,0.0,0.0,0.0,0.0,0.0,0.0,0.0,0.0,4.1679,4.063,3.9808,3.8388,3.6868,3.5291,3.4351,3.3398,3.2346,3.2849,3.3613,3.4692,3.6643,3.9626,0.0,0.0,0.0,0.0,0.0,0.0,5.3723,5.4769,5.5195,5.5427,5.7144,5.7349,5.6795,5.7588,5.7941,5.7924,5.7366,5.7547,5.7884,5.7292,5.7004,0.0,0.0,0.0,0.0,0.0,0.0,0.0,0.0,0.0,5.1696,0.0,0.0,0.0,5.1119,5.245,5.3848,5.3231,5.3324,5.3423,5.3098,5.264,5.1925,5.0766,5.1193,5.1708,5.1917,5.2611,5.2812,5.2159,5.3281,5.4152,5.4403,5.5232,5.5616,5.5408,5.6426,5.7035,5.7161,5.7261,5.7556,5.8052,5.8152,5.8328,5.856,5.9207,5.9433,5.9357,5.9458,5.9483,5.9483,5.9483,5.9558,5.9659,5.9659,5.9985,6.0417,5.9859,5.9734,5.9885,6.0311,6.0468,6.0543,3.2415,3.228,3.2991,3.4943,3.6267,3.7575,3.9062,4.0316,0.0,0.0,0.0,0.0,0.0,0.0,0.0,0.0,0.0,0.0,4.439,0.0,0.0,4.2225,4.041,3.9301,3.9095,3.732,3.6319,3.6172,3.6251,3.6663,3.7399,3.935,4.1048,4.2614,4.6458,0.0,0.0,0.0,5.3561,5.3184,5.5376,5.7185,5.8596,5.8023,5.7904,5.7954,5.6966,5.6936,5.7558,5.8571,5.8972,5.88,5.758,5.8117,5.8454,5.4629,0.0,0.0,0.0,0.0,0.0,0.0,5.0637,0.0,0.0,0.0,5.1655,5.1926,0.0,5.3277,5.3218,0.0,0.0,5.1517,5.1443,5.0853,4.8443,4.9171,5.0333,5.128,5.2703,5.3206,5.2201,5.3984,5.483,5.3858,5.5673,5.6401,5.5458,5.6426,5.7255,5.7775,5.8259,5.8535,5.861,5.9081,5.888,5.8001,5.9006,5.9257,5.8811,5.9282,5.9483,5.9483,5.9483,5.9784,6.0217,6.0217,6.0563,6.1059,6.0442,6.0537,6.1009,6.1085,6.111,6.111,3.3878,3.4097,0.0,3.6739,3.7566,3.8766,4.1135,4.2832,0.0,0.0,0.0,0.0,0.0,0.0,0.0,0.0,0.0,4.7301,4.7448,0.0,0.0,4.4701,4.2834,4.1418,4.0656,3.9094,3.7952,3.722,3.722,3.7887,3.9147,4.0383,4.255,4.5571,4.7677,0.0,5.0929,5.3825,5.531,5.5866,5.7189,5.8894,6.0369,5.8298,5.7387,5.7086,5.6157,5.5983,5.6372,5.7442,5.8284,5.8769,5.8025,5.9154,0.0,5.6812,0.0,0.0,0.0,0.0,0.0,0.0,0.0,0.0,5.3282,0.0,5.2683,0.0,0.0,0.0,0.0,0.0,0.0,0.0,5.1236,5.0247,4.9018,4.9897,5.0745,5.0886,5.1595,5.2077,5.2093,5.3507,5.421,5.3733,5.5164,5.5867,5.5415,5.5817,5.6477,5.7355,5.7606,5.7882,5.8234,5.8761,5.8811,5.8359,5.9131,5.9382,5.9182,5.9382,5.9659,5.994,5.994,6.0286,6.0814,6.0814,6.114,6.1642,6.1391,6.124,6.1235,6.1542,6.1667,6.1718,3.598,0.0,0.0,3.8172,3.8876,4.0314,4.3266,4.4944,4.6141,0.0,0.0,0.0,4.8845,4.8915,0.0,0.0,4.9644,4.9498,4.982,4.8301,4.7488,4.766,4.5303,4.3892,4.3598,4.1655,4.0295,3.9537,3.9362,3.9945,4.1163,4.1841,4.399,4.7312,4.8263,4.9959,5.2233,5.4537,5.6164,5.7202,5.7991,5.9144,6.0238,5.8521,5.7034,5.583,5.5528,5.5162,5.501,5.5949,5.6895,5.7628,5.7496,5.8854,6.0089,0.0,0.0,0.0,5.5402,0.0,0.0,0.0,0.0,0.0,0.0,0.0,0.0,0.0,0.0,0.0,0.0,0.0,0.0,0.0,0.0,4.947,4.8783,4.9325,4.9893,5.0111,5.0547,5.1296,5.2498,5.3774,5.4351,5.389,5.5387,5.5892,5.4963,5.5365,5.5993,5.6778,5.7079,5.7531,5.8127,5.8635,5.8836,5.871,5.9257,5.9408,5.9307,5.9583,5.9935,6.0317,6.0468,6.0889,6.1436,6.1436,6.1743,6.222,6.222,6.1994,6.1692,6.2094,6.222,6.2275,3.9311,3.8464,0.0,3.8896,4.0454,4.2472,4.5114,4.6097,4.6775,4.7401,4.8952,0.0,5.0052,0.0,0.0,0.0,5.1497,5.1249,5.0705,5.0008,5.0129,5.1369,4.7823,4.6951,4.9395,4.5761,4.4117,4.4669,4.4088,4.3816,4.3903,4.4483,4.5209,4.6051,4.7886,4.9465,5.0942,5.3485,5.4894,5.5591,5.6853,5.7375,5.7579,5.8784,5.7283,5.464,5.5189,5.4594,5.3691,5.4642,5.4983,5.5071,5.5401,5.6613,5.7586,5.5951,5.7005,5.8258,5.6219,5.6614,5.7378,5.6354,5.6551,5.6855,5.6282,0.0,5.382,0.0,0.0,0.0,0.0,0.0,0.0,0.0,0.0,0.0,0.0,4.5927,4.6566,4.8712,4.9926,5.1488,5.3707,5.5573,5.5969,5.4409,5.6949,5.7179,5.3934,5.529,5.6175,5.6226,5.7298,5.8127,5.866,5.9207,5.9207,5.871,5.9257,5.9232,5.8761,5.979,6.0292,6.0342,6.0914,6.1466,6.1969,6.1969,6.2275,6.2756,6.2756,6.2777,6.2752,6.2777,6.2756,6.2777,3.946,0.0,3.9614,4.046,4.1597,4.3247,4.5861,4.6929,4.7834,4.9069,5.0093,5.079,5.1054,5.192,5.2402,5.2278,5.263,5.2601,5.1987,5.1336,5.0975,5.1017,4.8519,4.7346,4.7787,4.5692,4.4483,4.4309,4.4106,4.4193,4.46,4.4803,4.5267,4.5993,4.8321,5.0079,5.1456,5.401,5.6215,5.8029,5.8464,5.7542,5.5977,5.6517,5.5807,5.447,5.4231,5.3312,5.2366,5.3072,5.3855,5.453,5.4236,5.5774,5.7246,5.5056,5.5652,5.6616,5.47,5.5097,5.5948,5.5452,5.7022,5.8604,5.8273,5.6876,5.5502,0.0,0.0,0.0,0.0,0.0,0.0,0.0,0.0,0.0,0.0,0.0,4.7313,4.8867,4.948,5.0365,5.1798,5.3825,5.4741,5.3942,5.5864,5.6244,5.4378,5.5182,5.5666,5.5666,5.7123,5.8001,5.8177,5.9056,5.9408,5.9232,5.9408,5.9608,5.9765,6.0141,6.0693,6.1441,6.1642,6.2044,6.2526,6.2526,6.2651,6.2802,6.2802,6.2576,6.23,6.2676,6.2576,6.222,4.0379,4.0525,4.0953,4.1338,4.2446,4.3965,4.6054,4.7351,4.8492,4.9462,5.095,5.1982,5.2252,5.3166,5.3729,5.3614,5.3762,5.3865,5.3949,5.2891,5.2297,5.2381,5.0523,4.9303,4.8873,4.7143,4.6069,4.5663,4.4995,4.4861,4.5267,4.5267,4.5743,4.6632,4.8304,5.0237,5.2385,5.4039,5.6215,5.8537,5.7859,5.6258,5.4276,5.4332,5.421,5.3922,5.332,5.2416,5.1558,5.1931,5.2616,5.3313,5.3363,5.4472,5.5542,5.4369,5.4904,5.5584,5.4244,5.4604,5.537,5.5357,5.6858,5.8443,5.8913,5.7499,5.6146,5.6243,0.0,0.0,0.0,0.0,0.0,0.0,0.0,0.0,0.0,4.7041,0.0,4.8056,4.8648,0.0,0.0,5.3284,5.4348,5.4212,5.5613,5.5842,5.4353,5.4805,5.5207,5.5408,5.662,5.7499,5.7901,5.878,5.9307,5.9483,5.9483,5.9784,6.0317,6.0518,6.114,6.2019,6.2199,6.2476,6.2802,6.2802,6.2802,6.2802,6.2601,6.23,6.2044,6.2375,6.2195,6.1642,4.215,4.2179,4.2077,4.1679,4.3201,4.481,4.5824,4.7625,4.8861,4.889,5.1617,5.3545,5.3545,5.4648,5.5374,5.5316,5.4822,5.4996,5.6186,5.4532,5.4068,5.5287,5.3543,5.2568,5.2597,5.0063,4.8716,4.8658,4.6882,4.5964,4.5935,4.5935,4.6632,4.7852,4.7834,4.9885,5.3395,5.3358,5.4792,5.692,5.5225,5.3746,5.2568,5.2481,5.2686,5.2974,5.2526,5.1887,5.1264,5.1264,5.1264,5.1522,5.2728,5.2775,5.2628,5.3799,5.4607,5.5041,5.4622,5.4986,5.5589,5.5874,5.6068,5.6571,5.8165,5.6986,5.5684,5.6236,5.3655,0.0,0.0,0.0,0.0,0.0,0.0,0.0,0.0,0.0,0.0,0.0,0.0,0.0,0.0,0.0,5.4737,5.5086,5.6293,5.605,5.3858,5.4328,5.4906,5.5383,5.5917,5.6746,5.7901,5.8434,5.8961,5.9483,5.9483,5.9809,6.0367,6.0939,6.1512,6.2069,6.2576,6.2802,6.2802,6.2777,6.2777,6.2701,6.2169,6.1943,6.1918,6.1918,6.1592,6.1085,4.2857,4.3166,4.3768,4.4589,4.5938,4.6991,4.7253,4.932,5.102,5.1539,5.3152,5.4242,5.4242,5.4938,5.5026,5.4068,5.43,5.4416,5.4271,5.3778,5.3865,5.4706,5.2878,5.2078,5.2597,5.0527,4.8989,4.8026,4.7532,4.7068,4.6569,4.6569,4.7236,4.846,4.8056,4.944,5.2072,5.16,5.23,5.3823,5.4771,5.4022,5.227,5.1889,5.2024,5.2309,5.1879,5.1255,5.0628,5.0628,5.0921,5.1356,5.1679,5.1956,5.2149,5.2104,5.2475,5.2723,5.1762,5.2257,5.2904,5.2385,5.4025,5.5832,5.6094,5.541,5.4859,5.5415,5.3258,5.1123,5.0557,5.0624,0.0,0.0,0.0,0.0,0.0,0.0,0.0,0.0,0.0,0.0,0.0,0.0,5.3946,5.5035,5.6293,5.6226,5.4454,5.5265,5.5666,5.5408,5.5917,5.6746,5.7901,5.8434,5.8961,5.9483,5.9483,6.001,6.0964,6.1135,6.1718,6.2601,6.2752,6.2802,6.2777,6.2375,6.2199,6.2149,6.1617,6.114,6.0744,6.0744,6.0643,6.0462,4.4723,4.4966,4.5448,4.6185,4.8287,4.9606,4.8769,5.0569,5.2368,5.331,5.4284,5.4996,5.5287,5.5374,5.5229,5.4793,5.459,5.4677,5.5113,5.4387,5.4213,5.4851,5.4126,5.3603,5.3427,5.2356,5.0926,4.9114,4.935,4.8435,4.6497,4.7059,4.7823,4.8683,4.8474,4.9843,5.231,5.2261,5.2185,5.2166,5.3543,5.2729,0.0,5.094,5.1164,5.1347,5.1103,5.1055,5.113,5.113,5.1507,5.2,5.2,5.2051,5.2051,5.1724,5.185,5.1975,5.1306,5.1607,5.1984,5.1539,5.2762,5.4242,5.4849,5.4484,5.4333,5.5455,5.391,5.225,5.1983,5.2029,0.0,0.0,0.0,0.0,0.0,0.0,0.0,0.0,0.0,0.0,0.0,0.0,0.0,5.5296,5.6092,5.6229,5.5584,5.544,5.5502,5.5742,5.5817,5.652,5.7876,5.8202,5.8755,5.9483,5.9483,6.0105,6.121,6.121,6.1793,6.2802,6.2802,6.2676,6.2425,6.2124,6.1868,6.1592,6.1014,6.0462,5.996,5.996,5.996,5.991,4.7062,4.7178,4.7352,4.7398,5.0365,5.2178,5.0585,5.1904,5.3427,5.4387,5.5171,5.5809,5.6215,5.5823,5.5722,5.6229,5.5258,5.5316,5.6955,5.5519,5.4851,5.5374,5.5968,5.578,5.4764,5.4677,5.3478,5.1128,5.1515,4.9966,4.6677,4.777,4.859,4.9173,4.9182,5.0557,5.2887,5.3782,5.3123,5.1528,5.2144,5.1042,4.9129,5.0142,5.0477,5.0402,5.0477,5.1205,5.2101,5.2101,5.246,5.2895,5.2895,5.2636,5.2327,5.2327,5.2327,5.2302,5.2226,5.2184,5.2201,5.2126,5.2101,5.2498,5.3932,5.3776,5.3785,5.5407,5.4599,5.3695,5.4012,5.3195,5.2373,0.0,0.0,0.0,0.0,0.0,0.0,0.0,0.0,0.0,0.0,0.0,0.0,0.0,5.6104,5.6406,5.6895,5.5533,5.5204,5.6168,5.5666,5.6194,5.7876,5.7901,5.8428,5.9483,5.9483,6.0105,6.121,6.121,6.1743,6.2701,6.2701,6.2375,6.1893,6.1818,6.1466,6.0934,6.0412,5.991,5.9483,5.9483,5.9483,5.9483,4.8368,4.9262,5.0174,5.0672,5.2181,5.34,5.3632,5.4836,5.5445,5.4619,5.5925,5.6607,5.5664,5.5954,5.6055,5.5606,5.5374,5.5374,5.5693,5.5403,5.5287,5.5403,5.5519,5.5722,5.607,5.5533,5.4484,5.2939,5.2474,5.1336,4.9572,4.9799,5.0543,5.1637,5.0666,5.0477,5.0999,5.2684,5.2618,5.1399,5.21,5.1473,5.0176,5.087,5.082,5.0452,5.0971,5.1548,5.2101,5.2101,5.246,5.2895,5.2895,5.3138,5.3432,5.3432,5.3432,5.3331,5.2887,5.2762,5.2661,5.2209,5.2101,5.2185,5.2481,5.2422,5.2446,5.2776,5.2936,5.3028,5.2937,5.2592,5.2696,5.3812,0.0,0.0,0.0,0.0,0.0,0.0,0.0,0.0,0.0,0.0,0.0,0.0,0.0,5.7732,5.7534,5.7262,5.6833,5.6219,5.5666,5.6194,5.7876,5.7901,5.8428,5.9483,5.9483,6.0105,6.121,6.121,6.1542,6.2124,6.2124,6.1843,6.1311,6.0794,6.0267,5.9784,5.9684,5.9583,5.9483,5.9483,5.9483,5.9483,5.0341,5.1543,0.0,5.2588,5.3923,5.5113,5.5432,5.6012,5.6273,5.5983,5.6477,5.6723,5.6432,5.607,5.5896,5.5939,5.5606,5.5403,5.5403,5.5403,5.4956,5.3939,5.4567,5.4771,5.4398,5.4412,5.3899,5.2866,5.3494,5.2907,5.1256,5.1892,5.2508,5.3001,5.2439,5.2199,5.2289,5.2521,5.2115,5.1356,5.1976,5.1692,5.0921,5.1498,5.1523,5.1306,5.1599,5.2076,5.246,5.2184,5.246,5.2895,5.2895,5.3088,5.3339,5.3632,5.3708,5.3708,5.3758,5.3783,5.3632,5.308,5.2929,5.2854,5.2586,5.2711,5.2854,5.2561,5.3117,5.3754,5.4158,5.4134,5.4295,5.4997,5.4968,0.0,0.0,0.0,0.0,0.0,0.0,0.0,0.0,0.0,0.0,0.0,0.0,5.8061,5.7705,5.7414,5.6934,5.6219,5.5968,5.6495,5.7876,5.7901,5.8428,5.9483,5.9232,5.9639,6.0713,6.0457,6.0763,6.1592,6.1592,6.1266,6.0688,6.0136,5.9734,5.9483,5.9483,5.9483,5.9483,5.9483,5.9483,5.9483,5.2401,5.3661,5.4793,5.4387,5.5577,5.6549,5.6419,5.6622,5.6839,5.6897,5.6839,5.6839,5.6897,5.6361,5.6157,5.6578,5.5878,5.5395,5.5395,5.5159,5.426,5.2574,5.3634,5.3727,5.2516,5.317,5.3125,5.2406,5.4064,5.3621,5.1239,5.3321,5.4159,5.3884,5.3758,5.3732,5.3686,5.2582,5.1925,5.1666,5.1975,5.185,5.154,5.2076,5.2201,5.2126,5.2377,5.2711,5.3038,5.2729,5.2737,5.2895,5.2895,5.2988,5.3188,5.3733,5.3884,5.4027,5.4604,5.4697,5.4496,5.4027,5.3884,5.3758,5.3188,5.3507,5.3708,5.3038,5.3488,5.4348,5.5547,5.5505,5.5454,5.5978,5.6364,0.0,0.0,0.0,0.0,0.0,0.0,0.0,0.0,0.0,0.0,0.0,0.0,5.8112,5.7993,5.7375,5.6865,5.657,5.6344,5.6872,5.8227,5.8001,5.8378,5.9332,5.8886,5.9187,6.0116,5.9684,6.0035,6.0989,6.0989,6.0663,6.0091,5.9684,5.9483,5.9483,5.9483,5.9483,5.9483,5.9483,5.9483,5.9483,5.4242,5.5287,5.6361,5.6868,5.7086,5.7042,5.6477,5.7376,5.7507,5.5809,5.7071,5.7477,5.5751,5.7042,5.7826,5.7274,5.608,5.5417,5.5417,5.432,5.3333,5.2528,5.3199,5.3263,5.2528,5.317,5.3125,5.2406,5.3527,5.2094,4.841,5.3092,5.5005,5.4496,5.3934,5.3451,5.2958,5.2378,5.2335,5.2694,5.2277,5.2076,5.2076,5.2611,5.2511,5.2226,5.3206,5.3582,5.3708,5.4202,5.3708,5.2895,5.2895,5.3239,5.3733,5.4328,5.4522,5.4647,5.5182,5.4956,5.4597,5.4522,5.4522,5.4353,5.3758,5.4102,5.4202,5.3113,5.2955,5.3638,5.5627,5.484,5.462,5.688,5.6576,5.6104,0.0,0.0,0.0,0.0,0.0,0.0,0.0,5.7771,0.0,0.0,5.8553,0.0,5.8936,5.8099,5.7643,5.7744,5.6746,5.7204,5.9332,5.8378,5.8202,5.8761,5.8736,5.9012,5.9558,5.9508,5.9834,6.0367,6.0367,6.0085,5.9558,5.9508,5.9483,5.9483,5.9483,5.9483,5.9483,5.9483,5.9483,5.9483,5.7289,5.7783,5.8087,5.7942,5.7913,5.7826,5.7594,5.7971,5.8029,5.7245,5.7826,5.8,5.7245,5.7477,5.7594,5.7332,5.6136,5.5243,5.4892,5.4011,5.2877,5.1414,5.2304,5.2186,5.0784,5.1338,5.1678,5.1734,5.2807,5.303,5.2452,5.4787,5.5415,5.4572,5.3976,5.3231,5.2435,5.2536,5.2711,5.287,5.2661,5.2762,5.308,5.3289,5.3256,5.3155,5.3951,5.4228,5.4278,5.4522,5.4303,5.3926,5.3926,5.4077,5.4353,5.4906,5.5082,5.5207,5.5742,5.5717,5.5483,5.5157,5.5082,5.4931,5.4353,5.468,5.4856,5.4077,5.3926,5.4263,5.5429,5.5317,5.533,5.6085,5.6557,5.6614,5.5918,0.0,0.0,0.0,0.0,0.0,0.0,0.0,0.0,0.0,0.0,0.0,6.0801,5.942,5.8731,5.8849,5.7148,5.7255,5.9483,5.8083,5.7807,5.871,5.8359,5.8485,5.9012,5.9012,5.9307,5.9834,5.9834,5.9709,5.9483,5.9483,5.9483,5.9483,5.9483,5.9483,5.9483,5.9483,5.9483,5.9483,5.9219,5.9306,5.9219,5.89,5.8726,5.8581,5.8581,5.8755,5.8697,5.8261,5.8232,5.8277,5.8305,5.7686,5.7269,5.7269,5.5726,5.4564,5.4151,5.3324,5.2165,5.0617,5.1355,5.1197,4.9857,5.0201,5.0695,5.1289,5.236,5.3013,5.3206,5.3934,5.4361,5.4572,5.3808,5.313,5.2561,5.2812,5.3088,5.3389,5.3389,5.3632,5.3959,5.3959,5.3959,5.4052,5.4647,5.4848,5.4873,5.5006,5.5056,5.5006,5.4697,5.4597,5.4723,5.5232,5.5491,5.5742,5.6276,5.6426,5.6351,5.5968,5.5742,5.5491,5.4956,5.5257,5.5516,5.5157,5.4823,5.4773,5.5308,5.5624,5.5767,5.5606,5.6385,5.6725,5.5861,5.6743,0.0,0.0,0.0,0.0,5.8166,5.9277,0.0,0.0,0.0,0.0,6.0877,6.0036,5.9414,5.905,5.733,5.7355,5.9257,5.7757,5.7387,5.8208,5.8001,5.8102,5.8485,5.8786,5.9137,5.9483,5.9483,5.9483,5.9483,5.9483,5.9483,5.9483,5.9483,5.9483,5.9483,5.9483,5.9483,5.9483,5.9306,5.9306,5.948,6.0061,5.9684,5.9306,5.9306,5.98,5.9658,5.8198,5.8076,5.8156,5.8292,5.7645,5.7195,5.7195,5.475,5.3227,5.3217,5.2024,5.1046,5.0435,5.0435,5.0419,5.0402,5.0402,5.0695,5.1289,5.236,5.123,4.8033,4.9138,5.144,5.4547,5.3432,5.3188,5.3658,5.3113,5.3557,5.4572,5.4572,5.4572,5.4597,5.4597,5.4597,5.4672,5.5207,5.5408,5.5465,5.6018,5.6175,5.5993,5.4931,5.4597,5.4723,5.5232,5.5767,5.6301,5.6835,5.6985,5.6985,5.6985,5.6577,5.6068,5.5491,5.5817,5.6175,5.6175,5.5333,5.4773,5.5308,5.5408,5.5534,5.5928,5.6114,5.629,5.6461,5.712,0.0,5.951,6.0657,6.0972,6.0062,6.1316,0.0,0.0,0.0,6.0075,5.8346,5.9494,5.9503,5.797,5.733,5.7537,5.871,5.7562,5.701,5.7035,5.7606,5.7901,5.7951,5.9006,5.9483,5.9483,5.9483,5.9483,5.9483,5.9483,5.9483,5.9483,5.9483,5.9483,5.9483,5.9483,5.9483,5.9483,6.0584,6.0235,5.9974,6.0177,5.9575,5.9096,5.9096,5.9151,5.8999,5.8547,5.7786,5.7468,5.7965,5.667,5.5763,5.5763,5.4192,5.3204,5.3204,5.2,5.1214,5.1021,5.1373,5.1398,5.1021,5.1373,5.1473,5.1289,5.236,5.2536,5.1875,5.2226,5.2779,5.3457,5.3439,5.3557,5.3708,5.3976,5.4687,5.5641,5.5308,5.5566,5.62,5.5842,5.5691,5.5717,5.5892,5.5942,5.5968,5.6125,5.62,5.62,5.6226,5.5993,5.5792,5.6326,5.6602,5.6878,5.7455,5.7606,5.7606,5.7606,5.7179,5.6684,5.6527,5.6326,5.62,5.62,5.5942,5.5742,5.5917,5.5641,5.557,5.6056,5.5882,5.5807,5.6244,5.6499,5.6946,5.7742,5.8178,5.8274,5.7967,5.933,6.0049,5.9623,6.1408,6.2145,6.1316,5.9833,5.9186,5.9533,5.7531,5.7179,5.8685,5.7204,5.6853,5.7625,5.7801,5.8278,5.9006,5.9332,5.9483,5.9483,5.9483,5.9483,5.9483,5.9483,5.9483,5.9483,5.9483,5.9483,5.9483,5.9483,5.9483,5.9483,6.1483,6.0742,6.0176,6.0421,5.9589,5.8879,5.8879,5.8784,5.8583,5.8287,5.7401,5.6811,5.6959,5.5515,5.4725,5.5018,5.3847,5.3093,5.3093,5.2345,5.18,5.1599,5.1925,5.195,5.1615,5.1925,5.2126,5.2218,5.3105,5.3708,5.4052,5.4052,5.3876,5.3557,5.3884,5.4135,5.4386,5.4956,5.5691,5.6502,5.6369,5.6746,5.7305,5.6972,5.6721,5.6527,5.6771,5.6677,5.6527,5.6753,5.6846,5.6897,5.723,5.7104,5.6903,5.723,5.7481,5.7732,5.8102,5.8183,5.8183,5.8183,5.7757,5.728,5.7035,5.6734,5.6451,5.6226,5.62,5.62,5.62,5.5942,5.5892,5.6401,5.62,5.61,5.6451,5.6721,5.7103,5.7824,5.7874,5.7856,5.79,5.8573,5.8768,5.8169,5.97,6.0627,6.0539,6.0061,5.9465,5.878,5.728,5.6903,5.7757,5.6728,5.6652,5.7556,5.8001,5.8654,5.9483,5.9483,5.9483,5.9483,5.9483,5.9483,5.9483,5.9483,5.9483,5.9483,5.9483,5.9483,5.9483,5.9483,5.9483,5.9483,6.1775,6.0765,6.0018,6.0642,5.9567,5.8633,5.8633,5.8577,5.8263,5.7503,5.6912,5.6304,5.5552,5.4511,5.4188,5.4944,5.375,5.2937,5.2895,5.292,5.2711,5.2176,5.2176,5.2176,5.2176,5.2176,5.2653,5.3658,5.4228,5.4547,5.4547,5.4572,5.4647,5.4723,5.4723,5.5031,5.5609,5.6118,5.6627,5.7161,5.7732,5.7976,5.8001,5.7976,5.7606,5.7204,5.7725,5.7531,5.7154,5.7725,5.7901,5.7901,5.7951,5.7951,5.7951,5.7951,5.8328,5.871,5.8736,5.8761,5.8761,5.8761,5.8334,5.7801,5.7204,5.706,5.6928,5.6426,5.6276,5.6251,5.6251,5.6244,5.6351,5.686,5.6985,5.6985,5.6985,5.7506,5.8246,5.9192,5.9237,5.9192,5.923,5.8748,5.7827,5.6488,5.6326,5.6552,5.7085,5.9964,5.9971,5.6369,5.6684,5.6684,5.62,5.6226,5.6552,5.7136,5.8234,5.9012,5.9483,5.9483,5.9483,5.9483,5.9483,5.9483,5.9483,5.9483,5.9483,5.9483,5.9483,5.9483,5.9483,5.9483,5.9483,5.9483,5.9782,5.921,5.9019,5.9172,5.8435,5.7779,5.7779,5.7212,5.6719,5.6529,5.6374,5.6222,5.6029,5.5767,5.5534,5.5335,5.4219,5.3339,5.2937,5.3289,5.3264,5.2737,5.2711,5.2711,5.2711,5.2711,5.2837,5.3088,5.3632,5.3909,5.3909,5.4378,5.5031,5.5817,5.5817,5.6369,5.7323,5.7449,5.7826,5.8309,5.8459,5.8755,5.9081,5.866,5.8409,5.8259,5.8001,5.7801,5.7725,5.7851,5.7901,5.7976,5.8384,5.851,5.851,5.851,5.8604,5.8799,5.9207,5.9307,5.9307,5.9307,5.8905,5.8359,5.7807,5.77,5.765,5.7524,5.7129,5.6809,5.6809,5.6477,5.6226,5.6376,5.6734,5.6985,5.6985,5.7506,5.7989,5.8228,5.8228,5.8051,5.7605,5.7429,5.7549,5.8058,5.7732,5.7732,5.8284,5.8649,5.8215,5.6835,5.6552,5.6326,5.62,5.6602,5.7311,5.8309,5.9006,5.9382,5.9483,5.9483,5.9483,5.9483,5.9483,5.9483,5.9483,5.9483,5.9483,5.9483,5.9483,5.9483,5.9483,5.9483,5.9483,5.9483,5.9259,5.857,5.8236,5.8503,5.7634,5.6979,5.7236,5.6862,5.6652,5.6947,5.6972,5.6972,5.6972,5.6728,5.6451,5.615,5.5114,5.426,5.3708,5.3934,5.3976,5.3683,5.3683,5.3683,5.3683,5.3683,5.3808,5.4042,5.482,5.5071,5.4863,5.5709,5.6269,5.6577,5.6853,5.7323,5.7926,5.8177,5.8434,5.871,5.8961,5.9257,5.9458,5.9182,5.8911,5.8685,5.8654,5.8478,5.8284,5.8554,5.8629,5.8679,5.8961,5.9081,5.9081,5.9081,5.9056,5.9125,5.9408,5.9483,5.9483,5.9483,5.9282,5.893,5.8403,5.8278,5.8202,5.7951,5.765,5.7405,5.7405,5.6953,5.6652,5.6947,5.7004,5.6985,5.6985,5.728,5.7405,5.7148,5.7123,5.6979,5.6677,5.6627,5.6903,5.7506,5.7298,5.7248,5.7531,5.7298,5.6953,5.6652,5.6351,5.6326,5.6552,5.7361,5.8108,5.871,5.9257,5.9483,5.9483,5.9483,5.9483,5.9483,5.9483,5.9483,5.9483,5.9483,5.9483,5.9483,5.9483,5.9483,5.9483,5.9483,5.9483,5.9483,5.9012,5.8192,5.7595,5.8098,5.7226,5.6602,5.7079,5.7154,5.733,5.7826,5.7976,5.8027,5.8027,5.7631,5.7336,5.7261,5.6401,5.5609,5.4898,5.4906,5.4898,5.4723,5.4723,5.4672,5.4597,5.4597,5.4805,5.5282,5.6276,5.6527,5.61,5.7248,5.7531,5.7161,5.7775,5.8077,5.8177,5.8629,5.8811,5.8861,5.9307,5.9483,5.9483,5.9483,5.9232,5.8886,5.9332,5.9207,5.8886,5.9357,5.9483,5.9483,5.9483,5.9483,5.9483,5.9483,5.9483,5.9483,5.9483,5.9483,5.9483,5.9483,5.9483,5.9382,5.8911,5.8811,5.8685,5.8227,5.8077,5.8027,5.8027,5.7531,5.7405,5.8252,5.7757,5.7336,5.7606,5.7412,5.701,5.6401,5.6326,5.6276,5.62,5.62,5.62,5.62,5.62,5.62,5.62,5.6276,5.6326,5.6326,5.6326,5.6627,5.7236,5.8234,5.8736,5.8836,5.9282,5.9483,5.9483,5.9483,5.9483,5.9483,5.9483,5.9483,5.9483,5.9483,5.9483,5.9483,5.9483,5.9483,5.9483,5.9483,5.9483,5.9483,5.6959,5.6913,5.7109,5.7204,5.7447,5.765,5.775,5.775,5.7801,5.7901,5.8284,5.8585,5.8585,5.8905,5.893,5.8485,5.8284,5.7531,5.6068,5.6376,5.6226,5.5308,5.5282,5.5056,5.4622,5.4597,5.4647,5.4705,5.5358,5.5591,5.5559,5.6627,5.7355,5.7775,5.8334,5.883,5.9257,5.9332,5.9382,5.9382,5.9458,5.9483,5.9483,5.9483,5.9433,5.9382,5.9458,5.9433,5.9382,5.9458,5.9483,5.9483,5.9483,5.9483,5.9483,5.9483,5.9483,5.9483,5.9483,5.9483,5.9483,5.9483,5.9483,5.9483,5.9382,5.9382,5.9357,5.9257,5.8905,5.8579,5.8573,5.8127,5.8403,6.0381,5.9433,5.8936,6.0337,5.9313,5.8058,5.6985,5.6878,5.6702,5.6226,5.62,5.62,5.62,5.62,5.62,5.62,5.6627,5.6878,5.6878,5.6878,5.7361,5.8434,5.861,5.8936,5.9382,5.9458,5.9483,5.9483,5.9483,5.9483,5.9483,5.9483,5.9483,5.9483,5.9483,5.9483,5.9483,5.9483,5.9483,5.9483,5.9483,5.9483,5.9483,5.7177,5.7305,5.7481,5.7481,5.7725,5.8001,5.8303,5.8334,5.8434,5.873,5.8981,5.9131,5.9131,5.9357,5.9408,5.9156,5.8861,5.8384,5.7606,5.7186,5.6928,5.6746,5.6143,5.5717,5.5483,5.6061,5.6086,5.544,5.6319,5.642,5.5867,5.6972,5.7631,5.7926,5.8459,5.8987,5.9483,5.9483,5.9483,5.9483,5.9483,5.9483,5.9483,5.9483,5.9483,5.9483,5.9483,5.9483,5.9483,5.9483,5.9483,5.9483,5.9483,5.9483,5.9483,5.9483,5.9483,5.9483,5.9483,5.9483,5.9483,5.9483,5.9483,5.9483,5.9483,5.9483,5.9483,5.9483,5.9307,5.9131,5.9125,5.8704,5.8679,5.9684,5.8956,5.8554,5.9307,5.8755,5.8058,5.7531,5.7481,5.738,5.7148,5.7123,5.7123,5.7123,5.7123,5.7123,5.7123,5.7355,5.7481,5.7481,5.7782,5.8183,5.8685,5.9006,5.9257,5.9483,5.9483,5.9483,5.9483,5.9483,5.9483,5.9483,5.9483,5.9483,5.9483,5.9483,5.9483,5.9483,5.9483,5.9483,5.9483,5.9483,5.9483,5.9483,5.7801,5.8001,5.8077,5.8102,5.8202,5.8403,5.8811,5.8886,5.9037,5.9433,5.9483,5.9483,5.9483,5.9483,5.9483,5.9483,5.9112,5.8886,5.8886,5.7957,5.7462,5.7681,5.6853,5.6326,5.62,5.7198,5.7255,5.6376,5.7255,5.7305,5.662,5.7625,5.8102,5.8102,5.8635,5.9112,5.9483,5.9483,5.9483,5.9483,5.9483,5.9483,5.9483,5.9483,5.9483,5.9483,5.9483,5.9483,5.9483,5.9483,5.9483,5.9483,5.9483,5.9483,5.9483,5.9483,5.9408,5.9332,5.9458,5.9483,5.9483,5.9483,5.9408,5.9307,5.9307,5.9307,5.9307,5.9307,5.9408,5.9483,5.9483,5.9156,5.9037,5.9564,5.888,5.8403,5.8805,5.8403,5.8052,5.7901,5.7901,5.7901,5.7901,5.7901,5.7901,5.7901,5.7901,5.7901,5.7901,5.8027,5.8152,5.8278,5.8535,5.8761,5.8886,5.9307,5.9483,5.9483,5.9483,5.9483,5.9483,5.9483,5.9483,5.9483,5.9483,5.9483,5.9483,5.9483,5.9483,5.9483,5.9483,5.9483,5.9483,5.9483,5.9483,5.9483,5.7901,5.8297,5.8648,5.8635,5.9056,5.9382,5.9433,5.9433,5.9458,5.9483,5.9483,5.9483,5.9483,5.9483,5.9483,5.9483,5.9458,5.9433,5.9433,5.8886,5.8133,5.7111,5.6985,5.6728,5.62,5.6778,5.7035,5.6935,5.7035,5.7305,5.7801,5.8359,5.8635,5.866,5.9207,5.9458,5.9483,5.9483,5.9483,5.9483,5.9483,5.9483,5.9483,5.9483,5.9483,5.9483,5.9483,5.9483,5.9483,5.9483,5.9483,5.9483,5.9483,5.9483,5.9483,5.9483,5.9156,5.8861,5.9357,5.9483,5.9483,5.9483,5.9131,5.8761,5.8761,5.8761,5.8761,5.8761,5.9156,5.9483,5.9483,5.9458,6.0111,6.2174,6.0763,5.991,6.1492,5.9915,5.8459,5.7951,5.7901,5.7901,5.7901,5.7901,5.7901,5.7901,5.7901,5.7901,5.7901,5.8359,5.8861,5.9357,5.8936,5.8936,5.9433,5.9483,5.9483,5.9483,5.9483,5.9483,5.9483,5.9483,5.9483,5.9483,5.9483,5.9483,5.9483,5.9483,5.9483,5.9483,5.9483,5.9483,5.9483,5.9483,5.9483,5.9483,5.883,5.9075,5.9201,5.9207,5.9357,5.9483,5.9483,5.9483,5.9483,5.9483,5.9483,5.9483,5.9483,5.9483,5.9483,5.9483,5.9207,5.8987,5.8987,5.8158,5.7631,5.7556,5.7556,5.728,5.6702,5.7606,5.7706,5.6985,5.738,5.7675,5.7901,5.7732,5.8033,5.871,5.8911,5.9207,5.9483,5.9483,5.9483,5.9483,5.9483,5.9483,5.9483,5.9483,5.9483,5.9483,5.9483,5.9483,5.9483,5.9483,5.9483,5.9483,5.9483,5.9483,5.9433,5.9106,5.8861,5.866,5.8554,5.8504,5.8504,5.8504,5.8353,5.8284,5.8635,5.871,5.8786,5.9131,5.9357,5.9483,5.9483,5.9483,5.9784,6.0613,6.0035,5.9709,6.0362,5.9734,5.9131,5.8905,5.888,5.888,5.888,5.888,5.888,5.888,5.888,5.888,5.888,5.9081,5.9282,5.9483,5.9307,5.9307,5.9483,5.9483,5.9483,5.9483,5.9483,5.9483,5.9483,5.9483,5.9483,5.9483,5.9483,5.9483,5.9483,5.9483,5.9483,5.9483,5.9483,5.9483,5.9483,5.9483,5.9483,5.9483,5.9433,5.9483,5.9483,5.9483,5.9483,5.9483,5.9483,5.9483,5.9483,5.9483,5.9483,5.9483,5.9483,5.9483,5.9483,5.9483,5.9156,5.8886,5.871,5.7612,5.7104,5.7349,5.7876,5.7782,5.701,5.8133,5.8334,5.7537,5.7932,5.8252,5.8403,5.7983,5.8208,5.8936,5.8936,5.9156,5.9483,5.9483,5.9483,5.9483,5.9483,5.9483,5.9483,5.9483,5.9483,5.9483,5.9483,5.9483,5.9483,5.9483,5.9483,5.9483,5.9483,5.9382,5.9182,5.8811,5.8459,5.8083,5.7706,5.7499,5.7449,5.7801,5.775,5.7706,5.8083,5.8309,5.8535,5.893,5.9257,5.9483,5.9483,5.9483,5.9483,5.9483,5.9483,5.9483,5.9483,5.9483,5.9483,5.9483,5.9483,5.9483,5.9483,5.9483,5.9483,5.9483,5.9483,5.9483,5.9483,5.9483,5.9483,5.9483,5.9483,5.9483,5.9483,5.9483,5.9483,5.9483,5.9483,5.9483,5.9483,5.9483,5.9483,5.9483,5.9483,5.9483,5.9483,5.9483,5.9483,5.9483,5.9483,5.9483,5.9483,5.9483,5.9483,5.9483,5.9483,5.9483,5.9483,5.9483,5.9483,5.9483,5.9483,5.9483,5.9483,5.9483,5.9483,5.9483,5.9483,5.9483,5.9483,5.9483,5.9483,5.9282,5.8736,5.7656,5.6778,5.6226,5.7807,5.8139,5.7035,5.8133,5.871,5.871,5.871,5.8961,5.9483,5.9483,5.9483,5.9483,5.9483,5.9483,5.9483,5.9483,5.9483,5.9483,5.9483,5.9483,5.9483,5.9483,5.9483,5.9483,5.9483,5.9483,5.9483,5.9483,5.9483,5.9483,5.9483,5.9112,5.871,5.871,5.7888,5.701,5.6985,5.6602,5.6451,5.76,5.743,5.6985,5.701,5.7481,5.7901,5.7901,5.8755,5.9483,5.9483,5.9483,5.9483,5.9483,5.9483,5.9483,5.9483,5.9483,5.9483,5.9483,5.9483,5.9483,5.9483,5.9483,5.9483,5.9483,5.9483,5.9483,5.9483,5.9483,5.9483,5.9483,5.9483,5.9483,5.9483,5.9483,5.9483,5.9483,5.9483,5.9483,5.9483,5.9483,5.9483,5.9483,5.9483,5.9483,5.9483,5.9483,5.9483,5.9483,5.9483,5.9483,5.9483,5.9483,5.9483,5.9483,5.9483,5.9483,5.9483,5.9483,5.9483,5.9483,5.9483,5.9483,5.9483,5.9483,5.9483,5.9483,5.9483,5.9483,5.9483,5.9483,5.9483,5.9282,5.8736,5.8736,5.8353,5.7424,5.7481,5.7713,5.8183,5.8535,5.871,5.871,5.871,5.8961,5.9483,5.9112,5.9156,5.9483,5.9483,5.9483,5.9483,5.9483,5.9483,5.9483,5.9483,5.9483,5.9483,5.9483,5.9483,5.9483,5.9483,5.9483,5.9483,5.9483,5.9483,5.9483,5.9483,5.9382,5.9106,5.8353,5.7901,5.7455,5.6652,5.6326,5.6376,5.7104,5.7136,5.7211,5.8008,5.8033,5.8102,5.8855,5.8981,5.9037,5.9433,5.9483,5.9483,5.9483,5.9483,5.9483,5.9483,5.9483,5.9483,5.9483,5.9483,5.9483,5.9483,5.9483,5.9483,5.9483,5.9483,5.9483,5.9483,5.9483,5.9483,5.9483,5.9483,5.9483,5.9483,5.9483,5.9483,5.9483,5.9483,5.9483,5.9483,5.9483,5.9483,5.9483,5.9483,5.9483,5.9483,5.9483,5.9483,5.9483,5.9483,5.9483,5.9483,5.9483,5.9483,5.9483,5.9483,5.9483,5.9483,5.9483,5.9483,5.9483,5.9483,5.9483,5.9483,5.9483,5.9483,5.9483,5.9483,5.9483,5.9483,5.9483,5.9307,5.9156,5.9012,5.893,5.8755,5.8529,5.7983,5.7989,5.8685,5.8911,5.9012,5.9012,5.9012,5.9182,5.9483,5.9182,5.9207,5.9483,5.9483,5.9483,5.9483,5.9483,5.9483,5.9483,5.9483,5.9483,5.9483,5.9483,5.9483,5.9483,5.9483,5.9483,5.9483,5.9483,5.9483,5.9483,5.9483,5.9357,5.9056,5.8403,5.8077,5.775,5.7072,5.6872,5.7004,5.7556,5.7336,5.7236,5.8158,5.8284,5.8403,5.9056,5.9106,5.9131,5.9433,5.9483,5.9483,5.9483,5.9483,5.9483,5.9483,5.9483,5.9483,5.9483,5.9483,5.9483,5.9483,5.9483,5.9483,5.9483,5.9483,5.9483,5.9483,5.9483,5.9483,5.9483,5.9483,5.9483,5.9483,5.9483,5.9483,5.9483,5.9483,5.9483,5.9483,5.9483,5.9483,5.9483,5.9483,5.9483,5.9483,5.9483,5.9483,5.9483,5.9483,5.9483,5.9483,5.9483,5.9483,5.9483,5.9483,5.9483,5.9483,5.9483,5.9483,5.9483,5.9483,5.9483,5.9483,5.9483,5.9483,5.9483,5.9483,5.9483,5.9483,5.9483,5.9037,5.8961,5.9458,5.8579,5.8478,5.9458,5.9012,5.8761,5.8761,5.9257,5.9483,5.9483,5.9483,5.9483,5.9483,5.9483,5.9483,5.9483,5.9483,5.9483,5.9483,5.9483,5.9483,5.9483,5.9483,5.9483,5.9483,5.9483,5.9483,5.9483,5.9483,5.9483,5.9483,5.9483,5.9483,5.9483,5.9483,5.9156,5.8761,5.871,5.8334,5.7951,5.7901,5.7901,5.8027,5.856,5.7932,5.7305,5.7901,5.8353,5.866,5.8761,5.9131,5.9433,5.9483,5.9483,5.9483,5.9483,5.9483,5.9483,5.9483,5.9483,5.9483,5.9483,5.9483,5.9483,5.9483,5.9483,5.9483,5.9483,5.9483,5.9483,5.9483,5.9483,5.9483,5.9483,5.9483,5.9483,5.9483,5.9483,5.9483,5.9483,5.9483,5.9483,5.9483,5.9483,5.9483,5.9483,5.9483,5.9483,5.9483,5.9483,5.9483,5.9483,5.9483,5.9483,5.9483,5.9483,5.9483,5.9483,5.9483,5.9483,5.9483,5.9483,5.9483,5.9483,5.9483,5.9483,5.9483,5.9483,5.9483,5.9483,5.9483,5.9483,5.9483,5.9483,5.9382,5.9382,5.9483,5.9282,5.9257,5.9483,5.9382,5.9332,5.9332,5.9433,5.9483,5.9483,5.9483,5.9483,5.9483,5.9483,5.9483,5.9483,5.9483,5.9483,5.9483,5.9483,5.9483,5.9483,5.9483,5.9483,5.9483,5.9483,5.9483,5.9483,5.9483,5.9483,5.9483,5.9483,5.9483,5.9483,5.9483,5.9408,5.9257,5.8811,5.861,5.8434,5.8001,5.7901,5.8027,5.856,5.851,5.8485,5.9031,5.8604,5.8303,5.9156,5.9062,5.8987,5.9408,5.9483,5.9483,5.9483,5.9483,5.9483,5.9483,5.9483,5.9483,5.9483,5.9483,5.9483,5.9483,5.9483,5.9483,5.9483,5.9483,5.9483,5.9483,5.9483,5.9483,5.9483,5.9483,5.9483,5.9483,5.9483,5.9483,5.9483,5.9483,5.9483,5.9483,5.9483,5.9483,5.9483,5.9483,5.9483,5.9483,5.9483,5.9483,5.9483,5.9483,5.9483,5.9483,5.9483,5.9483,5.9483,5.9483,5.9483,5.9483,5.9483,5.9483,5.9483,5.9483,5.9483,5.9483,5.9483,5.9483,5.9483,5.9483,5.9483,5.9483,5.9483,5.9483,5.9483,5.9483,5.9483,5.9483,5.9483,5.9483,5.9483,5.9483,5.9483,5.9483,5.9483,5.9483,5.9483,5.9483,5.9483,5.9483,5.9483,5.9483,5.9483,5.9483,5.9483,5.9483,5.9483,5.9483,5.9483,5.9483,5.9483,5.9483,5.9483,5.9483,5.9483,5.9483,5.9483,5.9483,5.9483,5.9483,5.9483,5.9433,5.9156,5.9062,5.9031,5.873,5.8654,5.873,5.9006,5.8886,5.8836,5.9382,5.9056,5.883,5.9382,5.9282,5.9182,5.9433,5.9483,5.9483,5.9483,5.9483,5.9483,5.9483,5.9483,5.9483,5.9483,5.9483,5.9483,5.9483,5.9483,5.9483,5.9483,5.9483,5.9483,5.9483,5.9483,5.9483,5.9483,5.9483,5.9483,5.9483,5.9483,5.9483,5.9483,5.9483,5.9483,5.9483,5.9483,5.9483,5.9483,5.9483,5.9483,5.9483,5.9483,5.9483,5.9483,5.9483,5.9483,5.9483,5.9483,5.9483,5.9483,5.9483,5.9483,5.9483,5.9483,5.9483,5.9483,5.9483,5.9483,5.9483,5.9483,5.9483,5.9483,5.9483,5.9483,5.9483,5.9483,5.9483,5.9483,5.9483,5.9483,5.9483,5.9483,5.9483,5.9483,5.9483,5.9483,5.9483,5.9483,5.9483,5.9483,5.9483,5.9483,5.9483,5.9483,5.9483,5.9483,5.9483,5.9483,5.9483,5.9483,5.9483,5.9483,5.9483,5.9483,5.9483,5.9483,5.9483,5.9483,5.9483,5.9483,5.9483,5.9483,5.9483,5.9483,5.9483,5.9483,5.9483,5.9483,5.9483,5.9483,5.9483,5.9483,5.9182,5.8936,5.9408,5.9433,5.9382,5.9483,5.9483,5.9483,5.9483,5.9483,5.9483,5.9483,5.9483,5.9483,5.9483,5.9483,5.9483,5.9483,5.9483,5.9483,5.9483,5.9483,5.9483,5.9483,5.9483,5.9483,5.9483,5.9483,5.9483,5.9483,5.9483,5.9483,5.9483,5.9483,5.9483,5.9483,5.9483,5.9483,5.9483,5.9483,5.9483,5.9483,5.9483,5.9483,5.9483,5.9483,5.9483,5.9483,5.9483,5.9483,5.9483,5.9483,5.9483,5.9483,5.9483,5.9483,5.9483,5.9483,5.9483,5.9483,5.9483,5.9483,5.9483,5.9483,5.9483,5.9483,5.9483,5.9483,5.9483,5.9483,5.9483,5.9483,5.9483,5.9483,5.9483,5.9483,5.9483,5.9483,5.9483,5.9483,5.9483,5.9483,5.9483,5.9483,5.9483,5.9483,5.9483,5.9483,5.9483,5.9483,5.9483,5.9483,5.9483,5.9483,5.9483,5.9483,5.9483,5.9483,5.9483,5.9483,5.9483,5.9483,5.9483,5.9483,5.9483,5.9483,5.9483,5.9483,5.9483,5.9483,5.9483,5.9483,5.9483,5.9483,5.9483,5.9483,5.9433,5.9408,5.9483,5.9137,5.8936,5.9408,5.9483,5.9483,5.9483,5.9483,5.9483,5.9483,5.9483,5.9483,5.9483,5.9483,5.9483,5.9483,5.9483,5.9483,5.9483,5.9483,5.9483,5.9483,5.9483,5.9483,5.9483,5.9483,5.9483,5.9483,5.9483,5.9483,5.9483,5.9483,5.9483,5.9483,5.9483,5.9483,5.9483,5.9483,5.9483,5.9483,5.9483,5.9483,5.9483,5.9483,5.9483,5.9483,5.9483,5.9483,5.9483,5.9483,5.9483,5.9483,5.9483,5.9483,5.9483,5.9483,5.9483,5.9483,5.9483,5.9483,5.9483,5.9483,5.9483,5.9483,5.9483,5.9483,5.9483,5.9483,5.9483,5.9483,5.9483,5.9483,5.9483,5.9483,5.9483,5.9483,5.9483,5.9483,5.9483,5.9483,5.9483,5.9483,5.9483,5.9483,5.9483,5.9483,5.9483,5.9483,5.9483,5.9483,5.9483,5.9483,5.9483,5.9483,5.9483,5.9483,5.9483,5.9483,5.9483,5.9483,5.9483,5.9483,5.9483,5.9483,5.9483,5.9483,5.9483,5.9483,5.9483,5.9483,5.9483,5.9483,5.9483,5.9483,5.9483,5.9483,5.9483,5.9307,5.9207,5.9458,5.9483,5.9483,5.9483,5.9483,5.9483,5.9483,5.9483,5.9483,5.9483,5.9483,5.9483,5.9483,5.9483,5.9483,5.9483,5.9483,5.9483,5.9483,5.9483,5.9483,5.9483,5.9483,5.9483,5.9483,5.9483,5.9483,5.9483,5.9483,5.9483,5.9483,5.9483,5.9483,5.9483,5.9483,5.9483,5.9483,5.9483,5.9483,5.9483,5.9483,5.9483,5.9483,5.9483,5.9483,5.9483,5.9483,5.9483,5.9483]},{"header":{"parameterUnit":"m.s-1","parameterCategory":1,"la1":30.6,"la2":28.766,"lo1":-90.7593,"lo2":-88.6598,"dx":0.0162,"dy":0.0183,"nx":116,"ny":114,"refTime":"2022-11-17T18:00:00:Z","depth":0,"parameterNumber":3,"parameterNumberName":"V-component_of_WINDS"},"data":[0.0,0.0,0.0,0.0,0.0,0.0,0.0,0.0,0.0,0.0,0.0,0.0,0.0,0.0,0.0,0.0,0.0,0.0,0.0,0.0,0.0,0.0,0.0,0.0,0.0,0.0,0.0,0.0,0.0,0.0,0.0,0.0,0.0,0.0,0.0,0.0,0.0,0.0,0.0,0.0,0.0,0.0,0.0,0.0,0.0,0.0,0.0,0.0,0.0,0.0,0.0,0.0,0.0,0.0,0.0,0.0,0.0,0.0,0.0,0.0,0.0,0.0,0.0,0.0,0.0,0.0,0.0,0.0,0.0,0.0,0.0,0.0,0.0,0.0,0.0,0.0,0.0,0.0,0.0,0.0,0.0,0.0,0.0,0.0,0.0,0.0,0.0,0.0,0.0,0.0,0.0,0.0,0.0,0.0,0.0,0.0,0.0,0.0,0.0,0.0,0.0,0.0,0.0,0.0,0.0,0.0,0.0,0.0,0.0,0.0,0.0,0.0,0.0,0.0,0.0,0.0,0.0,0.0,0.0,0.0,0.0,0.0,0.0,0.0,0.0,0.0,0.0,0.0,0.0,0.0,0.0,0.0,0.0,0.0,0.0,0.0,0.0,0.0,0.0,0.0,0.0,0.0,0.0,0.0,0.0,0.0,0.0,0.0,0.0,0.0,0.0,0.0,0.0,0.0,0.0,0.0,0.0,0.0,0.0,0.0,0.0,0.0,0.0,0.0,0.0,0.0,0.0,0.0,0.0,0.0,0.0,0.0,0.0,0.0,0.0,0.0,0.0,0.0,0.0,0.0,0.0,0.0,0.0,0.0,0.0,0.0,0.0,0.0,0.0,0.0,0.0,0.0,0.0,0.0,0.0,0.0,0.0,0.0,0.0,0.0,0.0,0.0,0.0,0.0,0.0,0.0,0.0,0.0,0.0,0.0,0.0,0.0,0.0,0.0,0.0,0.0,0.0,0.0,0.0,0.0,0.0,0.0,0.0,0.0,0.0,0.0,0.0,0.0,0.0,0.0,0.0,0.0,0.0,0.0,0.0,0.0,0.0,0.0,0.0,0.0,0.0,0.0,0.0,0.0,0.0,0.0,0.0,0.0,0.0,0.0,0.0,0.0,0.0,0.0,0.0,0.0,0.0,0.0,0.0,0.0,0.0,0.0,0.0,0.0,0.0,0.0,0.0,0.0,0.0,0.0,0.0,0.0,0.0,0.0,0.0,0.0,0.0,0.0,0.0,0.0,0.0,0.0,0.0,0.0,0.0,0.0,0.0,0.0,0.0,0.0,0.0,0.0,0.0,0.0,0.0,0.0,0.0,0.0,0.0,0.0,0.0,0.0,0.0,0.0,0.0,0.0,0.0,0.0,0.0,0.0,0.0,0.0,0.0,0.0,0.0,0.0,0.0,0.0,0.0,0.0,0.0,0.0,0.0,0.0,0.0,0.0,0.0,0.0,0.0,0.0,0.0,0.0,0.0,0.0,0.0,0.0,0.0,0.0,0.0,0.0,0.0,0.0,0.0,0.0,0.0,0.0,0.0,0.0,0.0,0.0,0.0,0.0,0.0,0.0,0.0,0.0,0.0,0.0,0.0,0.0,0.0,0.0,0.0,0.0,0.0,0.0,0.0,0.0,0.0,0.0,0.0,0.0,0.0,0.0,0.0,0.0,0.0,0.0,0.0,0.0,0.0,0.0,0.0,0.0,0.0,0.0,0.0,0.0,0.0,0.0,0.0,0.0,0.0,0.0,0.0,0.0,0.0,0.0,0.0,0.0,0.0,0.0,0.0,0.0,0.0,0.0,0.0,0.0,0.0,0.0,0.0,0.0,0.0,0.0,0.0,0.0,0.0,0.0,0.0,0.0,0.0,0.0,0.0,0.0,0.0,0.0,0.0,0.0,0.0,0.0,0.0,0.0,0.0,0.0,0.0,0.0,0.0,0.0,0.0,0.0,0.0,0.0,0.0,0.0,0.0,0.0,0.0,0.0,0.0,0.0,0.0,0.0,0.0,0.0,0.0,0.0,0.0,0.0,0.0,0.0,0.0,0.0,0.0,0.0,0.0,0.0,0.0,0.0,0.0,0.0,0.0,0.0,0.0,0.0,0.0,0.0,0.0,0.0,0.0,0.0,0.0,0.0,0.0,0.0,0.0,0.0,0.0,0.0,0.0,0.0,0.0,0.0,0.0,0.0,0.0,0.0,0.0,0.0,0.0,0.0,0.0,0.0,0.0,0.0,0.0,0.0,0.0,0.0,0.0,0.0,0.0,0.0,0.0,0.0,0.0,0.0,0.0,0.0,0.0,0.0,0.0,0.0,0.0,0.0,0.0,0.0,0.0,0.0,0.0,0.0,0.0,0.0,0.0,0.0,0.0,0.0,0.0,0.0,0.0,0.0,0.0,0.0,0.0,0.0,0.0,0.0,0.0,0.0,0.0,0.0,0.0,0.0,0.0,0.0,0.0,0.0,0.0,0.0,0.0,0.0,0.0,0.0,0.0,0.0,0.0,0.0,0.0,0.0,0.0,0.0,0.0,0.0,0.0,0.0,0.0,0.0,0.0,0.0,0.0,0.0,0.0,0.0,0.0,0.0,0.0,0.0,0.0,0.0,0.0,0.0,0.0,0.0,0.0,0.0,0.0,0.0,0.0,0.0,0.0,0.0,0.0,0.0,0.0,0.0,0.0,0.0,0.0,0.0,0.0,0.0,0.0,0.0,0.0,0.0,0.0,0.0,0.0,0.0,0.0,0.0,0.0,0.0,0.0,0.0,0.0,0.0,0.0,0.0,0.0,0.0,0.0,0.0,0.0,0.0,0.0,0.0,0.0,0.0,0.0,0.0,0.0,0.0,0.0,0.0,0.0,0.0,0.0,0.0,0.0,0.0,0.0,0.0,0.0,0.0,0.0,0.0,0.0,0.0,0.0,0.0,0.0,0.0,0.0,0.0,0.0,0.0,0.0,0.0,0.0,0.0,0.0,0.0,0.0,0.0,0.0,0.0,0.0,0.0,0.0,0.0,0.0,0.0,0.0,0.0,0.0,0.0,0.0,0.0,0.0,0.0,0.0,0.0,0.0,0.0,0.0,0.0,0.0,0.0,0.0,0.0,0.0,0.0,0.0,0.0,0.0,0.0,0.0,0.0,0.0,0.0,0.0,0.0,0.0,0.0,0.0,0.0,0.0,0.0,0.0,0.0,0.0,0.0,0.0,0.0,0.0,0.0,0.0,0.0,0.0,0.0,0.0,0.0,0.0,0.0,0.0,0.0,0.0,0.0,0.0,0.0,0.0,0.0,0.0,0.0,0.0,0.0,0.0,0.0,0.0,0.0,0.0,0.0,0.0,0.0,0.0,0.0,0.0,0.0,0.0,0.0,0.0,0.0,0.0,0.0,0.0,0.0,0.0,0.0,0.0,0.0,0.0,0.0,0.0,0.0,0.0,0.0,0.0,0.0,0.0,0.0,0.0,0.0,0.0,0.0,0.0,0.0,0.0,0.0,0.0,0.0,0.0,0.0,0.0,0.0,0.0,0.0,0.0,0.0,0.0,0.0,0.0,0.0,0.0,0.0,0.0,0.0,0.0,0.0,0.0,0.0,0.0,0.0,0.0,0.0,0.0,0.0,0.0,0.0,0.0,0.0,0.0,0.0,0.0,0.0,0.0,0.0,0.0,0.0,0.0,0.0,0.0,0.0,0.0,0.0,0.0,0.0,0.0,0.0,0.0,0.0,0.0,0.0,0.0,0.0,0.0,0.0,0.0,0.0,0.0,0.0,0.0,0.0,0.0,0.0,0.0,0.0,0.0,0.0,0.0,0.0,0.0,0.0,0.0,0.0,0.0,0.0,0.0,0.0,0.0,0.0,0.0,0.0,0.0,0.0,0.0,0.0,0.0,0.0,0.0,0.0,0.0,0.0,0.0,0.0,0.0,0.0,0.0,0.0,0.0,0.0,0.0,0.0,0.0,0.0,0.0,0.0,0.0,0.0,0.0,0.0,0.0,0.0,0.0,0.0,0.0,0.0,0.0,0.0,0.0,0.0,0.0,0.0,0.0,0.0,0.0,0.0,0.0,0.0,0.0,0.0,0.0,0.0,0.0,0.0,0.0,0.0,0.0,0.0,0.0,0.0,0.0,0.0,0.0,0.0,0.0,0.0,0.0,0.0,0.0,0.0,0.0,0.0,0.0,0.0,0.0,0.0,0.0,0.0,0.0,0.0,0.0,0.0,0.0,0.0,0.0,0.0,0.0,0.0,0.0,0.0,0.0,0.0,0.0,0.0,0.0,0.0,0.0,0.0,0.0,0.0,0.0,0.0,0.0,0.0,0.0,0.0,0.0,0.0,0.0,0.0,0.0,0.0,0.0,0.0,0.0,0.0,0.0,0.0,0.0,0.0,0.0,0.0,0.0,0.0,0.0,0.0,0.0,0.0,0.0,0.0,0.0,0.0,0.0,0.0,0.0,0.0,0.0,0.0,0.0,0.0,0.0,0.0,0.0,0.0,0.0,0.0,0.0,0.0,0.0,0.0,0.0,0.0,0.0,0.0,0.0,0.0,0.0,0.0,0.0,0.0,0.0,0.0,0.0,0.0,0.0,0.0,0.0,0.0,0.0,0.0,0.0,0.0,0.0,0.0,0.0,0.0,0.0,0.0,0.0,0.0,0.0,0.0,0.0,0.0,0.0,0.0,0.0,0.0,0.0,0.0,0.0,0.0,0.0,0.0,0.0,0.0,0.0,0.0,0.0,0.0,0.0,0.0,0.0,0.0,0.0,0.0,0.0,0.0,0.0,0.0,0.0,0.0,0.0,0.0,0.0,0.0,0.0,0.0,0.0,0.0,0.0,0.0,0.0,0.0,0.0,0.0,0.0,0.0,0.0,0.0,0.0,0.0,0.0,0.0,0.0,0.0,0.0,0.0,0.0,0.0,0.0,0.0,0.0,0.0,0.0,0.0,0.0,0.0,0.0,0.0,0.0,0.0,0.0,0.0,0.0,0.0,0.0,0.0,0.0,0.0,0.0,0.0,0.0,0.0,0.0,0.0,0.0,0.0,0.0,0.0,0.0,0.0,0.0,0.0,0.0,0.0,0.0,0.0,0.0,0.0,0.0,0.0,0.0,0.0,0.0,0.0,0.0,0.0,0.0,0.0,0.0,0.0,0.0,0.0,0.0,0.0,0.0,0.0,0.0,0.0,0.0,0.0,0.0,0.0,0.0,0.0,0.0,0.0,0.0,0.0,0.0,0.0,0.0,0.0,0.0,0.0,0.0,0.0,0.0,0.0,0.0,0.0,0.0,0.0,0.0,0.0,0.0,0.0,0.0,0.0,0.0,0.0,0.0,0.0,0.0,0.0,0.0,0.0,0.0,0.0,0.0,0.0,0.0,0.0,0.0,0.0,0.0,0.0,0.0,0.0,0.0,0.0,0.0,0.0,0.0,0.0,0.0,0.0,0.0,0.0,0.0,0.0,0.0,0.0,0.0,0.0,0.0,0.0,0.0,0.0,0.0,0.0,0.0,0.0,0.0,0.0,0.0,0.0,0.0,0.0,0.0,0.0,0.0,0.0,0.0,0.0,0.0,0.0,0.0,0.0,0.0,0.0,0.0,0.0,0.0,0.0,0.0,0.0,0.0,0.0,0.0,0.0,0.0,0.0,0.0,0.0,0.0,0.0,0.0,0.0,0.0,0.0,0.0,0.0,0.0,0.0,0.0,0.0,0.0,0.0,0.0,0.0,0.0,0.0,0.0,0.0,0.0,0.0,0.0,0.0,0.0,0.0,0.0,0.0,0.0,0.0,0.0,0.0,0.0,0.0,0.0,0.0,0.0,0.0,0.0,0.0,0.0,0.0,0.0,0.0,0.0,0.0,0.0,0.0,0.0,0.0,0.0,0.0,0.0,0.0,0.0,0.0,0.0,0.0,0.0,0.0,0.0,0.0,0.0,0.0,0.0,0.0,0.0,0.0,0.0,0.0,0.0,0.0,0.0,0.0,0.0,0.0,0.0,0.0,0.0,0.0,0.0,0.0,0.0,0.0,0.0,0.0,0.0,0.0,0.0,0.0,0.0,0.0,0.0,0.0,0.0,0.0,0.0,0.0,0.0,0.0,0.0,0.0,0.0,0.0,2.2862,2.1397,0.0,0.0,0.0,0.0,0.0,0.0,0.0,0.0,0.0,0.0,0.0,0.0,0.0,0.0,0.0,0.0,0.0,0.0,0.0,0.0,0.0,0.0,0.0,1.5938,1.5979,1.5917,1.6329,0.0,0.0,0.0,0.0,0.0,0.0,0.0,1.7182,1.7474,1.7928,1.8533,1.8396,1.9008,2.0253,1.959,1.8844,1.7995,0.0,0.0,0.0,0.0,0.0,0.0,0.0,0.0,0.0,0.0,0.0,0.0,0.0,0.0,0.0,0.0,0.0,0.0,0.0,0.0,0.0,0.0,0.0,0.0,0.0,0.0,0.0,0.0,0.0,0.0,0.0,0.0,0.0,0.0,0.0,0.0,0.0,0.0,0.0,0.0,0.0,0.0,0.0,0.0,0.0,0.0,0.0,0.0,0.0,0.0,0.0,0.0,0.0,0.0,0.0,0.0,0.0,0.0,0.0,0.0,0.0,0.0,0.0,0.0,0.0,0.0,0.0,0.0,0.0,0.0,2.4512,2.3234,0.0,0.0,0.0,0.0,0.0,0.0,0.0,0.0,0.0,0.0,0.0,0.0,0.0,0.0,0.0,0.0,0.0,0.0,0.0,0.0,0.0,1.6406,1.7037,1.6958,1.6788,1.6571,1.6909,1.7007,1.6694,1.743,0.0,0.0,0.0,0.0,1.8399,1.9148,1.9895,2.0643,2.0855,2.1207,2.1758,2.2359,2.1924,2.0543,1.9077,0.0,0.0,0.0,0.0,0.0,0.0,0.0,0.0,0.0,0.0,0.0,0.0,0.0,0.0,0.0,0.0,0.0,0.0,0.0,0.0,0.0,0.0,0.0,0.0,0.0,0.0,0.0,0.0,0.0,0.0,0.0,0.0,0.0,0.0,0.0,0.0,0.0,0.0,0.0,0.0,0.0,0.0,0.0,0.0,0.0,0.0,0.0,0.0,0.0,0.0,0.0,0.0,0.0,0.0,0.0,0.0,0.0,0.0,0.0,0.0,0.0,0.0,0.0,2.7266,2.7448,2.7448,2.7448,2.7851,2.8412,2.625,2.5403,2.5446,2.4093,0.0,0.0,0.0,0.0,0.0,0.0,0.0,0.0,0.0,0.0,0.0,0.0,0.0,0.0,0.0,0.0,0.0,0.0,0.0,1.6836,1.7825,1.7929,1.8249,1.9126,1.9271,1.9447,1.9784,1.9697,0.0,0.0,0.0,2.0527,2.0741,2.0547,2.1065,2.2368,2.3702,2.4448,2.463,2.3949,2.3718,2.379,2.2033,2.0735,1.9855,0.0,0.0,0.0,0.0,0.0,0.0,0.0,0.0,0.0,0.0,0.0,0.0,0.0,0.0,0.0,0.0,0.0,0.0,0.0,0.0,0.0,0.0,0.0,0.0,0.0,0.0,0.0,0.0,0.0,0.0,0.0,0.0,0.0,0.0,0.0,0.0,0.0,0.0,0.0,0.0,0.0,2.3532,2.3586,0.0,0.0,0.0,0.0,0.0,0.0,0.0,0.0,0.0,0.0,0.0,0.0,0.0,2.7198,2.7104,2.8087,2.858,2.858,2.9037,2.9266,2.9266,2.9266,2.9324,2.9403,2.907,0.0,2.7382,2.7493,0.0,0.0,0.0,0.0,0.0,0.0,0.0,0.0,0.0,0.0,0.0,0.0,0.0,0.0,0.0,0.0,0.0,0.0,0.0,0.0,0.0,1.9518,1.9708,2.0481,2.055,2.0642,2.0848,2.0989,0.0,0.0,2.1992,2.228,2.2415,2.2554,2.2959,2.3659,2.4896,2.5534,2.5596,2.5974,2.5996,2.5668,2.5118,2.3486,2.109,2.0695,0.0,0.0,0.0,0.0,0.0,0.0,0.0,0.0,0.0,0.0,0.0,0.0,0.0,0.0,0.0,0.0,0.0,0.0,0.0,0.0,0.0,0.0,0.0,0.0,0.0,0.0,0.0,0.0,0.0,0.0,0.0,0.0,0.0,0.0,0.0,0.0,0.0,0.0,0.0,2.3052,2.3599,2.3742,2.4153,2.4059,0.0,0.0,0.0,0.0,0.0,0.0,0.0,0.0,0.0,2.8265,2.8598,2.8815,2.8853,2.9154,2.9277,2.9311,2.9909,3.021,3.0243,3.065,3.0835,3.0835,3.0835,3.0418,2.9664,2.8935,2.8574,2.8431,0.0,0.0,0.0,0.0,2.7361,2.7447,0.0,0.0,0.0,0.0,0.0,0.0,0.0,0.0,0.0,0.0,0.0,0.0,2.0915,2.0889,2.1009,2.1546,2.1592,2.163,2.176,2.2226,2.2545,2.2659,2.3531,2.3912,2.3797,2.4444,2.4904,2.5128,2.6021,2.6515,2.664,2.7459,2.7544,2.6996,2.7215,2.5631,2.2734,2.2201,2.194,2.181,0.0,0.0,0.0,0.0,0.0,0.0,0.0,0.0,0.0,0.0,0.0,0.0,0.0,0.0,0.0,0.0,0.0,0.0,0.0,0.0,0.0,0.0,0.0,0.0,0.0,0.0,0.0,0.0,0.0,0.0,0.0,0.0,0.0,0.0,0.0,0.0,0.0,2.4169,2.4661,2.4789,2.5775,2.611,0.0,0.0,0.0,0.0,0.0,0.0,2.9271,2.9343,2.9703,3.0437,3.0387,3.043,3.0578,3.043,3.0269,3.017,3.0719,3.1037,3.1171,3.1721,3.2,3.2027,3.2115,3.1969,3.1548,3.01,2.962,2.9696,2.9037,2.8906,2.9031,2.8713,2.8542,2.8573,0.0,0.0,0.0,0.0,0.0,0.0,0.0,0.0,0.0,0.0,0.0,2.0473,2.1119,2.1576,2.2034,2.2587,2.261,2.28,2.327,2.3801,2.4283,2.4733,2.5293,2.5362,2.4834,2.585,2.6621,2.7065,2.7681,2.8177,2.8543,2.7776,2.7634,2.8005,2.7579,2.6757,2.5634,2.4715,2.4339,2.4127,2.1947,0.0,0.0,0.0,0.0,0.0,0.0,0.0,0.0,0.0,0.0,0.0,0.0,0.0,0.0,0.0,0.0,0.0,0.0,0.0,0.0,0.0,0.0,0.0,0.0,0.0,0.0,0.0,0.0,0.0,0.0,0.0,0.0,0.0,0.0,0.0,0.0,0.0,0.0,2.8361,2.8566,0.0,0.0,0.0,0.0,3.0354,2.9889,2.987,3.0574,3.0614,3.0946,3.1678,3.2115,3.2295,3.2187,3.2295,3.2135,3.1698,3.1733,3.1989,3.2406,3.2441,3.2519,3.2664,3.298,3.2935,3.2559,3.1587,3.0772,3.0156,3.0117,2.9877,2.9587,2.9812,3.0181,3.058,0.0,0.0,0.0,1.3361,1.4208,1.5107,1.5823,1.7141,1.8375,1.9228,2.0245,2.1221,2.2068,2.2576,2.3072,2.3612,2.3948,2.4191,2.4356,2.5197,2.5758,2.5919,2.6394,2.6739,2.6897,2.7274,2.7861,2.8667,2.9201,2.9691,3.0181,3.0216,3.0329,3.0467,2.9942,2.9342,2.8541,2.669,2.5534,2.4792,2.3775,2.3246,0.0,0.0,0.0,0.0,0.0,0.0,0.0,0.0,0.0,0.0,0.0,0.0,0.0,0.0,0.0,0.0,0.0,0.0,0.0,0.0,0.0,0.0,0.0,0.0,0.0,0.0,0.0,0.0,0.0,0.0,0.0,0.0,0.0,0.0,0.0,0.0,0.0,3.0369,3.1412,0.0,3.1737,3.1709,3.1838,3.2115,3.2168,3.2409,3.2987,3.2799,3.2909,3.3384,3.3351,3.3432,3.3599,3.3412,3.3407,3.3543,3.3756,3.3786,3.3679,3.3889,3.3837,3.361,3.3729,3.3595,3.326,3.2922,3.2522,3.2131,3.2131,3.2031,3.1936,3.2213,3.23,3.2338,0.0,0.0,0.0,1.3772,1.4543,1.5418,1.6273,1.7595,1.8906,2.0051,2.0925,2.182,2.2823,2.3379,2.3884,2.4375,2.4719,2.504,2.5417,2.6253,2.6815,2.7009,2.73,2.7874,2.8723,2.8596,2.9171,3.0526,3.0836,3.1249,3.1777,3.195,3.2031,3.2008,3.1513,3.0972,3.0387,2.9274,2.7878,2.6412,2.5885,2.5429,2.4942,0.0,0.0,0.0,0.0,0.0,0.0,0.0,0.0,0.0,0.0,0.0,0.0,0.0,0.0,0.0,0.0,0.0,0.0,0.0,0.0,0.0,0.0,0.0,0.0,0.0,0.0,0.0,0.0,0.0,0.0,0.0,0.0,0.0,0.0,3.1843,3.3723,3.2557,3.3635,3.4338,3.3935,3.3986,3.398,3.3819,3.4251,3.4572,3.4728,3.4532,3.4577,3.4958,3.4864,3.485,3.4903,3.4687,3.466,3.4818,3.5035,3.5144,3.5144,3.5361,3.5428,3.532,3.5428,3.5186,3.4748,3.4856,3.4713,3.4329,3.3528,3.3211,3.3241,3.3505,3.349,3.337,0.0,0.0,1.3366,1.3348,1.4142,1.5217,1.6454,1.7492,1.8868,2.0917,2.1629,2.2307,2.3284,2.3884,2.4407,2.4857,2.4926,2.5404,2.6457,2.6978,2.7486,2.8045,2.8102,2.878,3.0227,2.9814,3.0583,3.2547,3.257,3.2846,3.3351,3.2846,3.2616,3.2605,3.2123,3.1606,3.1176,3.2418,3.1518,2.9172,2.829,2.7833,2.7522,0.0,0.0,0.0,0.0,0.0,0.0,0.0,0.0,0.0,0.0,0.0,0.0,0.0,0.0,0.0,0.0,0.0,0.0,0.0,0.0,0.0,0.0,0.0,0.0,0.0,0.0,0.0,0.0,0.0,0.0,0.0,0.0,0.0,3.3428,3.4042,3.4867,3.5081,3.5305,3.5494,3.562,3.5979,3.6026,3.5582,3.6105,3.6233,3.5738,3.5695,3.5883,3.6301,3.6628,3.6613,3.6231,3.6199,3.5956,3.5588,3.5542,3.6002,3.6867,3.6867,3.7163,3.772,3.8075,3.7757,3.7065,3.7377,3.7239,3.6596,3.4253,3.3306,3.3336,3.3602,3.3707,3.3751,1.3463,1.3194,1.3274,1.404,1.4636,1.5585,1.7275,1.8533,1.973,2.1025,2.1944,2.2722,2.333,2.4173,2.4765,2.488,2.561,2.6322,2.6968,2.7817,2.8667,2.9562,3.0342,3.0916,3.1294,3.1915,3.2685,3.3591,3.3981,3.4418,3.4887,3.5142,3.5248,3.5225,3.4716,3.3996,3.3201,3.3747,3.3431,3.2473,3.1214,3.01,2.9098,0.0,0.0,0.0,0.0,0.0,0.0,0.0,0.0,0.0,0.0,0.0,0.0,0.0,0.0,0.0,0.0,0.0,0.0,0.0,0.0,0.0,0.0,0.0,0.0,0.0,0.0,0.0,0.0,0.0,0.0,0.0,3.814,3.8228,3.5852,3.7788,3.8975,3.7704,3.8343,3.8738,3.8246,3.8641,3.886,3.8761,3.9287,3.912,3.7991,3.7912,3.7525,3.6692,3.6756,3.7548,3.9137,3.8131,3.8404,3.9967,3.8879,3.8323,3.8261,3.8261,3.8187,3.8075,3.8175,3.8059,3.7889,3.7988,3.7939,3.7678,3.6339,3.5807,3.5823,3.5902,3.5913,3.5928,1.3463,1.3121,1.319,1.4128,1.4731,1.5741,1.7694,1.8961,2.022,2.163,2.2343,2.2969,2.3654,2.4434,2.4994,2.5224,2.6198,2.7093,2.7784,2.8988,3.0021,3.079,3.1651,3.2271,3.266,3.3269,3.4027,3.4959,3.528,3.5772,3.6461,3.6553,3.6599,3.6589,3.6452,3.5927,3.5222,3.6081,3.6061,3.5397,3.4911,3.3598,3.1879,3.1018,3.0303,2.9632,2.8589,2.8016,2.7617,2.6653,0.0,0.0,0.0,0.0,0.0,0.0,0.0,0.0,0.0,0.0,0.0,0.0,0.0,0.0,0.0,0.0,0.0,0.0,0.0,0.0,0.0,0.0,0.0,0.0,4.0149,4.0378,3.9361,4.0635,4.1351,4.0486,4.0736,4.0789,4.0385,4.0833,4.1051,4.0746,4.1526,4.1615,4.0706,4.0627,4.0462,4.0111,3.9483,4.0222,4.2452,4.1012,4.0976,4.2313,4.146,4.0556,3.9685,3.9685,3.9558,3.9326,3.9326,3.9223,3.904,3.904,3.904,3.8937,0.0,0.0,0.0,0.0,3.7384,3.7384,1.3408,1.3095,1.3131,1.3877,1.4597,1.5791,1.7837,1.9048,2.0419,2.2434,2.2702,2.3084,2.4085,2.4673,2.5169,2.566,2.6683,2.7715,2.8723,3.0113,3.1145,3.1672,3.2282,3.3052,3.4073,3.4188,3.4982,3.6465,3.6465,3.7049,3.8101,3.7522,3.7371,3.7572,3.7671,3.7527,3.7314,3.8664,3.8676,3.7844,3.8546,3.7397,3.5184,3.4312,3.3388,3.2315,3.055,2.9534,2.8879,2.7874,0.0,0.0,0.0,0.0,0.0,0.0,0.0,0.0,0.0,0.0,0.0,0.0,0.0,0.0,0.0,0.0,0.0,0.0,0.0,0.0,0.0,0.0,0.0,0.0,4.1945,4.2576,4.3101,4.2838,4.2646,4.2843,4.2487,4.2175,4.2091,4.2808,4.2994,4.235,4.3479,4.4019,4.3612,4.3664,0.0,0.0,0.0,4.374,4.5799,4.4302,4.3655,4.3855,4.3529,4.2636,4.1313,4.1135,4.1045,4.1063,4.1242,4.0977,4.0448,4.0818,4.085,4.0552,3.9084,3.8498,3.8498,3.8498,3.8498,3.8498,1.3151,1.2939,1.3154,1.3942,1.4645,1.5897,1.8236,1.9217,2.0419,2.2434,2.2702,2.3084,2.4085,2.5004,2.5591,2.5696,2.7024,2.8264,2.9274,2.9975,3.0767,3.165,3.2627,3.3627,3.4624,3.5441,3.6396,3.7508,3.7508,3.8412,4.0119,3.9259,3.9623,4.0944,3.9193,3.8928,3.9739,3.9092,3.8865,3.8989,3.9286,3.8451,3.6936,3.6109,3.5585,3.5124,3.4042,3.3576,3.3329,3.2359,3.1438,3.0478,2.931,2.7962,0.0,0.0,0.0,0.0,0.0,0.0,0.0,0.0,0.0,0.0,0.0,0.0,0.0,0.0,0.0,0.0,0.0,0.0,0.0,4.2034,4.285,4.3689,4.4227,4.4618,4.417,4.234,4.3284,4.3875,4.3325,4.5091,4.6221,4.6075,4.7141,4.7285,4.6084,4.6483,4.6338,4.5381,4.5066,4.5839,4.7815,4.6373,4.6409,4.7931,4.5489,0.0,4.3839,4.2598,4.2016,4.2089,4.3356,4.3133,4.2092,4.4578,4.4856,4.3511,4.1248,4.0382,4.0382,4.0382,4.0382,4.0382,1.3252,1.2909,1.2946,1.3719,1.4527,1.577,1.7747,1.8985,2.0243,2.1745,2.2142,2.2593,2.3359,2.4568,2.5293,2.5293,2.7497,2.9167,2.9802,3.0637,3.1519,3.2455,3.3247,3.4247,3.551,3.6052,3.6787,3.7807,3.8264,3.9269,4.0702,4.0663,4.1297,4.2416,4.145,4.137,4.1895,4.1153,4.0798,4.0731,4.0536,4.0023,3.9289,3.8327,3.7648,3.7103,3.6364,3.5754,3.5191,3.4436,3.3774,3.3113,3.2385,3.1269,3.0271,0.0,0.0,0.0,0.0,0.0,0.0,0.0,0.0,0.0,0.0,0.0,0.0,0.0,0.0,4.1831,4.2094,0.0,4.3402,4.3402,4.4105,4.4744,4.502,4.5296,4.515,4.4205,4.5137,4.5705,4.5388,4.6646,4.7616,4.7933,4.8476,4.8616,4.8165,4.8444,4.8395,4.7977,4.7207,4.7789,4.9815,4.8315,4.8047,4.8978,4.7778,4.6687,4.5698,4.5191,4.4826,4.4639,4.5422,4.5315,4.4751,4.6527,4.6796,4.6011,4.4996,4.3371,4.1602,4.1602,4.1602,4.171,1.3709,1.3188,1.2944,1.3697,1.4575,1.5718,1.7279,1.885,2.0165,2.1079,2.1703,2.221,2.2641,2.4016,2.5109,2.5591,2.8074,2.9821,3.0373,3.1188,3.223,3.3533,3.3755,3.4656,3.6351,3.6317,3.6787,3.7807,3.8465,3.9433,4.0692,4.1304,4.2088,4.2991,4.2995,4.3174,4.3467,4.2952,4.2606,4.2317,4.1821,4.1625,4.1547,4.0606,3.9611,3.864,3.7915,3.7122,3.6303,3.584,3.5452,3.5191,3.5191,3.4525,3.3732,3.3732,3.4059,0.0,0.0,0.0,0.0,0.0,0.0,0.0,0.0,3.9697,4.0651,4.119,4.2121,4.2964,4.3416,4.3829,4.4267,4.4704,4.5171,4.5537,4.5623,4.5748,4.605,4.6702,4.6888,4.7023,4.7224,4.7741,4.8309,4.8919,4.9053,4.9305,4.9741,4.9866,5.0117,5.0553,4.9368,4.9548,5.1272,5.0129,4.9523,4.954,4.9814,4.9106,4.755,4.7696,4.752,4.7164,4.7164,4.7498,4.807,4.8157,4.8178,4.8224,4.8606,4.6589,4.3475,4.3475,4.3475,4.3638,1.483,1.4138,1.3725,1.4536,1.5091,1.6039,1.7755,1.9326,2.0529,2.1118,2.2017,2.2622,2.2684,2.4016,2.5821,2.808,2.8615,2.9496,3.1067,3.068,3.1644,3.4408,3.3791,3.4417,3.6612,3.6425,3.6787,3.7807,3.7431,3.8442,4.0678,4.0326,4.1281,4.329,4.2005,4.2333,4.3752,4.2425,4.2263,4.2905,4.2853,4.2814,4.2801,4.2657,4.1486,3.9783,3.8691,3.8217,3.8081,3.7773,3.7336,3.6922,3.6922,3.6508,3.6031,3.6031,3.6068,3.6091,3.589,3.6746,3.7864,3.8391,3.9634,4.0926,0.0,4.2587,4.3489,4.4027,4.4669,4.516,4.5211,4.5286,4.5336,4.5372,4.5462,4.5688,4.615,4.6637,4.7315,4.8375,4.7255,4.6763,4.7716,4.835,4.8928,4.9464,4.9967,5.0252,5.0302,5.082,5.1138,5.1214,5.1022,5.1047,5.1289,5.1581,5.1746,5.1729,5.0909,5.0402,5.0119,4.8814,4.8202,4.8133,4.8133,4.9694,5.2119,5.0813,5.0268,5.0268,5.0339,4.9237,4.7631,4.7631,4.7631,4.7649,1.4132,1.412,1.4421,1.5343,1.5637,1.6175,1.7486,1.9225,2.0383,2.0335,2.1448,2.2123,2.1856,2.3428,2.5279,2.7251,2.8306,2.9308,3.0364,3.0806,3.1789,3.3524,3.3935,3.4582,3.5572,3.6203,3.6799,3.7342,3.8178,3.9235,4.0536,4.1323,4.2407,4.3661,4.2679,4.2869,4.3807,4.2527,4.2216,4.25,4.2148,4.2213,4.2539,4.2539,4.2031,4.1252,4.0779,4.0194,0.0,3.913,3.8615,3.814,3.7776,3.7739,3.7801,3.7425,3.8015,3.8843,3.917,3.9584,4.0061,4.0678,4.1569,4.2434,4.3,4.3714,4.4428,4.502,4.5321,4.5512,4.5512,4.5512,4.5512,4.5512,4.6024,4.6512,4.6722,4.7239,4.7741,4.8225,4.7657,4.7682,4.8786,4.9129,4.9355,4.9565,4.9816,4.9941,4.9941,5.0167,5.0309,5.0309,5.0619,5.0946,5.1289,5.1515,5.1774,5.2084,5.167,5.1452,5.146,5.1146,5.097,5.097,5.097,5.1694,5.2861,5.2206,5.1921,5.1921,5.1921,5.1537,5.0758,4.8948,4.8299,4.8425,1.4149,1.4549,1.5288,1.6294,1.6355,1.6557,1.7453,1.9172,2.0203,1.9766,2.0967,2.1862,2.1802,2.3098,2.4724,2.6569,2.7813,2.8953,3.0005,3.0841,3.1891,3.3186,3.402,3.4715,3.5285,3.6049,3.6711,3.7241,3.8492,3.9476,4.0206,4.1703,4.2735,4.3267,4.2919,4.3023,4.3389,4.2565,4.2199,4.216,4.1899,4.203,4.2408,4.2408,4.2408,4.2382,4.2188,4.1452,4.0529,3.9992,3.9652,3.936,3.8843,3.9094,3.9484,3.9032,3.9785,4.08,4.1188,4.1428,4.1656,4.2098,4.2713,4.3327,4.3714,4.4202,4.4679,4.497,4.5146,4.5246,4.5246,4.5372,4.5562,4.5698,4.6361,4.6873,4.6873,4.734,4.7716,4.7867,4.8184,4.8761,4.9715,4.969,4.9715,5.0058,5.0083,5.0083,5.0083,5.0218,5.0293,5.0293,5.0804,5.1306,5.1724,5.1892,5.2168,5.2553,5.2553,5.2553,5.2553,5.2787,5.2895,5.2895,5.2895,5.2895,5.2895,5.2895,5.2895,5.2895,5.2895,5.2895,5.2629,5.0381,4.9487,4.9511,1.5734,1.5958,1.6459,1.7463,1.7388,1.7379,1.7975,1.933,2.0169,1.9763,2.0927,2.2197,2.3228,2.3398,2.4469,2.7054,2.7265,2.8255,3.0612,3.0633,3.1686,3.4246,3.4009,3.4674,3.6524,3.607,3.6508,3.7874,3.7657,3.8265,3.965,4.0541,4.1252,4.1772,4.21,4.2212,4.2238,4.2212,4.2199,4.2238,4.2762,4.2958,4.2984,4.2984,4.2984,4.2866,4.2073,4.1401,4.082,4.0275,4.0426,4.0779,4.0504,4.08,4.1214,4.1227,4.1239,4.1264,4.1289,4.1731,4.2174,4.2199,4.2989,4.379,4.379,4.4202,4.4453,4.3966,4.4278,4.4629,4.4629,4.5121,4.5688,4.62,4.6286,4.6311,4.6311,4.6772,4.7315,4.7842,4.8887,4.9766,5.0327,4.9916,5.0058,5.1163,5.1239,5.1239,5.1239,5.1749,5.2026,5.2026,5.2536,5.282,5.2845,5.3381,5.3632,5.3658,5.3658,5.3658,5.3632,5.3138,5.2895,5.2895,5.2895,5.2895,5.2895,5.2895,5.2895,5.2895,5.2895,5.2895,5.2895,5.2792,5.2424,5.199,1.5027,1.5863,1.6752,1.7056,1.7227,1.7508,1.8026,1.935,2.0123,1.9632,2.0555,0.0,0.0,0.0,0.0,0.0,2.568,2.7099,2.9081,2.9803,3.1049,3.3054,3.3837,3.4562,3.5311,3.5984,3.6678,3.7376,3.7813,3.8489,3.9358,4.0184,4.0871,4.1414,4.1134,4.101,4.0984,4.0631,4.0461,4.0514,4.105,4.1508,4.1912,4.233,4.2461,4.2422,0.0,4.2047,4.1918,4.1209,4.1421,4.1919,4.1245,4.1904,4.3023,4.3385,4.3248,4.2947,4.2947,4.285,4.2813,4.3176,4.3539,4.389,4.4252,4.4478,4.4539,4.4378,4.478,4.5196,4.5196,4.5648,4.61,4.6261,4.6286,4.6436,4.6772,4.729,4.7967,4.8912,4.969,5.0519,5.1448,5.1046,5.0887,5.1264,5.1641,5.1825,5.1825,5.2335,5.246,5.2126,5.2611,5.2895,5.2895,5.3414,5.3884,5.4278,5.3884,5.3708,5.3683,5.3138,5.2895,5.2895,5.2895,5.2895,5.2895,5.2895,5.2895,5.2895,5.2895,5.2895,5.2845,5.2511,5.2026,5.1615,1.5317,1.6262,1.7148,1.7372,1.7488,0.0,0.0,0.0,0.0,0.0,0.0,0.0,0.0,0.0,0.0,0.0,0.0,2.6132,2.8265,2.9226,3.0393,3.1896,3.3519,3.4474,3.4589,3.5704,3.6637,3.7388,3.7795,3.8456,3.9337,3.9878,4.0318,4.0684,4.0292,4.0109,4.0083,3.9744,3.9718,3.9874,3.9822,4.0162,4.071,4.088,4.0957,0.0,4.118,4.1435,4.1621,4.1312,4.1681,4.2211,4.187,4.283,4.4116,4.4278,4.4202,4.4027,4.3865,4.3539,4.3327,4.3478,4.3514,4.3589,4.3966,4.4027,4.4027,4.4027,4.4493,4.5035,4.5437,4.5949,4.6502,4.7104,4.7179,4.738,4.7917,4.8469,4.9063,4.9791,5.0553,5.1356,5.2285,5.2076,5.195,5.2143,5.2302,5.246,5.2678,5.2988,5.3013,5.2678,5.3231,5.3607,5.3791,5.4135,5.4504,5.4881,5.4504,5.421,5.3984,5.3439,5.3188,5.3188,5.2988,5.2895,5.2895,5.2895,5.2895,5.2895,5.2895,5.2895,5.2845,5.2511,5.1925,5.1339,1.6622,1.7118,1.7688,0.0,0.0,0.0,0.0,0.0,0.0,0.0,0.0,0.0,0.0,0.0,0.0,0.0,0.0,0.0,2.8065,2.8825,2.9711,3.0938,3.3064,3.4277,3.4356,3.5182,3.6282,3.7717,3.7467,3.8043,3.943,3.943,3.9456,3.9508,3.9482,3.9456,3.9456,3.943,3.9718,4.0083,3.9038,3.8972,3.9404,3.8867,3.8646,3.8725,3.9314,3.9681,3.998,4.0625,4.1209,4.1805,4.2478,4.3574,4.4453,4.3966,4.4152,4.4468,4.4012,4.3807,4.3668,4.3305,4.3123,4.3053,4.316,4.3132,4.309,4.3126,4.3578,4.4317,4.5437,4.6075,4.6954,4.8526,4.8768,4.8928,4.948,5.0001,5.0377,5.0427,5.1406,5.231,5.2862,5.2895,5.3113,5.3658,5.3239,5.3163,5.3683,5.3733,5.3733,5.3708,5.4253,5.4798,5.5265,5.5308,5.5333,5.5358,5.5333,5.5056,5.4547,5.3934,5.3658,5.3632,5.3113,5.2895,5.2895,5.2895,5.2895,5.2895,5.2895,5.2895,5.2895,5.2895,5.2251,5.1339,0.0,0.0,0.0,0.0,0.0,0.0,0.0,0.0,0.0,0.0,0.0,0.0,0.0,0.0,0.0,0.0,0.0,0.0,2.5951,2.7644,2.9314,3.093,3.1567,3.2473,3.378,3.4017,3.4511,3.5286,3.5213,3.5795,3.6985,3.6985,3.747,3.8306,3.7862,3.7653,3.7627,3.7183,3.7063,3.7209,3.7377,3.7534,3.7717,3.8004,3.8097,3.8164,3.8548,3.8585,3.8604,3.9604,4.058,4.1723,4.3523,4.4034,4.3991,4.384,4.389,4.4151,4.4862,4.4138,4.3699,4.5709,4.4882,4.3944,4.5243,4.4837,4.4317,4.4784,4.5623,4.6486,4.7154,4.7773,4.83,4.8743,4.8426,4.8335,4.8928,4.948,5.0117,5.0971,5.1674,5.231,5.2862,5.2895,5.3113,5.3658,5.3565,5.3557,5.3683,5.4127,5.4177,5.3708,5.3858,5.3808,5.354,5.3916,5.4378,5.4798,5.4353,5.4059,5.3909,5.3339,5.3113,5.3113,5.2945,5.2895,5.2895,5.2895,5.2895,5.2895,5.2895,5.2895,5.2895,5.2895,5.246,5.19,0.0,0.0,0.0,0.0,0.0,0.0,0.0,0.0,0.0,0.0,0.0,0.0,0.0,0.0,0.0,0.0,0.0,0.0,0.0,2.6998,2.8298,2.978,3.0817,3.1705,3.2447,3.3205,3.3754,3.4058,3.4267,3.4868,3.5757,3.5992,3.6462,3.7116,3.675,3.6619,3.6582,3.6242,3.6253,0.0,0.0,3.6384,3.6593,3.6436,3.6541,3.6769,3.6831,3.7248,3.8006,3.9486,4.0894,4.2219,4.3246,4.3815,4.4066,4.3603,4.3614,4.3982,4.4877,4.4249,4.3801,4.5656,4.5126,4.4464,4.5727,4.5465,4.5171,4.5723,4.6512,4.7324,4.8134,4.8576,4.9044,4.9773,4.9389,4.9213,4.9807,5.0159,5.067,5.1565,5.1925,5.2385,5.3163,5.3038,5.3113,5.3658,5.3482,5.3439,5.3683,5.3808,5.3708,5.3364,5.3339,5.3314,5.3264,5.3808,5.4253,5.4597,5.4253,5.4102,5.4077,5.3507,5.3239,5.3239,5.3013,5.2895,5.2895,5.2895,5.2895,5.292,5.3163,5.3239,5.3289,5.3557,5.3155,5.246,0.0,0.0,0.0,0.0,0.0,0.0,0.0,0.0,0.0,2.3403,2.3026,2.277,0.0,0.0,0.0,0.0,0.0,0.0,0.0,0.0,2.7095,2.822,3.0171,3.1085,3.0774,3.2264,3.3022,3.3022,3.3561,3.4162,3.4842,3.5391,3.573,3.5876,3.5876,3.5835,3.5783,3.5835,3.6149,3.6462,3.5469,3.5338,3.5652,0.0,3.4502,3.4941,3.4794,3.5981,3.7877,3.9674,4.1347,4.2608,4.2299,4.3151,4.4077,4.3076,4.3226,4.3843,4.4515,4.4385,4.4225,4.4976,4.5067,4.5117,4.5712,4.5731,4.5748,4.6301,4.6823,4.7516,4.8501,4.8802,4.933,5.0636,5.0544,5.0469,5.0912,5.1088,5.1373,5.1925,5.2076,5.2503,5.3507,5.3163,5.3088,5.3557,5.3239,5.3188,5.3565,5.3163,5.2895,5.2895,5.2895,5.3113,5.3607,5.4127,5.4353,5.4353,5.4353,5.4353,5.4353,5.3833,5.3607,5.3582,5.3113,5.2945,5.3013,5.3013,5.3063,5.3163,5.3632,5.3808,5.3884,5.4403,5.3976,5.3113,0.0,0.0,0.0,0.0,0.0,0.0,0.0,0.0,0.0,0.0,2.3979,2.371,0.0,0.0,0.0,0.0,0.0,0.0,0.0,0.0,0.0,2.7611,2.8047,2.8656,2.958,2.9894,3.0051,3.0051,3.0572,3.1389,3.2434,3.3002,3.3796,3.4685,3.4685,3.446,3.4058,3.4502,3.4502,3.4162,3.3979,3.3963,3.3963,3.3257,0.0,0.0,3.3735,3.5513,3.7776,3.8818,3.9963,4.1072,4.1924,4.24,4.2487,4.1793,4.2333,4.3462,4.4936,4.532,4.5754,4.7741,4.7529,4.6985,4.7527,4.6885,4.6311,4.6848,4.739,4.7817,4.8033,4.8812,4.9238,4.8611,4.9188,4.9615,4.9296,5.0008,5.077,5.1364,5.1825,5.2352,5.2988,5.2945,5.2937,5.3038,5.3364,5.3389,5.3063,5.2945,5.2895,5.2895,5.2895,5.2945,5.3038,5.3138,5.3188,5.3188,5.3188,5.3188,5.3188,5.3088,5.3038,5.3038,5.2945,5.3163,5.3557,5.3557,5.3876,5.4303,5.4403,5.4429,5.4471,5.4572,5.4471,5.4228,0.0,0.0,0.0,0.0,0.0,0.0,0.0,2.4323,2.4626,2.548,2.5288,2.4823,2.4115,2.3583,2.3047,0.0,0.0,0.0,0.0,0.0,0.0,0.0,2.735,2.7933,2.8821,2.9135,2.9292,2.9292,0.0,3.0388,3.0936,3.1539,3.2107,3.263,3.2297,3.2035,3.18,3.2052,3.1999,3.18,3.2133,3.2238,3.2202,3.1808,0.0,0.0,3.2787,3.4386,3.6296,3.7574,3.912,4.0638,4.148,4.2347,4.2799,4.1628,4.2295,4.3796,4.5486,4.5762,4.6031,4.8039,4.7658,4.692,4.7468,4.7126,4.6963,4.7807,4.8184,4.8435,4.8736,4.8987,4.9104,4.8837,4.9028,4.9179,4.9204,4.9665,5.0318,5.1188,5.154,5.2101,5.3213,5.3314,5.3457,5.3758,5.4027,5.3926,5.3339,5.3607,5.3507,5.2937,5.3163,5.3188,5.2895,5.2895,5.2895,5.2895,5.2895,5.2895,5.2895,5.2895,5.3063,5.3314,5.3314,5.3632,5.4177,5.4177,5.4328,5.4622,5.4924,5.4848,5.4622,5.4906,5.4629,5.4102,0.0,0.0,0.0,0.0,0.0,0.0,0.0,2.5078,2.5217,2.6494,2.6344,2.5702,2.4532,2.4052,2.3614,0.0,0.0,0.0,0.0,0.0,0.0,0.0,0.0,0.0,2.8185,0.0,0.0,2.8917,2.9475,0.0,0.0,0.0,0.0,0.0,3.0318,2.9944,2.9744,3.0005,3.0022,0.0,0.0,3.0772,3.0716,0.0,0.0,0.0,0.0,3.3388,3.4929,3.6495,3.858,4.0575,4.1001,4.2295,4.3363,4.2055,4.2865,4.4469,4.583,4.6243,4.6513,4.7452,4.7205,4.6732,4.6884,4.6923,4.7214,4.8225,4.8526,4.8727,4.9179,4.9104,4.9079,4.938,4.9179,4.9129,4.954,4.959,5.0017,5.1163,5.1414,5.2068,5.3557,5.3808,5.4102,5.4572,5.4597,5.4378,5.3926,5.4328,5.4127,5.3113,5.3482,5.3439,5.2895,5.2895,5.2895,5.2895,5.2895,5.2945,5.3063,5.3063,5.3364,5.3884,5.3884,5.4228,5.4773,5.4773,5.4848,5.4956,5.5282,5.5132,5.4823,5.5107,5.468,5.3858,0.0,0.0,0.0,0.0,0.0,0.0,0.0,2.5022,2.5572,2.7273,2.6578,2.5884,2.5741,2.5379,2.4583,0.0,0.0,0.0,0.0,0.0,0.0,0.0,0.0,0.0,0.0,0.0,0.0,2.7663,2.8255,0.0,0.0,0.0,0.0,0.0,0.0,2.9527,2.8603,2.9648,0.0,0.0,0.0,0.0,0.0,0.0,0.0,0.0,0.0,3.3053,3.489,3.608,3.8278,4.0512,4.0563,4.1731,4.3025,4.2875,4.4086,4.5474,4.5563,4.7145,4.8385,4.6841,4.722,4.7652,4.6606,4.6361,4.6537,4.7124,4.7641,4.8008,4.8058,4.8862,4.938,4.8928,4.9229,4.954,4.959,4.959,5.0017,5.1163,5.1724,5.2477,5.3582,5.4202,5.4547,5.4597,5.4597,5.4572,5.4522,5.4572,5.4303,5.3658,5.3683,5.3439,5.2895,5.2895,5.2895,5.2895,5.2895,5.3163,5.3632,5.3632,5.3934,5.4522,5.4522,5.483,5.5333,5.5333,5.5616,5.6018,5.5566,5.5383,5.5282,5.483,5.4622,5.4446,0.0,0.0,0.0,0.0,0.0,0.0,2.5141,2.4627,2.4788,2.728,2.6865,2.6301,2.6274,2.6231,2.54,2.3445,0.0,0.0,0.0,0.0,0.0,0.0,0.0,0.0,0.0,0.0,2.7175,2.7498,2.7742,0.0,0.0,0.0,0.0,0.0,0.0,2.7271,2.6835,2.6974,0.0,0.0,0.0,0.0,0.0,0.0,0.0,0.0,0.0,0.0,3.3947,3.5367,3.7487,3.9647,4.0287,4.1656,4.3014,4.3014,4.4209,4.5681,4.6391,4.7521,4.8325,4.757,4.7754,4.7772,4.6586,4.6562,4.6923,4.7465,4.8033,4.8451,4.8451,4.8802,4.9154,4.9254,4.9464,4.9941,5.0971,5.0837,5.1021,5.2126,5.2176,5.2528,5.3607,5.3926,5.4202,5.4572,5.4597,5.4597,5.4597,5.4597,5.4177,5.3239,5.3532,5.3439,5.2895,5.2895,5.2895,5.2895,5.3239,5.349,5.3708,5.4077,5.4554,5.5082,5.5082,5.5383,5.5867,5.5516,5.5516,5.5666,5.5132,5.4705,5.4336,5.4152,5.3858,5.3557,0.0,0.0,0.0,0.0,0.0,2.2539,2.517,2.4443,2.4468,2.6948,2.6664,2.6344,2.669,2.6282,2.5439,2.415,2.3823,0.0,0.0,0.0,0.0,0.0,0.0,0.0,0.0,0.0,2.6956,2.7498,2.7498,2.7498,0.0,0.0,2.7428,2.7219,0.0,0.0,0.0,0.0,0.0,0.0,0.0,0.0,0.0,0.0,0.0,0.0,0.0,0.0,0.0,0.0,0.0,3.8831,3.9923,4.1404,4.2864,4.3327,4.4706,4.6251,4.7253,4.7809,4.8196,4.8532,4.821,4.7674,4.7178,4.7212,4.749,4.8058,4.8501,4.8843,4.9003,4.9028,4.928,4.9983,4.9941,5.0368,5.19,5.1774,5.1925,5.3013,5.3088,5.3381,5.4135,5.4059,5.4077,5.4321,5.4328,5.4253,5.4102,5.4102,5.3808,5.3163,5.349,5.3439,5.2895,5.2895,5.2988,5.3138,5.3532,5.3884,5.421,5.4629,5.5132,5.5641,5.5641,5.5767,5.5942,5.5559,5.5308,5.5107,5.4554,5.4077,5.3683,5.3532,5.3213,5.292,0.0,0.0,0.0,0.0,0.0,0.0,2.4465,2.4639,2.4965,2.6329,2.5807,2.5818,2.7156,2.5343,2.4439,2.5494,2.4064,0.0,0.0,0.0,0.0,0.0,0.0,0.0,0.0,0.0,2.6956,2.7498,2.7498,2.7498,2.7498,2.7498,2.7227,2.6711,0.0,0.0,0.0,0.0,0.0,0.0,0.0,0.0,0.0,0.0,0.0,0.0,0.0,0.0,0.0,0.0,0.0,0.0,0.0,4.0853,4.2526,4.4127,4.587,4.7405,4.7925,4.8108,4.8399,4.9576,4.8479,4.7425,4.8599,4.8359,4.8058,4.8667,4.8793,4.8953,4.949,4.959,4.9967,5.1088,5.077,5.0779,5.195,5.2101,5.2503,5.3557,5.4687,5.5383,5.5383,5.4906,5.4353,5.3758,5.3708,5.3482,5.2962,5.2937,5.3163,5.3683,5.3708,5.3439,5.2895,5.2895,5.3163,5.3683,5.3708,5.4285,5.5383,5.5408,5.5691,5.6175,5.6175,5.5892,5.5408,5.5408,5.5082,5.4547,5.3934,5.3708,5.3632,5.3113,5.2895,5.2988,0.0,0.0,0.0,0.0,0.0,0.0,0.0,2.3454,2.3466,2.5119,2.4721,2.492,2.6572,2.5753,2.5234,2.5569,2.4198,0.0,0.0,0.0,0.0,0.0,0.0,0.0,0.0,0.0,2.6959,2.7911,2.7911,2.8196,2.8726,2.8726,2.863,2.8438,2.7602,2.7141,0.0,0.0,0.0,0.0,0.0,0.0,0.0,0.0,0.0,0.0,0.0,0.0,0.0,0.0,0.0,0.0,0.0,0.0,0.0,4.3575,4.5009,4.6192,4.6722,4.746,4.7992,4.756,4.7899,4.8206,4.7764,4.8127,4.8576,4.8768,4.9079,4.9405,4.9565,4.959,4.9967,5.1113,5.1138,5.1666,5.3549,5.313,5.3063,5.4177,5.3959,5.369,5.369,5.354,5.3339,5.3163,5.3163,5.3088,5.2895,5.2895,5.2988,5.3163,5.3163,5.3239,5.3439,5.3439,5.3733,5.4303,5.4705,5.5039,5.539,5.5767,5.5842,5.5641,5.5641,5.5358,5.4805,5.4429,5.4135,5.3926,5.3364,5.3364,5.3683,5.349,5.3708,5.4102,0.0,0.0,0.0,0.0,0.0,0.0,0.0,2.2662,2.2794,2.3995,2.3724,2.4131,2.5962,2.5259,2.49,2.5536,2.4183,0.0,0.0,0.0,0.0,0.0,0.0,0.0,0.0,2.6273,2.7172,2.828,2.8807,2.9225,2.9489,2.9805,2.9711,2.9266,2.8516,2.8012,0.0,0.0,0.0,0.0,0.0,0.0,2.8113,0.0,0.0,0.0,0.0,0.0,0.0,0.0,0.0,0.0,0.0,0.0,0.0,0.0,4.4292,4.5374,4.6391,4.7026,4.7446,4.7608,4.8098,4.8454,4.8187,4.8629,4.9104,4.9104,4.938,4.959,4.959,4.9766,5.0218,5.1138,5.1641,5.2469,5.4027,5.3833,5.3884,5.478,5.4102,5.3557,5.3557,5.3163,5.2895,5.2895,5.2895,5.2895,5.2895,5.2895,5.2988,5.3188,5.3213,5.3364,5.3708,5.3926,5.4328,5.4906,5.5031,5.5207,5.539,5.5559,5.539,5.5107,5.5107,5.478,0.0,5.4242,5.4024,5.3683,5.3721,5.3942,5.4219,5.4219,5.4552,5.5046,0.0,0.0,0.0,0.0,0.0,0.0,0.0,2.2299,2.2884,2.308,2.2895,2.3458,2.5286,2.405,2.3759,2.5402,0.0,0.0,0.0,0.0,0.0,0.0,0.0,0.0,0.0,2.6756,2.76,2.863,2.9989,3.0401,2.9947,3.0704,3.0475,2.9448,2.9413,2.8898,0.0,0.0,0.0,0.0,2.5951,2.6771,0.0,0.0,0.0,0.0,0.0,0.0,0.0,0.0,0.0,0.0,0.0,0.0,0.0,0.0,0.0,0.0,0.0,4.674,4.6855,4.9144,4.8789,4.8218,4.9442,4.9653,0.0,4.959,4.959,4.9615,4.964,5.0051,5.0603,5.1264,5.2184,5.3038,5.3632,5.4177,5.4705,5.5232,5.4805,5.4496,5.4522,5.3557,5.2895,5.2895,5.2895,5.2895,5.2895,5.2895,5.3138,5.3632,5.3683,5.3733,5.3808,5.4328,5.4856,5.5408,5.4873,5.4856,5.5333,5.4841,5.4607,5.4582,5.4668,5.4341,5.3863,5.4786,5.4639,5.3931,5.4811,5.518,5.5205,5.5205,5.5459,5.5902,0.0,0.0,0.0,0.0,0.0,0.0,0.0,0.0,0.0,0.0,2.2624,2.2801,2.4209,2.3572,2.3543,0.0,0.0,0.0,0.0,0.0,0.0,0.0,0.0,0.0,0.0,2.7508,2.8408,2.9052,2.9856,3.0532,3.1112,3.157,3.1496,3.0972,3.0333,2.9237,0.0,0.0,0.0,0.0,2.5921,2.6659,0.0,0.0,0.0,0.0,3.116,3.2125,0.0,0.0,0.0,0.0,0.0,0.0,0.0,0.0,4.3165,4.4274,4.5577,0.0,4.6537,4.7503,4.7835,4.8086,0.0,4.9327,4.959,4.959,4.959,4.9715,5.0142,5.0302,5.0728,5.1749,5.2126,5.2628,5.3557,5.3808,5.3959,5.4084,5.3632,5.3439,5.3858,5.3289,5.2895,5.2895,5.2895,5.2895,5.2895,5.2895,5.2962,5.3088,5.3507,5.411,5.4988,5.473,5.4856,5.5408,5.4873,5.4672,5.4798,5.492,5.4758,5.4396,5.5125,5.5119,5.4669,5.5292,5.5428,5.5256,5.5471,5.5813,5.6179,5.6179,5.6514,5.7013,0.0,0.0,0.0,0.0,0.0,0.0,0.0,0.0,0.0,0.0,0.0,2.2816,2.3524,2.3254,0.0,0.0,0.0,0.0,0.0,0.0,0.0,0.0,0.0,0.0,0.0,2.8667,2.9672,3.0221,3.1164,3.1858,3.2388,3.2664,3.2613,3.2221,3.0933,2.9683,0.0,0.0,0.0,2.7051,2.6307,0.0,0.0,0.0,0.0,0.0,3.0934,3.2074,0.0,3.4413,3.5768,3.7299,0.0,0.0,0.0,0.0,4.2911,4.4367,4.5261,4.5899,4.6486,4.7265,4.7892,4.84,4.8743,4.9204,4.9665,4.9916,4.9967,5.0142,5.072,5.082,5.1096,5.1975,5.231,5.2854,5.3976,5.431,5.4285,5.3758,5.3596,5.3504,5.3356,5.326,5.3187,5.3187,5.2998,5.305,5.3384,5.3084,5.3107,5.3531,5.3826,5.4184,5.4629,5.4604,5.4819,5.5263,5.4726,5.4536,5.4711,5.4903,5.4838,5.4617,5.537,5.5526,5.533,5.6043,5.6222,5.6108,5.654,5.6902,5.7142,5.7142,5.7473,5.8007,0.0,0.0,0.0,0.0,0.0,0.0,0.0,0.0,0.0,0.0,0.0,0.0,0.0,0.0,0.0,0.0,0.0,0.0,0.0,0.0,0.0,0.0,0.0,0.0,0.0,2.9835,3.0849,3.1396,3.2792,3.3455,3.3422,3.3779,3.3694,3.3101,3.1342,3.018,0.0,0.0,2.7182,2.7625,2.7013,0.0,0.0,0.0,0.0,0.0,0.0,0.0,0.0,3.4653,3.6245,3.8028,3.8203,0.0,0.0,0.0,0.0,0.0,4.5547,4.6075,4.6687,4.7782,4.8426,4.8818,4.8903,4.933,4.9841,5.0302,5.0477,5.0678,5.1214,5.1364,5.1615,5.2126,5.2661,5.3314,5.4202,5.473,5.4705,5.3878,5.3971,5.3863,5.3235,5.3375,5.3512,5.358,5.3273,5.3333,5.398,5.3401,5.3423,5.4232,5.4257,5.4094,5.3756,5.4328,5.4771,5.5053,5.4613,5.4532,5.4825,5.5014,5.51,5.5168,5.5751,5.6,5.6069,5.6952,5.7114,5.6883,5.7693,5.7981,5.8017,5.8222,5.8523,5.9052,0.0,0.0,0.0,0.0,0.0,0.0,0.0,0.0,0.0,0.0,0.0,0.0,0.0,0.0,0.0,0.0,0.0,0.0,0.0,0.0,0.0,0.0,0.0,0.0,0.0,0.0,3.0849,3.1396,3.3036,3.3673,3.3436,3.4645,3.4474,3.3063,3.1811,3.0682,2.969,2.8885,2.8323,2.8008,2.7905,0.0,0.0,0.0,0.0,0.0,0.0,0.0,0.0,3.5193,3.656,3.8165,3.9145,0.0,0.0,0.0,0.0,0.0,4.6446,4.6923,4.7265,4.8375,4.8743,4.8919,4.938,4.9891,5.0302,5.0377,5.082,5.1188,5.1289,5.1666,5.2134,5.2686,5.3213,5.3482,5.3213,5.3239,5.3511,5.4126,5.3556,5.3482,5.4422,5.3911,5.3631,5.3895,5.3878,5.3878,5.3997,5.3895,5.3912,5.404,5.4057,5.4023,5.3955,5.45,5.4815,5.485,5.4807,5.4833,5.4928,5.5727,5.6089,5.6115,5.699,5.7407,5.7433,5.8051,5.8242,5.8215,5.8346,5.8416,5.855,5.975,6.0208,6.0654,0.0,0.0,0.0,0.0,0.0,0.0,0.0,0.0,0.0,0.0,0.0,0.0,0.0,0.0,0.0,0.0,0.0,0.0,0.0,0.0,0.0,0.0,0.0,0.0,0.0,0.0,3.2365,3.3183,3.4262,3.4846,3.5032,3.5209,3.4486,3.3075,3.2361,3.1357,3.0206,2.9628,2.9067,2.853,0.0,0.0,0.0,0.0,0.0,0.0,0.0,0.0,0.0,0.0,3.661,3.8191,3.9346,0.0,0.0,0.0,0.0,0.0,4.7164,4.7767,4.8134,4.8667,4.8551,4.8375,4.8636,4.9113,4.969,5.0277,5.087,5.1389,5.1691,5.1925,5.2176,5.2435,5.3155,5.3702,5.3666,5.3478,5.3452,5.3824,5.3493,5.3333,5.3581,5.3717,5.3827,5.3997,5.4014,5.4098,5.4258,5.4089,5.4098,5.4258,5.4275,5.443,5.4765,5.5167,5.5297,5.5134,5.5486,5.5745,5.5934,5.6695,5.7068,5.7112,5.7817,5.8148,5.8148,5.8392,5.8956,5.9551,5.8797,5.9455,6.0903,6.1554,6.2275,6.3108,0.0,0.0,0.0,0.0,0.0,0.0,0.0,0.0,0.0,0.0,0.0,0.0,0.0,0.0,0.0,0.0,0.0,0.0,0.0,0.0,0.0,0.0,0.0,0.0,0.0,0.0,3.3682,3.4904,3.5695,3.6321,3.6758,3.5826,3.4791,3.3632,3.3146,3.219,3.0924,3.0281,2.9644,2.9107,0.0,0.0,0.0,0.0,0.0,0.0,0.0,0.0,0.0,0.0,0.0,0.0,0.0,0.0,0.0,4.3804,4.5296,4.6712,4.7832,4.8551,4.8994,4.8994,4.8652,4.8284,4.8134,4.8677,4.9405,5.0226,5.0971,5.1599,5.2026,5.2302,5.2427,5.231,5.298,5.3553,5.3705,5.344,5.3339,5.3504,5.3462,5.3334,5.3197,5.3757,5.4166,5.425,5.425,5.4368,5.4628,5.4402,5.4437,5.481,5.481,5.5138,5.5735,5.6112,5.6112,5.5735,5.6349,5.6773,5.7033,5.7625,5.7904,5.7904,5.8314,5.8505,5.8505,5.8505,5.914,6.0027,5.9298,6.0767,6.3284,6.3284,6.4162,6.5401,0.0,0.0,0.0,0.0,0.0,0.0,0.0,0.0,0.0,0.0,0.0,0.0,0.0,0.0,0.0,0.0,0.0,0.0,0.0,0.0,0.0,0.0,0.0,0.0,0.0,3.2753,3.3872,3.5433,3.7037,3.7827,3.7864,3.6807,3.5954,3.5282,3.4248,3.3154,0.0,3.0974,3.0221,2.9739,2.9739,0.0,0.0,0.0,0.0,0.0,0.0,0.0,0.0,0.0,0.0,0.0,0.0,0.0,4.2626,4.4758,4.616,4.7274,4.8426,4.9129,4.954,4.954,4.9515,4.9355,4.8853,4.954,5.0302,5.0377,5.1297,5.2051,5.2101,5.2929,5.3432,5.2937,5.2912,5.2748,5.2075,5.1956,5.2366,5.3559,5.3361,5.3591,5.4811,5.4645,5.4611,5.4998,5.5015,5.5032,5.5065,5.5032,5.5267,5.578,5.5806,5.6093,5.6694,5.7268,5.7285,5.6694,5.7303,5.7625,5.7643,5.8183,5.8427,5.8427,5.8479,5.8505,5.8505,5.8505,5.8576,5.8762,5.9975,6.2198,6.4752,6.4752,6.5637,6.6936,0.0,0.0,0.0,0.0,0.0,0.0,0.0,0.0,0.0,0.0,0.0,0.0,0.0,0.0,0.0,0.0,0.0,0.0,0.0,0.0,0.0,0.0,0.0,2.8885,3.1637,3.3269,3.5066,3.7037,3.7362,3.7324,3.6984,3.5855,3.5216,3.4968,3.4237,0.0,0.0,0.0,3.0783,3.0306,3.0306,3.0231,0.0,0.0,0.0,0.0,0.0,0.0,0.0,0.0,3.7524,3.9245,4.1242,4.2261,4.319,4.5748,4.7014,4.7842,4.9003,4.9204,4.9179,4.9515,4.9355,4.9053,4.8843,4.938,5.0092,5.082,5.1297,5.18,5.246,5.2377,5.2251,5.2385,5.2312,5.2236,5.2294,5.2205,5.2411,5.3299,5.3251,5.3428,5.4169,5.4387,5.4561,5.4738,5.4956,5.5155,5.5275,5.5477,5.5866,5.6458,5.6458,5.6745,5.7338,5.759,5.7756,5.7852,5.8078,5.8183,5.8209,5.8418,5.8505,5.8505,5.8505,5.8314,5.8017,5.8366,5.9338,6.0869,6.3537,6.4968,6.5634,6.6507,6.7431,6.8286,0.0,0.0,0.0,0.0,0.0,0.0,0.0,0.0,0.0,0.0,0.0,0.0,0.0,0.0,0.0,0.0,0.0,0.0,0.0,0.0,0.0,0.0,0.0,2.8925,3.1346,3.356,3.5618,3.7487,3.7135,3.6859,3.6619,3.5317,3.489,0.0,0.0,0.0,0.0,0.0,0.0,3.0849,3.0849,3.0723,0.0,0.0,0.0,0.0,0.0,0.0,0.0,0.0,3.8014,3.9735,4.1621,4.2788,4.3991,4.6396,4.749,4.8109,4.9063,4.9204,4.9104,4.9305,4.948,4.9547,4.9355,4.959,5.0017,5.0636,5.1188,5.1808,5.2664,5.2269,5.1867,5.211,5.1949,5.1954,5.2356,5.2433,5.2724,5.3423,5.3517,5.3677,5.4117,5.4471,5.4756,5.4938,5.5043,5.5321,5.5812,5.5878,5.6275,5.7059,5.6902,5.7085,5.7695,5.7512,5.7599,5.7956,5.7956,5.8061,5.8235,5.8235,5.8157,5.7956,5.8157,5.828,5.8407,5.8937,6.074,6.3411,6.5739,6.6751,6.7009,6.7972,6.86,6.9034,0.0,0.0,0.0,0.0,0.0,0.0,0.0,0.0,0.0,0.0,0.0,0.0,0.0,0.0,0.0,0.0,0.0,0.0,2.4758,2.5879,2.6214,0.0,0.0,2.9659,3.1346,3.356,3.5253,3.6393,3.6393,3.6669,3.7123,3.5467,0.0,0.0,0.0,0.0,0.0,0.0,0.0,0.0,3.1421,3.1738,3.2204,0.0,0.0,0.0,0.0,0.0,0.0,0.0,3.9107,4.0688,4.1833,4.3302,4.4916,4.6622,4.749,4.8033,4.8626,4.9179,4.9464,4.8928,5.0033,5.1113,5.0528,5.0402,5.0252,4.9715,5.0962,5.2219,5.2531,5.2749,5.2774,5.2362,5.2026,5.1855,5.1988,5.2482,5.3166,5.4082,5.421,5.4445,5.5046,5.5099,5.5308,5.584,5.5412,5.5595,5.6745,5.6205,5.6475,5.766,5.7146,5.712,5.7704,5.7137,5.6815,5.6841,5.6841,5.7129,5.7695,5.7695,5.7381,5.6867,5.7477,5.8527,5.9863,6.041,6.271,6.5902,6.5919,6.7177,6.9004,6.9004,6.9004,6.9123,0.0,0.0,0.0,0.0,0.0,0.0,0.0,0.0,0.0,0.0,0.0,0.0,0.0,0.0,0.0,0.0,0.0,0.0,2.4758,2.5879,2.6063,2.5076,2.6791,0.0,0.0,3.2606,3.4888,3.6393,3.5981,3.5467,3.4888,3.4764,0.0,3.5203,0.0,0.0,0.0,0.0,0.0,0.0,3.1953,3.2054,3.2254,0.0,0.0,0.0,0.0,0.0,0.0,0.0,0.0,0.0,4.2735,4.3915,4.4991,4.7064,4.8083,4.8652,4.9204,4.8887,4.8661,4.9665,4.9414,4.9163,5.0176,5.072,5.0987,5.0837,5.1857,5.2581,5.1808,5.1788,5.1883,5.1943,5.1939,5.2148,5.2759,5.3402,5.3944,5.4341,5.4297,5.4262,5.4445,5.4471,5.4524,5.4707,5.4942,5.5412,5.6144,5.6013,5.6681,5.8422,5.8295,5.8748,5.9874,5.9682,5.9339,5.8824,5.8824,5.8206,5.7085,5.7512,5.8137,5.8943,5.95,6.0307,6.1416,6.3017,6.481,6.6636,6.7663,6.876,6.9708,6.9708,6.9961,7.038,0.0,0.0,0.0,0.0,0.0,0.0,0.0,0.0,0.0,0.0,2.055,2.0566,0.0,0.0,0.0,0.0,0.0,0.0,2.4448,2.5519,2.5829,2.5151,2.6331,2.7814,2.9534,3.1978,3.3947,3.5401,3.5481,3.5168,3.4527,0.0,0.0,3.5403,0.0,0.0,0.0,0.0,0.0,0.0,0.0,3.3007,3.3258,0.0,0.0,0.0,0.0,0.0,0.0,0.0,0.0,0.0,4.3237,4.4478,4.5583,4.7139,4.7983,4.8476,4.8586,4.8118,4.7817,4.8846,4.867,4.8667,5.0238,5.0617,5.0686,5.0896,5.1628,5.2053,5.1475,5.1602,5.1818,5.2044,5.2227,5.2466,5.285,5.3495,5.3919,5.4044,5.4131,5.421,5.421,5.4419,5.4654,5.4863,5.502,5.5673,5.6982,5.6813,5.7581,5.9539,5.9088,5.9204,6.0009,6.0041,5.9841,5.9392,5.995,5.9609,5.8466,5.8508,5.9186,6.0347,6.1753,6.2901,6.4006,6.5826,6.7174,6.818,6.9044,6.9782,7.0366,7.0366,7.059,7.0889,0.0,0.0,0.0,0.0,0.0,0.0,0.0,0.0,0.0,1.9796,2.026,2.0596,0.0,0.0,0.0,2.2157,2.2802,2.3379,2.4029,2.5034,2.5586,2.5536,2.6189,2.7797,3.0387,3.1602,3.2706,3.3746,3.4867,3.5408,0.0,0.0,3.5844,3.6331,0.0,3.7173,0.0,0.0,0.0,0.0,0.0,3.4363,3.4904,3.5444,0.0,0.0,0.0,0.0,0.0,0.0,0.0,0.0,4.3528,4.497,4.6336,4.6923,4.749,4.7792,4.7299,4.7149,4.7124,4.7224,4.8074,4.9231,5.0473,5.0192,4.9838,5.0375,5.0728,5.1043,5.135,5.1867,5.2274,5.242,5.264,5.2715,5.2594,5.306,5.3426,5.3478,5.387,5.4158,5.421,5.4759,5.5358,5.5964,5.5666,5.6485,5.8885,5.8488,5.9055,6.0935,5.9818,5.9226,5.9358,5.9424,5.9402,5.9358,6.0693,6.1376,6.1429,6.0496,6.0612,6.1683,6.4246,6.6008,6.7194,6.8525,6.9482,7.0067,7.0067,7.0426,7.0889,7.0889,7.0889,7.0889,0.0,0.0,0.0,0.0,0.0,0.0,0.0,0.0,1.9308,1.9181,1.9647,1.9824,1.942,1.9633,0.0,2.2157,2.2802,2.3521,2.4566,2.5234,2.541,2.4992,2.6348,2.7805,2.9223,3.119,3.233,3.2556,3.4101,3.4653,0.0,0.0,0.0,3.5732,0.0,3.6972,0.0,0.0,0.0,0.0,0.0,3.5517,3.608,3.6646,3.7638,0.0,0.0,0.0,0.0,0.0,0.0,0.0,4.3966,4.4995,4.5849,4.6823,4.749,4.7867,4.7767,4.74,4.7299,4.8209,4.9118,4.978,4.9682,5.0035,5.0544,5.1073,5.1315,5.1307,5.0889,5.1315,5.184,5.2082,5.2366,5.2718,5.3164,5.3321,5.3556,5.3975,5.3766,5.3739,5.4158,5.4759,5.5624,5.6827,5.7647,5.8799,6.044,6.0409,6.1006,6.2485,6.2266,6.2594,6.3654,6.3669,6.3396,6.2822,6.3673,6.4323,6.4797,6.3014,6.3456,6.5645,6.7395,6.8607,6.9321,6.964,7.0157,7.0709,7.0709,7.0799,7.0889,7.0889,7.0889,7.0889,0.0,0.0,0.0,0.0,0.0,0.0,0.0,0.0,1.814,1.814,1.8871,1.9304,1.9039,1.9481,0.0,0.0,2.2651,2.3471,2.4373,2.4925,2.4975,2.4448,2.603,2.7185,2.7754,2.993,3.1311,3.1813,3.3244,3.4048,0.0,0.0,0.0,3.5981,0.0,3.7287,0.0,0.0,0.0,0.0,0.0,0.0,0.0,3.8479,3.932,4.0149,4.069,0.0,0.0,0.0,0.0,0.0,0.0,0.0,4.5663,4.6486,4.7114,4.7465,4.7189,4.6938,4.6938,4.7782,4.9166,5.019,4.9661,5.022,5.0899,5.1067,5.123,5.1262,5.0915,5.1485,5.2072,5.221,5.2389,5.2616,5.2929,5.2955,5.3269,5.4105,5.421,5.4419,5.4968,5.6169,5.722,5.7966,5.9182,6.0505,6.1876,6.1955,6.2578,6.3913,6.3639,6.377,6.4474,6.5124,6.5224,6.4883,6.6206,6.7216,6.7835,6.6452,6.675,6.8353,6.915,6.9842,7.0426,7.0426,7.062,7.0889,7.0889,7.0889,7.0889,7.0889,7.0889,7.0889,0.0,0.0,0.0,0.0,0.0,0.0,0.0,0.0,0.0,1.7191,1.8242,1.8966,1.8849,1.9428,2.0263,0.0,0.0,0.0,2.4097,2.454,2.4591,2.4155,2.5485,2.6348,2.6625,2.8608,3.0131,3.112,3.2361,0.0,0.0,0.0,0.0,3.6281,0.0,0.0,0.0,0.0,0.0,0.0,0.0,0.0,0.0,0.0,0.0,0.0,4.2286,4.2612,4.2688,4.3126,0.0,0.0,0.0,0.0,4.5638,4.6235,4.6747,4.7023,4.6662,4.6683,4.6869,4.7066,4.8909,5.0529,4.9893,5.041,5.0966,5.0714,5.1105,5.1414,5.11,5.1936,5.2702,5.2839,5.2722,5.2763,5.3081,5.3037,5.3321,5.4367,5.5148,5.5823,5.6376,5.825,5.9522,5.977,6.0962,6.2266,6.3624,6.3686,6.4191,6.5293,6.4883,6.4601,6.4601,6.5816,6.6432,6.6477,6.8318,6.9512,7.0127,6.9572,6.9632,7.0157,7.0157,7.044,7.0889,7.0889,7.0889,7.0889,7.0889,7.0889,7.0889,7.0889,7.0889,7.0889,0.0,0.0,0.0,0.0,0.0,0.0,0.0,0.0,0.0,0.0,1.8242,1.8795,1.8276,1.9168,2.0263,2.1407,2.2476,2.3547,2.4616,0.0,0.0,2.4691,2.4917,2.5711,2.716,2.8389,2.9343,3.0015,3.1562,0.0,0.0,0.0,0.0,0.0,0.0,0.0,0.0,0.0,0.0,0.0,0.0,0.0,0.0,0.0,0.0,0.0,0.0,4.4278,4.4278,4.4353,4.4378,0.0,0.0,0.0,4.5698,4.6712,4.7048,4.7174,4.7566,4.8277,4.8623,4.7457,4.9127,5.0757,4.9702,5.0181,5.0687,5.0132,5.1698,5.2708,5.1123,5.2219,5.3565,5.4128,5.3689,5.3835,5.5491,5.5152,5.4994,5.5595,5.687,5.7915,5.8461,6.0314,6.2014,6.3226,6.3967,6.4996,6.6393,6.647,6.6531,6.6729,6.7204,6.7454,6.7454,6.8214,6.8601,6.8601,6.9463,7.0187,7.0769,7.0679,7.0709,7.0769,7.0769,7.0829,7.0889,7.0889,7.0889,7.0889,7.0889,7.0889,7.0889,7.0889,7.0889,7.0889,0.0,0.0,0.0,0.0,0.0,0.0,0.0,0.0,0.0,0.0,0.0,1.8629,1.9016,1.9496,2.0486,2.2228,2.3143,2.3938,2.4758,2.4515,2.4189,2.3873,2.4164,2.485,2.5887,2.7293,2.8273,2.885,3.0809,0.0,0.0,3.465,3.5467,0.0,0.0,0.0,0.0,0.0,0.0,0.0,0.0,0.0,0.0,0.0,0.0,0.0,0.0,0.0,4.5045,4.4715,4.4403,4.4217,4.4468,0.0,0.0,0.0,4.6185,4.6311,4.6878,4.8131,4.9009,4.7749,4.9549,5.1395,5.0608,5.1377,5.2182,5.196,5.3555,5.4153,5.1327,5.286,5.4642,5.4917,5.5628,5.6275,5.6668,5.7442,5.7999,5.8097,5.9352,6.0444,6.1032,6.2591,6.3856,6.4473,6.549,6.6338,6.6983,6.7014,6.7164,6.7553,6.7868,6.8197,6.8571,6.9229,6.9722,7.0081,7.035,7.0649,7.0889,7.0889,7.0889,7.0889,7.0889,7.0889,7.0889,7.0889,7.0889,7.0889,7.0889,7.0889,7.0889,7.0889,7.0889,7.0889,0.0,0.0,0.0,0.0,0.0,0.0,0.0,0.0,0.0,0.0,0.0,1.9011,1.9909,0.0,0.0,0.0,2.357,2.418,2.4566,2.4222,2.372,2.312,2.3537,2.4089,2.4783,2.6323,2.7437,2.8088,0.0,0.0,3.2466,3.3861,3.4853,0.0,3.6118,0.0,0.0,0.0,0.0,0.0,4.1567,4.2746,0.0,0.0,0.0,0.0,0.0,0.0,4.5663,4.5332,4.478,4.4242,4.4242,4.4141,0.0,0.0,0.0,4.5989,4.6341,4.7511,4.8542,4.7998,4.9631,5.139,5.1495,5.2258,5.3049,5.3427,5.4686,5.5004,5.2661,5.433,5.6203,5.6507,5.7647,5.8504,5.8574,5.9743,6.0606,6.0572,6.1825,6.2827,6.3276,6.4608,6.5432,6.5432,6.64,6.7014,6.7014,6.7164,6.7493,6.7987,6.8347,6.875,6.9243,6.9901,7.044,7.0889,7.0889,7.0889,7.0889,7.0889,7.0889,7.0889,7.0889,7.0889,7.0889,7.0889,7.0889,7.0889,7.0889,7.0889,7.0889,7.0889,7.0889,7.0889,0.0,0.0,0.0,0.0,0.0,0.0,0.0,0.0,0.0,0.0,0.0,2.0352,2.0545,2.0969,2.152,2.2281,2.3369,2.4004,2.4029,2.4029,2.372,2.312,2.312,0.0,2.4791,2.5929,2.7043,0.0,0.0,0.0,3.3065,3.3646,3.4502,3.5533,3.6118,3.6695,3.7235,0.0,0.0,0.0,4.29,4.3905,0.0,0.0,0.0,0.0,0.0,0.0,0.0,4.6798,4.6286,4.5412,4.5412,4.502,4.478,0.0,0.0,0.0,4.6813,4.6831,4.7204,4.8274,4.909,5.012,5.2014,5.2067,5.2038,5.3238,5.4029,5.4834,5.59,5.7178,5.8466,5.9755,5.9442,5.991,6.227,6.2091,6.1966,6.2579,6.3907,6.4771,6.48,6.6073,6.6877,6.6877,6.6968,6.7014,6.7014,6.7583,6.7958,6.7987,6.9229,6.9917,6.9947,7.056,7.0859,7.0889,7.0889,7.0889,7.0889,7.0889,7.0889,7.0889,7.0889,7.0889,7.0889,7.0889,7.0889,7.0889,7.0889,7.0889,7.0889,7.0889,7.0889,7.0889,0.0,0.0,0.0,0.0,0.0,0.0,0.0,0.0,0.0,0.0,0.0,0.0,0.0,0.0,0.0,0.0,0.0,0.0,0.0,2.3637,2.3328,2.312,2.3088,2.3797,2.5276,2.608,0.0,0.0,0.0,3.0899,3.1512,3.2803,3.3782,3.4539,3.5828,3.6494,3.6795,3.8266,0.0,0.0,0.0,0.0,0.0,0.0,0.0,0.0,0.0,0.0,0.0,4.6235,4.5573,4.4805,4.4105,4.3754,0.0,4.4468,4.5347,4.6054,4.5998,4.6466,4.7066,4.738,4.9443,5.1376,5.1137,5.3525,5.5795,5.5866,5.6687,5.7822,5.9159,5.9422,5.9727,6.0613,6.1596,6.2255,6.2252,6.3562,6.4258,6.3562,6.5122,6.6245,6.6245,6.6305,6.637,6.637,6.637,6.637,6.637,6.6999,6.7762,6.86,6.9109,6.9752,7.056,7.0799,7.0889,7.0889,7.0889,7.0889,7.0889,7.0889,7.0889,7.0889,7.0889,7.0889,7.0889,7.0889,7.0889,7.0889,7.0889,7.0889,7.0889,7.0889,7.0889,7.0889,0.0,0.0,0.0,0.0,0.0,0.0,0.0,0.0,0.0,0.0,0.0,0.0,0.0,0.0,0.0,0.0,2.4272,2.4197,2.4004,2.3612,2.3471,2.3672,2.3504,2.4089,2.5569,0.0,0.0,0.0,0.0,0.0,0.0,3.1924,3.2928,3.3707,3.5164,3.613,0.0,0.0,0.0,4.1731,0.0,0.0,4.4995,0.0,0.0,0.0,0.0,0.0,0.0,0.0,4.5533,4.4729,0.0,0.0,0.0,0.0,0.0,4.5196,4.5196,4.5583,4.6109,4.666,4.8855,5.0933,5.1185,5.4217,5.7138,5.77,5.8691,5.9786,6.0895,6.0738,6.0662,6.1336,6.2512,6.3192,6.2673,6.4173,6.5142,6.467,6.5806,6.6759,6.6984,6.64,6.5996,6.5996,6.5996,6.5906,6.5667,6.6729,6.7942,6.9273,6.9542,7.0051,7.0889,7.0889,7.0889,7.0889,7.0889,7.0889,7.0889,7.0889,7.0889,7.0889,7.0889,7.0889,7.0889,7.0889,7.0889,7.0889,7.0889,7.0889,7.0889,7.0889,7.0889,7.0889,0.0,0.0,0.0,0.0,0.0,0.0,0.0,0.0,0.0,0.0,0.0,0.0,0.0,0.0,0.0,0.0,2.4859,2.4616,2.4104,2.4079,2.4297,2.4842,0.0,0.0,0.0,0.0,0.0,0.0,0.0,0.0,0.0,0.0,3.1974,0.0,3.4212,3.5643,3.7324,0.0,4.0175,4.2199,0.0,4.3377,4.384,0.0,0.0,0.0,4.516,4.5562,0.0,4.6763,4.6386,0.0,0.0,0.0,0.0,0.0,0.0,0.0,0.0,0.0,0.0,4.6254,4.7206,4.8593,5.2116,5.392,5.5627,5.8446,5.9582,6.0297,6.0985,6.112,6.1299,6.1972,6.2091,6.254,6.3767,6.3977,6.4485,6.5787,6.5966,6.6236,6.6924,6.637,6.5966,6.5996,6.5996,6.5697,6.5024,6.6909,6.8616,6.9887,7.056,7.0859,7.0829,7.0859,7.0889,7.0889,7.0889,7.0889,7.0889,7.0889,7.0889,7.0889,7.0889,7.0889,7.0889,7.0889,7.0889,7.0889,7.0889,7.0889,7.0889,7.0889,7.0889,7.0889,0.0,0.0,0.0,0.0,0.0,2.2387,2.3824,2.4021,0.0,0.0,0.0,0.0,0.0,0.0,0.0,0.0,2.6038,2.5963,2.582,2.5812,2.5862,2.603,2.5469,2.5862,2.7369,0.0,0.0,0.0,0.0,0.0,0.0,0.0,0.0,0.0,3.4025,3.6107,3.8467,3.9183,0.0,4.1153,4.3299,4.4518,0.0,0.0,0.0,0.0,4.6537,4.6662,4.6712,4.6998,4.6386,4.5336,0.0,0.0,0.0,0.0,0.0,0.0,4.4027,0.0,0.0,0.0,0.0,0.0,4.9189,5.247,5.5957,5.7188,5.8515,5.9931,6.152,6.1433,6.115,6.1359,6.1792,6.2211,6.257,6.3408,6.4126,6.4515,6.4979,6.5547,6.6221,6.5667,6.5488,6.5966,6.5996,6.5697,6.5024,6.6909,6.8167,6.8556,6.9648,7.0021,6.9542,6.9991,7.0247,7.0247,7.0679,7.0889,7.0889,7.0889,7.0889,7.0889,7.0889,7.0889,7.0889,7.0889,7.0889,7.0889,7.0889,7.0889,7.0889,7.0889,7.0889,7.0889,0.0,0.0,2.1249,2.2484,2.307,2.3875,2.5406,2.5615,0.0,0.0,0.0,0.0,0.0,0.0,0.0,0.0,2.7738,2.7672,2.7194,2.7169,2.7069,2.6842,2.6289,2.6432,2.7403,0.0,0.0,0.0,0.0,0.0,0.0,0.0,0.0,0.0,0.0,3.6346,3.863,4.0125,0.0,0.0,4.3971,0.0,0.0,4.6401,4.6658,4.6486,4.6948,4.6948,4.6823,4.7274,4.6712,4.5723,0.0,0.0,0.0,0.0,0.0,0.0,0.0,0.0,0.0,0.0,0.0,0.0,4.9018,5.2662,5.6553,5.8227,5.9553,6.0772,6.1874,6.1553,6.109,6.109,6.1672,6.2002,6.1732,6.257,6.3318,6.3602,6.4186,6.4859,6.5518,6.5233,6.5144,6.5547,6.5847,6.5936,6.5847,6.7224,6.7987,6.7987,6.9289,6.9798,6.9423,6.9798,7.0127,7.038,7.0739,7.0889,7.0889,7.0889,7.0889,7.0889,7.0889,7.0889,7.0889,7.0889,7.0889,7.0889,7.0889,7.0889,7.0889,7.0889,7.0889,7.0889,0.0,0.0,2.2347,2.3719,2.4817,2.584,2.6884,2.7693,2.813,0.0,0.0,0.0,0.0,0.0,0.0,0.0,0.0,2.9628,2.8615,2.8499,2.8197,2.7604,2.7069,2.6751,2.6675,2.6097,2.6297,0.0,0.0,0.0,0.0,0.0,0.0,0.0,3.4251,3.6672,3.8517,4.1208,4.2693,4.3361,4.4744,4.5139,4.5144,4.6919,4.6874,4.6018,4.6974,4.7015,4.6718,4.7643,4.7376,4.6582,0.0,0.0,0.0,0.0,4.389,0.0,0.0,0.0,0.0,0.0,0.0,0.0,4.9928,5.295,5.613,5.9285,6.0471,6.1002,6.1234,6.1035,6.0822,6.0732,6.144,6.1822,6.1269,6.1792,6.2405,6.2928,6.3542,6.4126,6.474,6.4845,6.4904,6.4994,6.5547,6.6221,6.6954,6.7643,6.7987,6.7987,6.9289,6.9917,6.9768,6.9917,7.0247,7.0679,7.0829,7.0889,7.0889,7.0889,7.0889,7.0889,7.0889,7.0889,7.0889,7.0889,7.0889,7.0889,7.0889,7.0889,7.0889,7.0889,7.0889,7.0889,2.1499,2.1742,2.2565,2.4712,2.565,2.6648,2.8238,2.8619,0.0,0.0,0.0,0.0,0.0,0.0,0.0,0.0,0.0,0.0,3.1401,3.1009,3.0316,2.9352,2.875,2.8238,2.7805,2.7252,2.7085,2.7311,2.7194,2.7194,0.0,0.0,0.0,0.0,3.5683,3.8163,4.0462,4.2427,4.3821,4.4755,4.5483,4.6269,4.706,4.745,4.7866,4.8284,4.8708,4.8644,4.8396,4.8394,4.8529,4.8417,4.6803,0.0,0.0,4.4991,0.0,0.0,0.0,0.0,0.0,0.0,0.0,0.0,4.6908,4.7961,4.9393,5.2023,5.3248,5.4299,5.588,5.78,5.8987,5.8464,6.0003,6.1419,6.1852,6.2495,6.2734,6.2345,6.2884,6.3333,6.3452,6.3917,6.4411,6.4964,6.5114,6.5727,6.6954,6.7643,6.7987,6.7987,6.9289,6.9468,6.8407,6.9468,6.9798,6.9393,7.041,7.0889,7.0889,7.0889,7.0889,7.0889,7.0889,7.0889,7.0889,7.0889,7.0889,7.0889,7.0889,7.0889,7.0889,7.0889,7.0889,7.0889,2.2445,2.3396,2.4728,2.646,2.7222,2.8256,3.0237,3.0563,0.0,0.0,0.0,0.0,0.0,0.0,0.0,0.0,0.0,0.0,0.0,3.3083,3.2317,3.1635,3.0786,2.9827,2.8715,2.8144,2.7579,2.7006,2.731,2.7776,2.8493,0.0,0.0,0.0,3.7654,3.9918,4.2494,4.4049,4.5019,4.5603,4.6765,4.7321,4.7544,4.8851,4.9153,4.8979,4.9708,4.9857,4.9619,4.8772,4.8867,4.9042,4.7548,4.7114,4.6873,0.0,4.4855,4.3915,0.0,0.0,0.0,4.1845,0.0,0.0,0.0,4.75,4.9063,5.0527,5.2068,5.337,5.4094,5.5326,5.6633,5.7988,5.8969,6.0045,6.1394,6.2195,6.2495,6.2121,6.2674,6.2988,6.2644,6.3438,6.4276,6.4934,6.5293,6.5787,6.646,6.7433,6.7987,6.7987,6.8646,6.884,6.8511,6.9169,6.9498,6.9512,7.044,7.0889,7.0889,7.0889,7.0889,7.0889,7.0889,7.0889,7.0889,7.0889,7.1098,7.1368,7.1038,7.0889,7.0949,7.1278,7.1398,7.1457,2.3993,2.5359,2.7018,2.8222,2.8966,3.0061,3.2064,3.2556,0.0,0.0,0.0,0.0,0.0,0.0,0.0,0.0,0.0,0.0,0.0,3.5225,3.4529,3.4168,3.3004,3.1715,3.0375,2.955,2.8682,2.7748,2.8242,2.9091,3.029,3.1976,3.4617,0.0,0.0,0.0,0.0,0.0,0.0,4.6265,4.8216,4.8618,4.8235,5.0307,5.0488,4.9698,5.0393,5.0701,5.0602,4.9457,4.9367,4.9574,4.8824,4.8257,0.0,0.0,0.0,0.0,0.0,0.0,0.0,0.0,0.0,4.4007,0.0,0.0,0.0,4.9689,5.129,5.2485,5.2111,5.2573,5.3803,5.6076,5.7039,5.7953,5.9177,6.0404,6.135,6.1838,6.2734,6.2974,6.2195,6.3498,6.45,6.48,6.5787,6.6281,6.5996,6.7284,6.8047,6.8197,6.8317,6.863,6.9183,6.9303,6.9512,6.9828,7.056,7.0829,7.0739,7.0859,7.0889,7.0889,7.0889,7.0979,7.1098,7.1098,7.1487,7.2042,7.1338,7.1188,7.1368,7.1876,7.2102,7.2192,2.7184,2.7041,2.7713,2.9337,3.0432,3.1547,3.2813,3.3811,0.0,0.0,0.0,0.0,0.0,0.0,0.0,0.0,0.0,0.0,3.8545,0.0,0.0,3.6867,3.5263,3.4277,3.4097,3.2567,3.1693,3.1565,3.1652,3.2012,3.2654,3.4339,3.6018,3.7785,4.0631,0.0,0.0,0.0,4.7283,4.7001,4.9533,5.0732,5.1021,5.1081,5.1511,5.1982,5.1095,5.1069,5.1429,5.1168,5.1123,5.1142,5.1111,5.0856,5.0229,4.8492,0.0,0.0,0.0,0.0,0.0,0.0,4.2537,0.0,0.0,0.0,4.3996,4.452,0.0,4.5704,4.5654,0.0,0.0,4.8595,5.2463,5.5073,5.3361,5.5854,5.8673,6.0944,6.281,6.3408,6.2211,6.4336,6.5308,6.4186,6.6386,6.7254,6.6056,6.7284,6.8271,6.8854,6.9468,6.9798,6.9887,7.041,7.0171,6.9123,7.032,7.062,7.0127,7.0649,7.0889,7.0889,7.0889,7.1248,7.1803,7.1803,7.2176,7.2727,7.2072,7.2146,7.2668,7.2757,7.2787,7.2787,2.8902,2.8945,0.0,3.1205,3.1679,3.2619,3.49,3.6582,0.0,0.0,0.0,0.0,0.0,0.0,0.0,0.0,0.0,4.1209,4.1337,0.0,0.0,3.9375,3.7772,3.6543,3.5871,3.4512,3.3504,3.2857,3.2857,3.3519,3.4806,3.5885,3.7915,4.0808,4.2437,0.0,4.5481,4.7751,4.8961,4.9453,5.0904,5.222,5.3146,5.189,5.1445,5.1429,5.0592,5.0435,5.0646,5.0737,5.1198,5.1653,5.1139,5.145,0.0,4.944,0.0,0.0,0.0,0.0,0.0,0.0,0.0,0.0,4.4733,0.0,4.4231,0.0,0.0,0.0,0.0,0.0,0.0,0.0,5.0295,5.2317,5.294,5.6151,5.8731,5.9383,6.0678,6.1652,6.2047,6.3767,6.4605,6.4036,6.5742,6.658,6.6041,6.652,6.7343,6.8391,6.869,6.9019,6.9439,7.0067,7.0127,6.9588,7.047,7.0769,7.053,7.0769,7.1098,7.1474,7.1474,7.1846,7.2475,7.2475,7.2864,7.3462,7.3163,7.2984,7.2937,7.3343,7.3492,7.3552,3.1191,0.0,0.0,3.2656,3.3094,3.4298,3.7157,3.8919,4.0043,0.0,0.0,0.0,4.2648,4.2568,0.0,0.0,4.3633,4.3504,4.3787,4.2499,4.1944,4.2398,4.0346,3.9111,3.8912,3.7158,3.5925,3.5249,3.5093,3.5731,3.7063,3.7653,3.9587,4.2553,4.348,4.4983,4.6953,4.8596,4.9881,5.0831,5.1589,5.2644,5.3647,5.252,5.1778,5.1243,5.0994,5.1103,5.1438,5.169,5.2335,5.2865,5.214,5.25,5.2813,0.0,0.0,0.0,4.6824,0.0,0.0,0.0,0.0,0.0,0.0,0.0,0.0,0.0,0.0,0.0,0.0,0.0,0.0,0.0,0.0,4.9524,5.1015,5.4512,5.7143,5.7678,5.8695,6.006,6.191,6.3696,6.4487,6.3904,6.5861,6.661,6.5503,6.5981,6.6729,6.7703,6.8062,6.86,6.9273,6.9917,7.0157,7.0007,7.062,7.0799,7.0679,7.1009,7.1427,7.1923,7.2102,7.2565,7.3176,7.3176,7.3582,7.4151,7.4151,7.3881,7.3522,7.4001,7.4151,7.4257,3.4798,3.375,0.0,3.3312,3.4915,3.694,3.926,4.0094,4.0683,4.1273,4.3,0.0,4.4234,0.0,0.0,0.0,4.6369,4.6119,4.5555,4.4929,4.5087,4.6278,4.3036,4.2252,4.45,4.1181,3.9679,4.0176,3.9653,3.943,3.9508,4.0031,4.0684,4.1442,4.3141,4.4539,4.5818,4.8131,4.9427,5.0054,5.1162,5.1633,5.1816,5.2929,5.3009,5.2622,5.3179,5.4178,5.5236,5.5453,5.5556,5.5524,5.525,5.4909,5.423,5.2204,5.1751,5.1288,4.8335,4.8353,4.8843,4.7392,4.74,4.7707,4.7174,0.0,4.5185,0.0,0.0,0.0,0.0,0.0,0.0,0.0,0.0,0.0,0.0,4.8449,5.2317,5.5944,5.7528,5.9328,6.185,6.4781,6.5676,6.3669,6.7457,6.8181,6.4276,6.5892,6.6984,6.7044,6.8286,6.9273,6.9947,7.056,7.056,7.0007,7.062,7.059,7.0067,7.1294,7.1893,7.1953,7.2595,7.3253,7.3851,7.3851,7.4257,7.4873,7.4873,7.4856,7.4826,7.4856,7.4873,7.4856,3.5335,0.0,3.5163,3.5443,3.6279,3.7656,3.9889,4.1337,4.2437,4.3222,4.4246,4.5109,4.5693,4.6366,4.6822,4.702,4.7388,4.7362,4.6758,4.6198,4.5898,4.591,4.3663,4.2631,4.3075,4.1141,4.0031,3.9874,3.9691,3.977,4.0136,4.0318,4.0737,4.139,4.3533,4.5141,4.6356,4.8657,5.0644,5.225,5.2642,5.2901,5.2918,5.1591,5.1729,5.2573,5.2427,5.3196,5.4345,5.4748,5.5404,5.5946,5.5523,5.6202,5.6718,5.4488,5.4273,5.4287,5.2107,5.2371,5.3006,5.188,5.1965,5.2134,5.1329,4.9961,4.8327,0.0,0.0,0.0,0.0,0.0,0.0,0.0,0.0,0.0,0.0,0.0,5.2749,5.4871,5.605,5.7716,6.0247,6.2986,6.4412,6.386,6.6429,6.7029,6.477,6.5727,6.634,6.634,6.8076,6.9123,6.9333,7.038,7.0799,7.059,7.0799,7.1038,7.1264,7.1713,7.2372,7.3223,7.3462,7.3941,7.4557,7.4557,7.4706,7.4886,7.4886,7.4616,7.4287,7.4736,7.4616,7.4151,3.6358,3.6488,3.6713,3.6633,3.7326,3.8556,4.0499,4.2216,4.3519,4.4074,4.5399,4.6472,4.7048,4.7609,4.8034,4.8221,4.8407,4.8527,4.8549,4.7623,4.7115,4.7138,4.5466,4.4369,4.4029,4.2448,4.1481,4.1115,4.0514,4.0371,4.0737,4.0737,4.1142,4.1965,4.3493,4.5258,4.7193,4.8683,5.0644,5.2794,5.3018,5.3474,5.3833,5.2154,5.2953,5.4901,5.4288,5.5054,5.6389,5.6735,5.7326,5.78,5.7007,5.7465,5.7956,5.5994,5.5963,5.6225,5.4749,5.5052,5.5612,5.4906,5.4937,5.4858,5.3601,5.2717,5.1533,4.9378,0.0,0.0,0.0,0.0,0.0,0.0,0.0,0.0,0.0,5.1308,0.0,5.3342,5.4386,0.0,0.0,6.2009,6.3669,6.4144,6.613,6.655,6.474,6.5278,6.5757,6.5996,6.7478,6.8525,6.9004,7.0051,7.0679,7.0889,7.0889,7.1248,7.1923,7.2162,7.2864,7.3911,7.4168,7.4497,7.4886,7.4886,7.4886,7.4886,7.4646,7.4287,7.3941,7.4377,7.4121,7.3462,3.7952,3.7978,3.7741,3.6955,3.8242,3.9841,4.1169,4.2905,4.4043,4.4069,4.6527,4.8239,4.8239,4.9232,4.9886,4.9834,4.9389,4.9546,5.0618,4.9128,4.871,4.9808,4.8184,4.7281,4.7307,4.5101,4.3912,4.386,4.2213,4.1364,4.1338,4.1338,4.1965,4.3062,4.314,4.5065,4.8289,4.8388,4.9715,5.1787,5.2406,5.3424,5.4584,5.4613,5.6623,5.932,5.8464,5.9395,6.106,6.106,6.106,6.0894,5.9696,5.887,5.8161,5.6972,5.7012,5.7246,5.6347,5.6538,5.6877,5.6487,5.6405,5.5957,5.424,5.4522,5.4631,5.2815,5.1448,0.0,0.0,0.0,0.0,0.0,0.0,0.0,0.0,0.0,0.0,0.0,0.0,0.0,0.0,0.0,6.349,6.4426,6.6681,6.6835,6.4186,6.471,6.5398,6.5966,6.664,6.7627,6.9004,6.9678,7.0306,7.0889,7.0889,7.1278,7.1983,7.2624,7.3266,7.3971,7.4616,7.4886,7.4886,7.4856,7.4856,7.4766,7.4091,7.3821,7.3791,7.3791,7.3402,7.2757,3.8568,3.8867,3.9366,3.9972,4.1159,4.2149,4.2501,4.4408,4.5964,4.6381,4.7858,4.8866,4.8866,4.9494,4.9572,4.871,4.8919,4.9023,4.8893,4.8448,4.8527,4.9285,4.7638,4.6891,4.7307,4.552,4.4134,4.3219,4.2775,4.2357,4.1977,4.1977,4.2578,4.3729,4.5034,4.7096,4.9712,5.0984,5.2385,5.3735,5.3385,5.4913,5.7325,5.6721,5.8545,6.1044,5.8413,5.8702,6.037,6.037,6.0685,6.1034,6.0709,6.0832,6.0924,6.0138,6.0333,6.0584,5.9349,5.985,6.0425,5.9113,5.9055,5.9028,5.7803,5.7378,5.6715,5.4903,5.4403,5.4019,5.3102,5.1516,0.0,0.0,0.0,0.0,0.0,0.0,0.0,0.0,0.0,0.0,0.0,0.0,6.247,6.4367,6.6681,6.7044,6.4859,6.5862,6.634,6.5996,6.664,6.7627,6.9004,6.9678,7.0306,7.0889,7.0889,7.1517,7.2654,7.2817,7.3552,7.4646,7.4826,7.4886,7.4856,7.4377,7.4168,7.4108,7.3432,7.2864,7.2432,7.2432,7.2312,7.2056,4.0291,4.0488,4.0944,4.1585,4.3454,4.4616,4.3912,4.5532,4.7153,4.7975,4.8878,4.9546,4.9808,4.9886,4.9755,4.9363,4.918,4.9259,4.9651,4.8997,4.884,4.9416,4.8762,4.8291,4.8079,4.7167,4.6359,4.5675,4.49,4.4626,4.4804,4.4269,4.5111,4.7038,4.6862,4.8927,5.2596,5.3794,5.4842,5.5666,5.5597,5.6637,0.0,5.8407,5.9608,6.099,5.9145,5.9547,6.0968,6.0968,6.1417,6.1972,6.1972,6.2032,6.2032,6.1642,6.1792,6.1942,6.1178,6.1537,6.1883,6.0981,6.0964,6.0807,5.9465,5.9589,5.962,5.8309,5.7938,5.7871,5.7796,5.6008,0.0,0.0,0.0,0.0,0.0,0.0,0.0,0.0,0.0,0.0,0.0,0.0,0.0,6.4245,6.593,6.6531,6.5695,6.5561,6.5815,6.643,6.652,6.7358,6.8974,6.9363,7.0021,7.0889,7.0889,7.1591,7.2907,7.2907,7.3642,7.4886,7.4886,7.4736,7.4437,7.4078,7.3732,7.3402,7.2714,7.2056,7.1457,7.1457,7.1457,7.1398,4.2421,4.2526,4.2683,4.2748,4.5349,4.6955,4.5572,4.6734,4.8079,4.8997,4.9703,5.0278,5.0644,5.0263,5.02,5.0629,4.9782,4.9834,5.1282,5.0017,4.9416,4.9886,5.0394,5.0252,4.9337,4.9259,4.9299,4.9455,4.7855,4.7676,4.8813,4.7744,4.8802,5.1507,4.937,5.1307,5.6221,5.6612,5.7124,5.7732,5.8071,5.8266,5.8517,5.9757,6.019,6.01,6.019,6.1058,6.2091,6.2091,6.2555,6.3108,6.3108,6.2764,6.2361,6.2361,6.2361,6.2331,6.2241,6.2225,6.2211,6.2121,6.2091,6.1705,6.0194,6.1219,6.2351,6.1704,6.1274,6.1498,6.3031,6.069,5.839,0.0,0.0,0.0,0.0,0.0,0.0,0.0,0.0,0.0,0.0,0.0,0.0,0.0,6.5148,6.597,6.6579,6.502,6.4993,6.6939,6.634,6.6969,6.8974,6.9004,6.9632,7.0889,7.0889,7.1591,7.2907,7.2907,7.3582,7.4766,7.4766,7.4377,7.3762,7.3672,7.3253,7.2578,7.1996,7.1398,7.0889,7.0889,7.0889,7.0889,4.3598,4.4356,4.5153,4.5651,4.701,4.8108,4.8317,4.9374,4.9923,4.9206,5.0383,5.0969,5.0148,5.0409,5.0472,5.0095,4.9886,4.9886,5.0174,4.9912,4.9808,4.9912,5.0017,5.02,5.0514,5.0002,5.0282,5.1403,5.0591,5.0862,5.2152,5.1936,5.2683,5.4177,5.4661,5.6523,5.9286,5.8898,5.9376,6.028,5.8791,5.8823,5.9831,6.0625,6.0565,6.016,6.0745,6.1433,6.2091,6.2091,6.2555,6.3108,6.3108,6.3363,6.3677,6.3677,6.3677,6.3558,6.3063,6.2914,6.2794,6.2255,6.2091,6.202,6.1719,6.1923,6.2158,6.2032,6.2358,6.2536,6.2049,6.0801,6.0088,6.0823,0.0,0.0,0.0,0.0,0.0,0.0,0.0,0.0,0.0,0.0,0.0,0.0,0.0,6.6891,6.7215,6.6934,6.6838,6.6999,6.634,6.6969,6.8974,6.9004,6.9632,7.0889,7.0889,7.1591,7.2907,7.2907,7.3343,7.4078,7.4078,7.3702,7.3027,7.2491,7.1863,7.1248,7.1128,7.1009,7.0889,7.0889,7.0889,7.0889,4.5377,4.6435,0.0,4.7376,4.8579,4.9651,4.9938,5.0461,5.0697,5.0435,5.088,5.1073,5.0812,5.0514,5.0357,5.0368,5.0095,4.9912,4.9912,4.9912,5.0056,5.0409,5.0996,5.1749,5.2704,5.2746,5.3547,5.5164,5.4555,5.5449,5.7712,5.7035,5.7743,5.9611,6.0158,6.0314,6.0185,6.0552,6.085,6.1034,6.0455,6.039,6.0685,6.1373,6.1403,6.1178,6.1493,6.2061,6.2555,6.2225,6.2555,6.3108,6.3108,6.3303,6.3602,6.3917,6.4006,6.4006,6.4066,6.4096,6.3917,6.3258,6.3079,6.2989,6.2704,6.2854,6.2989,6.2674,6.3023,6.3252,6.2958,6.2514,6.2322,6.285,6.2096,0.0,0.0,0.0,0.0,0.0,0.0,0.0,0.0,0.0,0.0,0.0,0.0,6.7123,6.7378,6.7112,6.6957,6.6999,6.67,6.7328,6.8974,6.9004,6.9632,7.0889,7.059,7.1115,7.2355,7.2009,7.2415,7.3402,7.3402,7.3013,7.2325,7.1667,7.1188,7.0889,7.0889,7.0889,7.0889,7.0889,7.0889,7.0889,4.7234,4.8344,4.9363,4.8997,5.0069,5.0917,5.0827,5.101,5.1178,5.123,5.1178,5.1178,5.123,5.0775,5.0592,5.0943,5.0784,5.0677,5.0677,5.0933,5.1266,5.1665,5.2648,5.361,5.4471,5.5089,5.6319,5.8203,5.8009,5.9,6.103,6.1305,6.244,6.4216,6.4066,6.2808,6.0882,6.1736,6.1882,6.1539,6.1942,6.1792,6.1389,6.2061,6.2211,6.2121,6.2421,6.2854,6.3243,6.2839,6.2884,6.3108,6.3108,6.3183,6.3422,6.4036,6.4216,6.4351,6.5039,6.5114,6.4874,6.4351,6.4216,6.4066,6.3422,6.3767,6.4006,6.3243,6.3323,6.3669,6.4288,6.4169,6.411,6.4431,6.3989,0.0,0.0,0.0,0.0,0.0,0.0,0.0,0.0,0.0,0.0,0.0,0.0,6.6924,6.749,6.6992,6.6913,6.7418,6.7148,6.7777,6.9393,6.9123,6.9572,7.0709,7.0217,7.0576,7.1683,7.1128,7.1547,7.2684,7.2684,7.2295,7.1653,7.1128,7.0889,7.0889,7.0889,7.0889,7.0889,7.0889,7.0889,7.0889,4.8866,4.9808,5.0775,5.1204,5.1429,5.1361,5.088,5.169,5.1779,5.0278,5.1387,5.1753,5.0226,5.1361,5.2067,5.157,5.2524,5.3166,5.3166,5.4231,5.4658,5.4187,5.4789,5.4945,5.4513,5.5089,5.6319,5.8203,5.935,5.9109,5.7693,6.2993,6.5263,6.4874,6.4276,6.3559,6.2799,6.2318,6.2405,6.2868,6.2301,6.2061,6.2061,6.2734,6.2614,6.2241,6.3408,6.3857,6.4006,6.456,6.4006,6.3108,6.3108,6.3482,6.4036,6.471,6.4904,6.5054,6.5727,6.5458,6.4994,6.4904,6.4904,6.474,6.4066,6.4441,6.456,6.3333,6.3109,6.3606,6.5094,6.4636,6.4413,6.5613,6.5515,6.5148,0.0,0.0,0.0,0.0,0.0,0.0,0.0,6.4621,0.0,0.0,6.6694,0.0,6.776,6.7502,6.779,6.8778,6.7627,6.8211,7.0709,6.9572,6.9363,7.0067,7.0037,7.0366,7.0979,7.0919,7.1308,7.1983,7.1983,7.1607,7.0979,7.0919,7.0889,7.0889,7.0889,7.0889,7.0889,7.0889,7.0889,7.0889,5.1612,5.2056,5.2302,5.2171,5.2145,5.2067,5.1858,5.2197,5.225,5.1544,5.2067,5.2223,5.1544,5.1753,5.1858,5.1622,5.275,5.3347,5.298,5.4484,5.5478,5.5619,5.6551,5.7138,5.7243,5.79,5.8798,5.9941,6.1286,6.2124,6.251,6.5293,6.6041,6.4964,6.4291,6.3438,6.2525,6.2644,6.2854,6.3078,6.2794,6.2914,6.3258,6.3542,6.3468,6.3348,6.4261,6.459,6.465,6.4904,6.468,6.4231,6.4231,6.4411,6.474,6.5398,6.5607,6.5757,6.643,6.64,6.6086,6.5697,6.5607,6.5428,6.474,6.5129,6.5338,6.4411,6.4231,6.4561,6.5621,6.5307,6.5142,6.5885,6.5892,6.574,6.5616,0.0,0.0,0.0,0.0,0.0,0.0,0.0,0.0,0.0,0.0,0.0,7.0485,6.9303,6.907,7.0095,6.8106,6.8271,7.0889,6.9259,6.893,7.0007,6.9588,6.9738,7.0366,7.0366,7.0679,7.1308,7.1308,7.1158,7.0889,7.0889,7.0889,7.0889,7.0889,7.0889,7.0889,7.0889,7.0889,7.0889,5.3321,5.34,5.3321,5.3034,5.2877,5.2746,5.2746,5.2903,5.3142,5.3562,5.3594,5.3313,5.2585,5.2628,5.2679,5.2679,5.4197,5.4982,5.4566,5.6131,5.7209,5.7495,5.8302,5.896,5.9385,5.9861,6.0416,6.109,6.2435,6.3213,6.3408,6.4276,6.4784,6.4964,6.4126,6.3318,6.2674,6.2974,6.3303,6.3662,6.3662,6.3917,6.4306,6.4306,6.4306,6.4381,6.5054,6.5293,6.5323,6.5518,6.5577,6.5518,6.5114,6.4994,6.5144,6.5787,6.6131,6.643,6.7104,6.7284,6.7194,6.67,6.643,6.6131,6.5458,6.5817,6.6161,6.5697,6.5263,6.5203,6.5877,6.5815,6.5693,6.583,6.6091,6.616,6.5767,6.6144,0.0,0.0,0.0,0.0,6.6876,6.7929,0.0,0.0,0.0,0.0,7.0729,7.0061,6.9873,7.0334,6.8361,6.8391,7.062,6.887,6.8466,6.9409,6.9123,6.9243,6.9738,7.0097,7.0516,7.0889,7.0889,7.0889,7.0889,7.0889,7.0889,7.0889,7.0889,7.0889,7.0889,7.0889,7.0889,7.0889,5.34,5.34,5.3556,5.4079,5.3739,5.34,5.34,5.3844,5.4697,5.6079,5.6206,5.5219,5.2775,5.4167,5.5263,5.5263,5.7632,5.9147,5.9103,6.031,6.0733,6.0073,6.0073,6.0086,6.01,6.01,6.0416,6.109,6.2435,6.1088,5.7244,5.856,6.1269,6.4934,6.3677,6.3422,6.3947,6.3333,6.3827,6.4964,6.4964,6.4964,6.4994,6.4994,6.4994,6.5084,6.5757,6.5996,6.6101,6.6759,6.6984,6.6729,6.5428,6.4994,6.5144,6.5787,6.646,6.7134,6.7808,6.7987,6.7987,6.7987,6.7463,6.6819,6.6131,6.652,6.6984,6.6984,6.5906,6.5203,6.5877,6.5996,6.589,6.5556,6.6321,6.653,6.5201,6.6438,0.0,6.7412,6.8485,6.9144,6.8903,6.9726,0.0,0.0,0.0,6.8995,6.7082,6.9085,6.99,6.9048,6.8361,6.8646,7.0007,6.8676,6.8017,6.8047,6.869,6.9004,6.9064,7.032,7.0889,7.0889,7.0889,7.0889,7.0889,7.0889,7.0889,7.0889,7.0889,7.0889,7.0889,7.0889,7.0889,7.0889,5.455,5.4236,5.4001,5.4184,5.5191,5.5988,5.5988,5.7622,5.8999,5.9448,5.8772,5.8098,5.7713,5.7074,5.6652,5.6652,5.821,5.9219,5.9219,6.0383,6.1,6.0805,6.1224,6.1253,6.0805,6.1224,6.1343,6.109,6.2435,6.2644,6.1822,6.2241,6.2899,6.3707,6.3722,6.3827,6.4006,6.4291,6.5173,6.6311,6.5877,6.6221,6.7014,6.655,6.637,6.64,6.661,6.667,6.67,6.6924,6.7014,6.7014,6.7044,6.6729,6.649,6.7164,6.7493,6.7822,6.8511,6.869,6.869,6.869,6.8181,6.7628,6.7403,6.7164,6.7014,6.7014,6.667,6.643,6.664,6.6311,6.6116,6.6472,6.6414,6.6324,6.6364,6.6814,6.7305,6.7757,6.8155,6.8381,6.8284,6.9123,6.969,6.9695,7.0993,7.1647,7.1279,6.9824,6.9605,7.0949,6.86,6.8181,6.9977,6.8211,6.7792,6.8675,6.8884,6.9453,7.032,7.0709,7.0889,7.0889,7.0889,7.0889,7.0889,7.0889,7.0889,7.0889,7.0889,7.0889,7.0889,7.0889,7.0889,7.0889,5.536,5.5538,5.5748,5.5944,5.745,5.8622,5.8622,5.9982,6.1263,6.2029,6.1253,6.1056,6.2194,6.0816,5.9526,5.8775,5.9902,6.0675,6.0675,6.1424,6.1732,6.1493,6.1882,6.1912,6.1479,6.1882,6.2121,6.2197,6.3288,6.4006,6.4381,6.4381,6.4171,6.3827,6.4216,6.4515,6.4814,6.5458,6.637,6.7373,6.7178,6.7627,6.8331,6.7897,6.7597,6.7403,6.7657,6.7583,6.7403,6.7673,6.7747,6.7807,6.8241,6.8092,6.7852,6.8241,6.8541,6.884,6.9243,6.9379,6.9379,6.9379,6.887,6.8301,6.8047,6.7688,6.7313,6.7044,6.7014,6.7014,6.7014,6.667,6.661,6.7254,6.7014,6.6894,6.7313,6.7597,6.794,6.8456,6.8515,6.8531,6.8545,6.8845,6.8884,6.8522,6.9784,7.0789,7.1275,7.04,6.9933,7.0051,6.8301,6.7852,6.887,6.7643,6.7553,6.863,6.9123,6.9901,7.0889,7.0889,7.0889,7.0889,7.0889,7.0889,7.0889,7.0889,7.0889,7.0889,7.0889,7.0889,7.0889,7.0889,7.0889,7.0889,5.6144,5.735,5.8467,5.8946,6.0253,6.1216,6.1216,6.1324,6.2105,6.3969,6.366,6.399,6.5875,6.4964,6.3446,6.1594,6.2484,6.3123,6.3108,6.3138,6.2854,6.2181,6.2181,6.2181,6.2181,6.2181,6.275,6.3947,6.459,6.4934,6.4934,6.4964,6.5054,6.5144,6.5144,6.5547,6.6236,6.6879,6.7523,6.8197,6.884,6.9093,6.9123,6.9093,6.869,6.8211,6.8794,6.86,6.8151,6.8794,6.9004,6.9004,6.9064,6.9064,6.9064,6.9064,6.9512,7.0007,7.0037,7.0067,7.0067,7.0067,6.9558,6.8884,6.8211,6.8077,6.7882,6.7284,6.7104,6.7074,6.7074,6.7029,6.7194,6.7838,6.7987,6.7987,6.7987,6.8571,6.907,6.9344,6.9357,6.9344,6.9311,6.8747,6.8044,6.7283,6.7164,6.7433,6.8107,7.0636,7.0528,6.7178,6.7628,6.7628,6.7014,6.7044,6.7433,6.8167,6.9439,7.0366,7.0889,7.0889,7.0889,7.0889,7.0889,7.0889,7.0889,7.0889,7.0889,7.0889,7.0889,7.0889,7.0889,7.0889,7.0889,7.0889,5.9652,6.0056,6.0353,6.0477,6.205,6.3297,6.3297,6.4595,6.5753,6.6224,6.6151,6.6229,6.6699,6.646,6.589,6.4932,6.4188,6.3602,6.3123,6.3542,6.3512,6.2884,6.2854,6.2854,6.2854,6.2854,6.3003,6.3303,6.3917,6.4246,6.4246,6.477,6.5547,6.652,6.652,6.7178,6.8315,6.8465,6.8914,6.9528,6.9708,7.0021,7.041,6.9947,6.9648,6.9468,6.9123,6.8884,6.8794,6.8944,6.9004,6.9093,6.9618,6.9768,6.9768,6.9768,6.9842,7.0035,7.056,7.0679,7.0679,7.0679,7.0201,6.9588,6.893,6.8764,6.8704,6.8555,6.8122,6.7778,6.7778,6.7343,6.7044,6.7224,6.7688,6.7987,6.7987,6.8571,6.9032,6.9086,6.9086,6.8877,6.8385,6.8176,6.8432,6.9229,6.884,6.884,6.9498,6.9702,6.9148,6.7808,6.7433,6.7164,6.7014,6.7493,6.8377,6.9528,7.032,7.0769,7.0889,7.0889,7.0889,7.0889,7.0889,7.0889,7.0889,7.0889,7.0889,7.0889,7.0889,7.0889,7.0889,7.0889,7.0889,7.0889,6.1264,6.1923,6.2451,6.2736,6.422,6.5475,6.577,6.6761,6.7553,6.7867,6.7897,6.7897,6.7897,6.7643,6.7313,6.6954,6.5682,6.4665,6.4006,6.4276,6.4291,6.3977,6.3977,6.3977,6.3977,6.3977,6.4126,6.444,6.5368,6.5667,6.5383,6.6355,6.7059,6.7463,6.7792,6.8315,6.9034,6.9333,6.9678,7.0007,7.0306,7.062,7.0859,7.053,7.0247,6.9977,6.9901,6.9692,6.9498,6.9782,6.9871,6.9931,7.0306,7.041,7.041,7.041,7.038,7.0424,7.0799,7.0889,7.0889,7.0889,7.0649,7.0231,6.9602,6.9453,6.9363,6.9064,6.8704,6.8451,6.8451,6.7912,6.7553,6.7867,6.7972,6.7987,6.7987,6.8301,6.8451,6.8106,6.8076,6.7942,6.7583,6.7523,6.7852,6.8571,6.8286,6.8226,6.86,6.8286,6.7912,6.7553,6.7194,6.7164,6.7433,6.8437,6.9289,7.0007,7.062,7.0889,7.0889,7.0889,7.0889,7.0889,7.0889,7.0889,7.0889,7.0889,7.0889,7.0889,7.0889,7.0889,7.0889,7.0889,7.0889,7.0889,6.2526,6.3714,6.4778,6.5272,6.645,6.7493,6.8062,6.8151,6.8361,6.8914,6.9093,6.9153,6.9153,6.872,6.8407,6.8317,6.7254,6.6236,6.5353,6.5398,6.5353,6.5144,6.5144,6.5084,6.4994,6.4994,6.5278,6.5847,6.7104,6.7403,6.6894,6.8226,6.86,6.8197,6.8854,6.9213,6.9333,6.9871,7.0127,7.0187,7.0679,7.0889,7.0889,7.0889,7.059,7.0217,7.0709,7.056,7.0217,7.0739,7.0889,7.0889,7.0889,7.0889,7.0889,7.0889,7.0889,7.0889,7.0889,7.0889,7.0889,7.0889,7.0889,7.0769,7.0247,7.0127,6.9977,6.9393,6.9213,6.9153,6.9153,6.86,6.8451,6.9423,6.887,6.8407,6.869,6.8496,6.8017,6.7254,6.7164,6.7104,6.7014,6.7014,6.7014,6.7014,6.7014,6.7014,6.7014,6.7104,6.7164,6.7164,6.7164,6.7523,6.8287,6.9439,7.0037,7.0157,7.0649,7.0889,7.0889,7.0889,7.0889,7.0889,7.0889,7.0889,7.0889,7.0889,7.0889,7.0889,7.0889,7.0889,7.0889,7.0889,7.0889,7.0889,6.5958,6.6821,6.7423,6.7497,6.816,6.8704,6.8824,6.8824,6.8884,6.9004,6.9498,6.9858,6.9858,7.0201,7.0231,6.9738,6.9498,6.86,6.6819,6.7224,6.7044,6.5877,6.5847,6.5577,6.5024,6.4994,6.5054,6.5159,6.5936,6.6251,6.6176,6.7523,6.8391,6.8854,6.9558,7.0111,7.062,7.0709,7.0769,7.0769,7.0859,7.0889,7.0889,7.0889,7.0829,7.0769,7.0859,7.0829,7.0769,7.0859,7.0889,7.0889,7.0889,7.0889,7.0889,7.0889,7.0889,7.0889,7.0889,7.0889,7.0889,7.0889,7.0889,7.0889,7.0769,7.0769,7.0739,7.062,7.0201,6.9812,6.9766,6.9273,6.9602,7.192,7.0829,7.0277,7.1906,7.0726,6.9229,6.7987,6.7822,6.7613,6.7044,6.7014,6.7014,6.7014,6.7014,6.7014,6.7014,6.7523,6.7822,6.7822,6.7822,6.8437,6.9678,6.9887,7.0277,7.0769,7.0859,7.0889,7.0889,7.0889,7.0889,7.0889,7.0889,7.0889,7.0889,7.0889,7.0889,7.0889,7.0889,7.0889,7.0889,7.0889,7.0889,7.0889,6.7877,6.8331,6.8541,6.8541,6.8794,6.9123,6.9482,6.9558,6.9678,6.9991,7.029,7.047,7.047,7.0739,7.0799,7.05,7.0187,6.9618,6.869,6.8227,6.7882,6.7627,6.6909,6.64,6.6086,6.6774,6.6804,6.6071,6.7119,6.7238,6.658,6.7897,6.872,6.9034,6.9708,7.0336,7.0889,7.0889,7.0889,7.0889,7.0889,7.0889,7.0889,7.0889,7.0889,7.0889,7.0889,7.0889,7.0889,7.0889,7.0889,7.0889,7.0889,7.0889,7.0889,7.0889,7.0889,7.0889,7.0889,7.0889,7.0889,7.0889,7.0889,7.0889,7.0889,7.0889,7.0889,7.0889,7.0679,7.047,7.0424,6.9961,6.9931,7.1128,7.026,6.9782,7.0679,7.0021,6.9229,6.86,6.8541,6.8421,6.8106,6.8076,6.8076,6.8076,6.8076,6.8076,6.8076,6.8391,6.8541,6.8541,6.89,6.9379,6.9977,7.032,7.062,7.0889,7.0889,7.0889,7.0889,7.0889,7.0889,7.0889,7.0889,7.0889,7.0889,7.0889,7.0889,7.0889,7.0889,7.0889,7.0889,7.0889,7.0889,7.0889,6.8884,6.9123,6.9213,6.9243,6.9363,6.9602,7.0127,7.0217,7.0396,7.0829,7.0889,7.0889,7.0889,7.0889,7.0889,7.0889,7.0486,7.0217,7.0217,6.9109,6.8556,6.878,6.7792,6.7164,6.7014,6.8166,6.8271,6.7224,6.8271,6.8331,6.7478,6.8675,6.9243,6.9243,6.9917,7.0486,7.0889,7.0889,7.0889,7.0889,7.0889,7.0889,7.0889,7.0889,7.0889,7.0889,7.0889,7.0889,7.0889,7.0889,7.0889,7.0889,7.0889,7.0889,7.0889,7.0889,7.0799,7.0709,7.0859,7.0889,7.0889,7.0889,7.0799,7.0679,7.0679,7.0679,7.0679,7.0679,7.0799,7.0889,7.0889,7.05,7.0396,7.1025,7.0171,6.9602,7.0081,6.9602,6.9183,6.9004,6.9004,6.9004,6.9004,6.9004,6.9004,6.9004,6.9004,6.9004,6.9004,6.9153,6.9303,6.9453,6.9798,7.0067,7.0217,7.0679,7.0889,7.0889,7.0889,7.0889,7.0889,7.0889,7.0889,7.0889,7.0889,7.0889,7.0889,7.0889,7.0889,7.0889,7.0889,7.0889,7.0889,7.0889,7.0889,7.0889,6.9004,6.9437,6.9855,6.9917,7.038,7.0769,7.0829,7.0829,7.0859,7.0889,7.0889,7.0889,7.0889,7.0889,7.0889,7.0889,7.0859,7.0829,7.0829,7.0217,6.9319,6.8137,6.7987,6.7643,6.7014,6.7703,6.8047,6.7928,6.8047,6.8331,6.8884,6.9588,6.9917,6.9947,7.056,7.0859,7.0889,7.0889,7.0889,7.0889,7.0889,7.0889,7.0889,7.0889,7.0889,7.0889,7.0889,7.0889,7.0889,7.0889,7.0889,7.0889,7.0889,7.0889,7.0889,7.0889,7.05,7.0187,7.0739,7.0889,7.0889,7.0889,7.047,7.0067,7.0067,7.0067,7.0067,7.0067,7.05,7.0889,7.0889,7.0859,7.1637,7.4138,7.2415,7.1398,7.3283,7.1444,6.9708,6.9064,6.9004,6.9004,6.9004,6.9004,6.9004,6.9004,6.9004,6.9004,6.9004,6.9588,7.0187,7.0739,7.0277,7.0277,7.0829,7.0889,7.0889,7.0889,7.0889,7.0889,7.0889,7.0889,7.0889,7.0889,7.0889,7.0889,7.0889,7.0889,7.0889,7.0889,7.0889,7.0889,7.0889,7.0889,7.0889,7.0889,7.0111,7.0364,7.0514,7.056,7.0739,7.0889,7.0889,7.0889,7.0889,7.0889,7.0889,7.0889,7.0889,7.0889,7.0889,7.0889,7.056,7.0336,7.0336,6.9349,6.872,6.863,6.863,6.8301,6.7613,6.869,6.881,6.7987,6.8421,6.8734,6.9004,6.884,6.9199,7.0007,7.0247,7.056,7.0889,7.0889,7.0889,7.0889,7.0889,7.0889,7.0889,7.0889,7.0889,7.0889,7.0889,7.0889,7.0889,7.0889,7.0889,7.0889,7.0889,7.0889,7.0829,7.044,7.0187,6.9947,6.9782,6.9722,6.9722,6.9722,6.9542,6.9498,6.9917,7.0007,7.0097,7.047,7.0739,7.0889,7.0889,7.0889,7.1248,7.2235,7.1547,7.1158,7.1936,7.1188,7.047,7.0201,7.0171,7.0171,7.0171,7.0171,7.0171,7.0171,7.0171,7.0171,7.0171,7.041,7.0649,7.0889,7.0679,7.0679,7.0889,7.0889,7.0889,7.0889,7.0889,7.0889,7.0889,7.0889,7.0889,7.0889,7.0889,7.0889,7.0889,7.0889,7.0889,7.0889,7.0889,7.0889,7.0889,7.0889,7.0889,7.0889,7.0829,7.0889,7.0889,7.0889,7.0889,7.0889,7.0889,7.0889,7.0889,7.0889,7.0889,7.0889,7.0889,7.0889,7.0889,7.0889,7.05,7.0217,7.0007,6.8736,6.8092,6.8345,6.8974,6.89,6.8017,6.9319,6.9558,6.8646,6.9079,6.9423,6.9602,6.9139,6.9409,7.0277,7.0277,7.05,7.0889,7.0889,7.0889,7.0889,7.0889,7.0889,7.0889,7.0889,7.0889,7.0889,7.0889,7.0889,7.0889,7.0889,7.0889,7.0889,7.0889,7.0769,7.053,7.0127,6.9708,6.9259,6.881,6.8525,6.8465,6.8884,6.8824,6.881,6.9259,6.9528,6.9798,7.0231,7.062,7.0889,7.0889,7.0889,7.0889,7.0889,7.0889,7.0889,7.0889,7.0889,7.0889,7.0889,7.0889,7.0889,7.0889,7.0889,7.0889,7.0889,7.0889,7.0889,7.0889,7.0889,7.0889,7.0889,7.0889,7.0889,7.0889,7.0889,7.0889,7.0889,7.0889,7.0889,7.0889,7.0889,7.0889,7.0889,7.0889,7.0889,7.0889,7.0889,7.0889,7.0889,7.0889,7.0889,7.0889,7.0889,7.0889,7.0889,7.0889,7.0889,7.0889,7.0889,7.0889,7.0889,7.0889,7.0889,7.0889,7.0889,7.0889,7.0889,7.0889,7.0889,7.0889,7.0889,7.0889,7.0649,7.0037,6.875,6.7703,6.7044,6.893,6.9365,6.8047,6.9319,7.0007,7.0007,7.0007,7.0306,7.0889,7.0889,7.0889,7.0889,7.0889,7.0889,7.0889,7.0889,7.0889,7.0889,7.0889,7.0889,7.0889,7.0889,7.0889,7.0889,7.0889,7.0889,7.0889,7.0889,7.0889,7.0889,7.0889,7.0486,7.0007,7.0007,6.9065,6.8017,6.7987,6.7493,6.7313,6.8645,6.8481,6.7987,6.8017,6.8541,6.9004,6.9004,7.0021,7.0889,7.0889,7.0889,7.0889,7.0889,7.0889,7.0889,7.0889,7.0889,7.0889,7.0889,7.0889,7.0889,7.0889,7.0889,7.0889,7.0889,7.0889,7.0889,7.0889,7.0889,7.0889,7.0889,7.0889,7.0889,7.0889,7.0889,7.0889,7.0889,7.0889,7.0889,7.0889,7.0889,7.0889,7.0889,7.0889,7.0889,7.0889,7.0889,7.0889,7.0889,7.0889,7.0889,7.0889,7.0889,7.0889,7.0889,7.0889,7.0889,7.0889,7.0889,7.0889,7.0889,7.0889,7.0889,7.0889,7.0889,7.0889,7.0889,7.0889,7.0889,7.0889,7.0889,7.0889,7.0649,7.0037,7.0037,6.9542,6.8435,6.8541,6.8856,6.9379,6.9798,7.0007,7.0007,7.0007,7.0306,7.0889,7.0486,7.05,7.0889,7.0889,7.0889,7.0889,7.0889,7.0889,7.0889,7.0889,7.0889,7.0889,7.0889,7.0889,7.0889,7.0889,7.0889,7.0889,7.0889,7.0889,7.0889,7.0889,7.0769,7.044,6.9542,6.9004,6.8511,6.7553,6.7164,6.7224,6.8092,6.8167,6.8257,6.9169,6.9199,6.9243,7.0141,7.029,7.0396,7.0829,7.0889,7.0889,7.0889,7.0889,7.0889,7.0889,7.0889,7.0889,7.0889,7.0889,7.0889,7.0889,7.0889,7.0889,7.0889,7.0889,7.0889,7.0889,7.0889,7.0889,7.0889,7.0889,7.0889,7.0889,7.0889,7.0889,7.0889,7.0889,7.0889,7.0889,7.0889,7.0889,7.0889,7.0889,7.0889,7.0889,7.0889,7.0889,7.0889,7.0889,7.0889,7.0889,7.0889,7.0889,7.0889,7.0889,7.0889,7.0889,7.0889,7.0889,7.0889,7.0889,7.0889,7.0889,7.0889,7.0889,7.0889,7.0889,7.0889,7.0889,7.0889,7.0679,7.05,7.0366,7.0231,7.0021,6.9752,6.9139,6.9185,6.9977,7.0247,7.0366,7.0366,7.0366,7.053,7.0889,7.053,7.056,7.0889,7.0889,7.0889,7.0889,7.0889,7.0889,7.0889,7.0889,7.0889,7.0889,7.0889,7.0889,7.0889,7.0889,7.0889,7.0889,7.0889,7.0889,7.0889,7.0889,7.0739,7.038,6.9602,6.9213,6.8824,6.8016,6.7777,6.7972,6.863,6.8407,6.8287,6.9349,6.9498,6.9602,7.038,7.044,7.047,7.0829,7.0889,7.0889,7.0889,7.0889,7.0889,7.0889,7.0889,7.0889,7.0889,7.0889,7.0889,7.0889,7.0889,7.0889,7.0889,7.0889,7.0889,7.0889,7.0889,7.0889,7.0889,7.0889,7.0889,7.0889,7.0889,7.0889,7.0889,7.0889,7.0889,7.0889,7.0889,7.0889,7.0889,7.0889,7.0889,7.0889,7.0889,7.0889,7.0889,7.0889,7.0889,7.0889,7.0889,7.0889,7.0889,7.0889,7.0889,7.0889,7.0889,7.0889,7.0889,7.0889,7.0889,7.0889,7.0889,7.0889,7.0889,7.0889,7.0889,7.0889,7.0889,7.0396,7.0306,7.0859,6.9812,6.9692,7.0859,7.0366,7.0067,7.0067,7.062,7.0889,7.0889,7.0889,7.0889,7.0889,7.0889,7.0889,7.0889,7.0889,7.0889,7.0889,7.0889,7.0889,7.0889,7.0889,7.0889,7.0889,7.0889,7.0889,7.0889,7.0889,7.0889,7.0889,7.0889,7.0889,7.0889,7.0889,7.05,7.0067,7.0007,6.9558,6.9064,6.9004,6.9004,6.9153,6.9828,6.9079,6.8331,6.9004,6.9542,6.9947,7.0067,7.047,7.0829,7.0889,7.0889,7.0889,7.0889,7.0889,7.0889,7.0889,7.0889,7.0889,7.0889,7.0889,7.0889,7.0889,7.0889,7.0889,7.0889,7.0889,7.0889,7.0889,7.0889,7.0889,7.0889,7.0889,7.0889,7.0889,7.0889,7.0889,7.0889,7.0889,7.0889,7.0889,7.0889,7.0889,7.0889,7.0889,7.0889,7.0889,7.0889,7.0889,7.0889,7.0889,7.0889,7.0889,7.0889,7.0889,7.0889,7.0889,7.0889,7.0889,7.0889,7.0889,7.0889,7.0889,7.0889,7.0889,7.0889,7.0889,7.0889,7.0889,7.0889,7.0889,7.0889,7.0769,7.0769,7.0889,7.0649,7.062,7.0889,7.0769,7.0709,7.0709,7.0829,7.0889,7.0889,7.0889,7.0889,7.0889,7.0889,7.0889,7.0889,7.0889,7.0889,7.0889,7.0889,7.0889,7.0889,7.0889,7.0889,7.0889,7.0889,7.0889,7.0889,7.0889,7.0889,7.0889,7.0889,7.0889,7.0889,7.0889,7.0799,7.062,7.0127,6.9887,6.9678,6.9123,6.9004,6.9153,6.9828,6.9768,6.9738,7.035,6.9842,6.9482,7.05,7.0426,7.0336,7.0799,7.0889,7.0889,7.0889,7.0889,7.0889,7.0889,7.0889,7.0889,7.0889,7.0889,7.0889,7.0889,7.0889,7.0889,7.0889,7.0889,7.0889,7.0889,7.0889,7.0889,7.0889,7.0889,7.0889,7.0889,7.0889,7.0889,7.0889,7.0889,7.0889,7.0889,7.0889,7.0889,7.0889,7.0889,7.0889,7.0889,7.0889,7.0889,7.0889,7.0889,7.0889,7.0889,7.0889,7.0889,7.0889,7.0889,7.0889,7.0889,7.0889,7.0889,7.0889,7.0889,7.0889,7.0889,7.0889,7.0889,7.0889,7.0889,7.0889,7.0889,7.0889,7.0889,7.0889,7.0889,7.0889,7.0889,7.0889,7.0889,7.0889,7.0889,7.0889,7.0889,7.0889,7.0889,7.0889,7.0889,7.0889,7.0889,7.0889,7.0889,7.0889,7.0889,7.0889,7.0889,7.0889,7.0889,7.0889,7.0889,7.0889,7.0889,7.0889,7.0889,7.0889,7.0889,7.0889,7.0889,7.0889,7.0889,7.0889,7.0829,7.05,7.0426,7.035,6.9991,6.9901,6.9991,7.032,7.0217,7.0157,7.0769,7.038,7.0111,7.0769,7.0649,7.053,7.0829,7.0889,7.0889,7.0889,7.0889,7.0889,7.0889,7.0889,7.0889,7.0889,7.0889,7.0889,7.0889,7.0889,7.0889,7.0889,7.0889,7.0889,7.0889,7.0889,7.0889,7.0889,7.0889,7.0889,7.0889,7.0889,7.0889,7.0889,7.0889,7.0889,7.0889,7.0889,7.0889,7.0889,7.0889,7.0889,7.0889,7.0889,7.0889,7.0889,7.0889,7.0889,7.0889,7.0889,7.0889,7.0889,7.0889,7.0889,7.0889,7.0889,7.0889,7.0889,7.0889,7.0889,7.0889,7.0889,7.0889,7.0889,7.0889,7.0889,7.0889,7.0889,7.0889,7.0889,7.0889,7.0889,7.0889,7.0889,7.0889,7.0889,7.0889,7.0889,7.0889,7.0889,7.0889,7.0889,7.0889,7.0889,7.0889,7.0889,7.0889,7.0889,7.0889,7.0889,7.0889,7.0889,7.0889,7.0889,7.0889,7.0889,7.0889,7.0889,7.0889,7.0889,7.0889,7.0889,7.0889,7.0889,7.0889,7.0889,7.0889,7.0889,7.0889,7.0889,7.0889,7.0889,7.0889,7.0889,7.053,7.0277,7.0799,7.0829,7.0769,7.0889,7.0889,7.0889,7.0889,7.0889,7.0889,7.0889,7.0889,7.0889,7.0889,7.0889,7.0889,7.0889,7.0889,7.0889,7.0889,7.0889,7.0889,7.0889,7.0889,7.0889,7.0889,7.0889,7.0889,7.0889,7.0889,7.0889,7.0889,7.0889,7.0889,7.0889,7.0889,7.0889,7.0889,7.0889,7.0889,7.0889,7.0889,7.0889,7.0889,7.0889,7.0889,7.0889,7.0889,7.0889,7.0889,7.0889,7.0889,7.0889,7.0889,7.0889,7.0889,7.0889,7.0889,7.0889,7.0889,7.0889,7.0889,7.0889,7.0889,7.0889,7.0889,7.0889,7.0889,7.0889,7.0889,7.0889,7.0889,7.0889,7.0889,7.0889,7.0889,7.0889,7.0889,7.0889,7.0889,7.0889,7.0889,7.0889,7.0889,7.0889,7.0889,7.0889,7.0889,7.0889,7.0889,7.0889,7.0889,7.0889,7.0889,7.0889,7.0889,7.0889,7.0889,7.0889,7.0889,7.0889,7.0889,7.0889,7.0889,7.0889,7.0889,7.0889,7.0889,7.0889,7.0889,7.0889,7.0889,7.0889,7.0889,7.0889,7.0829,7.0799,7.0889,7.0516,7.0277,7.0799,7.0889,7.0889,7.0889,7.0889,7.0889,7.0889,7.0889,7.0889,7.0889,7.0889,7.0889,7.0889,7.0889,7.0889,7.0889,7.0889,7.0889,7.0889,7.0889,7.0889,7.0889,7.0889,7.0889,7.0889,7.0889,7.0889,7.0889,7.0889,7.0889,7.0889,7.0889,7.0889,7.0889,7.0889,7.0889,7.0889,7.0889,7.0889,7.0889,7.0889,7.0889,7.0889,7.0889,7.0889,7.0889,7.0889,7.0889,7.0889,7.0889,7.0889,7.0889,7.0889,7.0889,7.0889,7.0889,7.0889,7.0889,7.0889,7.0889,7.0889,7.0889,7.0889,7.0889,7.0889,7.0889,7.0889,7.0889,7.0889,7.0889,7.0889,7.0889,7.0889,7.0889,7.0889,7.0889,7.0889,7.0889,7.0889,7.0889,7.0889,7.0889,7.0889,7.0889,7.0889,7.0889,7.0889,7.0889,7.0889,7.0889,7.0889,7.0889,7.0889,7.0889,7.0889,7.0889,7.0889,7.0889,7.0889,7.0889,7.0889,7.0889,7.0889,7.0889,7.0889,7.0889,7.0889,7.0889,7.0889,7.0889,7.0889,7.0889,7.0889,7.0889,7.0679,7.056,7.0859,7.0889,7.0889,7.0889,7.0889,7.0889,7.0889,7.0889,7.0889,7.0889,7.0889,7.0889,7.0889,7.0889,7.0889,7.0889,7.0889,7.0889,7.0889,7.0889,7.0889,7.0889,7.0889,7.0889,7.0889,7.0889,7.0889,7.0889,7.0889,7.0889,7.0889,7.0889,7.0889,7.0889,7.0889,7.0889,7.0889,7.0889,7.0889,7.0889,7.0889,7.0889,7.0889,7.0889,7.0889,7.0889,7.0889,7.0889,7.0889]}]]